[[{"header":{"parameterUnit":"m.s-1","parameterCategory":1,"la1":31.0,"la2":29.5877,"lo1":-88.7671,"lo2":-86.6584,"dy":0.0162,"dx":0.0185,"nx":115,"ny":88,"refTime":"2024-09-24T06:00:00:Z","depth":0,"parameterNumber":2,"parameterNumberName":"U-component_of_WINDS"},"data":[0.0,0.0,0.0,0.0,0.0,0.0,0.0,0.0,0.0,0.0,0.0,0.0,0.0,0.0,0.0,0.0,0.0,0.0,0.0,0.0,0.0,0.0,0.0,0.0,0.0,0.0,0.0,0.0,0.0,0.0,0.0,0.0,0.0,0.0,0.0,0.0,0.0,0.0,0.0,0.0,0.0,0.0,0.0,0.0,0.0,0.0,0.0,0.0,0.0,0.0,0.0,0.0,0.0,0.0,0.0,0.0,0.0,0.0,0.0,0.0,0.0,0.0,0.0,0.0,0.0,0.0,0.0,0.0,0.0,0.0,0.0,0.0,0.0,0.0,0.0,0.0,0.0,0.0,0.0,0.0,0.0,0.0,0.0,0.0,0.0,0.0,0.0,0.0,0.0,0.0,0.0,0.0,0.0,0.0,0.0,0.0,0.0,0.0,0.0,0.0,0.0,0.0,0.0,0.0,0.0,0.0,0.0,0.0,0.0,0.0,0.0,0.0,0.0,0.0,0.0,0.0,0.0,0.0,0.0,0.0,0.0,0.0,0.0,0.0,0.0,0.0,0.0,0.0,0.0,0.0,0.0,0.0,0.0,0.0,0.0,0.0,0.0,0.0,0.0,0.0,0.0,0.0,0.0,0.0,0.0,0.0,0.0,0.0,0.0,0.0,0.0,0.0,0.0,0.0,0.0,0.0,0.0,0.0,0.0,0.0,0.0,0.0,0.0,0.0,0.0,0.0,0.0,0.0,0.0,0.0,0.0,0.0,0.0,0.0,0.0,0.0,0.0,0.0,0.0,0.0,0.0,0.0,0.0,0.0,0.0,0.0,0.0,0.0,0.0,0.0,0.0,0.0,0.0,0.0,0.0,0.0,0.0,0.0,0.0,0.0,0.0,0.0,0.0,0.0,0.0,0.0,0.0,0.0,0.0,0.0,0.0,0.0,0.0,0.0,0.0,0.0,0.0,0.0,0.0,0.0,0.0,0.0,0.0,0.0,0.0,0.0,0.0,0.0,0.0,0.0,0.0,0.0,0.0,0.0,0.0,0.0,0.0,0.0,0.0,0.0,0.0,0.0,0.0,0.0,0.0,0.0,0.0,0.0,0.0,0.0,0.0,0.0,0.0,0.0,0.0,0.0,0.0,0.0,0.0,0.0,0.0,0.0,0.0,0.0,0.0,0.0,0.0,0.0,0.0,0.0,0.0,0.0,0.0,0.0,0.0,0.0,0.0,0.0,0.0,0.0,0.0,0.0,0.0,0.0,0.0,0.0,0.0,0.0,0.0,0.0,0.0,0.0,0.0,0.0,0.0,0.0,0.0,0.0,0.0,0.0,0.0,0.0,0.0,0.0,0.0,0.0,0.0,0.0,0.0,0.0,0.0,0.0,0.0,0.0,0.0,0.0,0.0,0.0,0.0,0.0,0.0,0.0,0.0,0.0,0.0,0.0,0.0,0.0,0.0,0.0,0.0,0.0,0.0,0.0,0.0,0.0,0.0,0.0,0.0,0.0,0.0,0.0,0.0,0.0,0.0,0.0,0.0,0.0,0.0,0.0,0.0,0.0,0.0,0.0,0.0,0.0,0.0,0.0,0.0,0.0,0.0,0.0,0.0,0.0,0.0,0.0,0.0,0.0,0.0,0.0,0.0,0.0,0.0,0.0,0.0,0.0,0.0,0.0,0.0,0.0,0.0,0.0,0.0,0.0,0.0,0.0,0.0,0.0,0.0,0.0,0.0,0.0,0.0,0.0,0.0,0.0,0.0,0.0,0.0,0.0,0.0,0.0,0.0,0.0,0.0,0.0,0.0,0.0,0.0,0.0,0.0,0.0,0.0,0.0,0.0,0.0,0.0,0.0,0.0,0.0,0.0,0.0,0.0,0.0,0.0,0.0,0.0,0.0,0.0,0.0,0.0,0.0,0.0,0.0,0.0,0.0,0.0,0.0,0.0,0.0,0.0,0.0,0.0,0.0,0.0,0.0,0.0,0.0,0.0,0.0,0.0,0.0,0.0,0.0,0.0,0.0,0.0,0.0,0.0,0.0,0.0,0.0,0.0,0.0,0.0,0.0,0.0,0.0,0.0,0.0,0.0,0.0,0.0,0.0,0.0,0.0,0.0,0.0,0.0,0.0,0.0,0.0,0.0,0.0,0.0,0.0,0.0,0.0,0.0,0.0,0.0,0.0,0.0,0.0,0.0,0.0,0.0,0.0,0.0,0.0,0.0,0.0,0.0,0.0,0.0,0.0,0.0,0.0,0.0,0.0,0.0,0.0,0.0,0.0,0.0,0.0,0.0,0.0,0.0,0.0,0.0,0.0,0.0,0.0,0.0,0.0,0.0,0.0,0.0,0.0,0.0,0.0,0.0,0.0,0.0,0.0,0.0,0.0,0.0,0.0,0.0,0.0,0.0,0.0,0.0,0.0,0.0,0.0,0.0,0.0,0.0,0.0,0.0,0.0,0.0,0.0,0.0,0.0,0.0,0.0,0.0,0.0,0.0,0.0,0.0,0.0,0.0,0.0,0.0,0.0,0.0,0.0,0.0,0.0,0.0,0.0,0.0,0.0,0.0,0.0,0.0,0.0,0.0,0.0,0.0,0.0,0.0,0.0,0.0,0.0,0.0,0.0,0.0,0.0,0.0,0.0,0.0,0.0,0.0,0.0,0.0,0.0,0.0,0.0,0.0,0.0,0.0,0.0,0.0,0.0,0.0,0.0,0.0,0.0,0.0,0.0,0.0,0.0,0.0,0.0,0.0,0.0,0.0,0.0,0.0,0.0,0.0,0.0,0.0,0.0,0.0,0.0,0.0,0.0,0.0,0.0,0.0,0.0,0.0,0.0,0.0,0.0,0.0,0.0,0.0,0.0,0.0,0.0,0.0,0.0,0.0,0.0,0.0,0.0,0.0,0.0,0.0,0.0,0.0,0.0,0.0,0.0,0.0,0.0,0.0,0.0,0.0,0.0,0.0,0.0,0.0,0.0,0.0,0.0,0.0,0.0,0.0,0.0,0.0,0.0,0.0,0.0,0.0,0.0,0.0,0.0,0.0,0.0,0.0,0.0,0.0,0.0,0.0,0.0,0.0,0.0,0.0,0.0,0.0,0.0,0.0,0.0,0.0,0.0,0.0,0.0,0.0,0.0,0.0,0.0,0.0,0.0,0.0,0.0,0.0,0.0,0.0,0.0,0.0,0.0,0.0,0.0,0.0,0.0,0.0,0.0,0.0,0.0,0.0,0.0,0.0,0.0,0.0,0.0,0.0,0.0,0.0,0.0,0.0,0.0,0.0,0.0,0.0,0.0,0.0,0.0,0.0,0.0,0.0,0.0,0.0,0.0,0.0,0.0,0.0,0.0,0.0,0.0,0.0,0.0,0.0,0.0,0.0,0.0,0.0,0.0,0.0,0.0,0.0,0.0,0.0,0.0,0.0,0.0,0.0,0.0,0.0,0.0,0.0,0.0,0.0,0.0,0.0,0.0,0.0,0.0,0.0,0.0,0.0,0.0,0.0,0.0,0.0,0.0,0.0,0.0,0.0,0.0,0.0,0.0,0.0,0.0,0.0,0.0,0.0,0.0,0.0,0.0,0.0,0.0,0.0,0.0,0.0,0.0,0.0,0.0,0.0,0.0,0.0,0.0,0.0,0.0,0.0,0.0,0.0,0.0,0.0,0.0,0.0,0.0,0.0,0.0,0.0,0.0,0.0,0.0,0.0,0.0,0.0,0.0,0.0,0.0,0.0,0.0,0.0,0.0,0.0,0.0,0.0,0.0,0.0,0.0,0.0,0.0,0.0,0.0,0.0,0.0,0.0,0.0,0.0,0.0,0.0,0.0,0.0,0.0,0.0,0.0,0.0,0.0,0.0,0.0,0.0,0.0,0.0,0.0,0.0,0.0,0.0,0.0,0.0,0.0,0.0,0.0,0.0,0.0,0.0,0.0,0.0,0.0,0.0,0.0,0.0,0.0,0.0,0.0,0.0,0.0,0.0,0.0,0.0,0.0,0.0,0.0,0.0,0.0,0.0,0.0,0.0,0.0,0.0,0.0,0.0,0.0,0.0,0.0,0.0,0.0,0.0,0.0,0.0,0.0,0.0,0.0,0.0,0.0,0.0,0.0,0.0,0.0,0.0,0.0,0.0,0.0,0.0,0.0,0.0,0.0,0.0,0.0,0.0,0.0,0.0,0.0,0.0,0.0,0.0,0.0,0.0,0.0,0.0,0.0,0.0,0.0,0.0,0.0,0.0,0.0,0.0,0.0,0.0,0.0,0.0,0.0,0.0,0.0,-3.1728,0.0,0.0,0.0,0.0,0.0,0.0,0.0,0.0,0.0,0.0,0.0,0.0,0.0,0.0,0.0,0.0,0.0,0.0,0.0,0.0,0.0,0.0,0.0,0.0,0.0,0.0,0.0,0.0,0.0,0.0,0.0,0.0,0.0,0.0,0.0,0.0,0.0,0.0,0.0,0.0,0.0,0.0,0.0,0.0,0.0,0.0,0.0,0.0,0.0,0.0,0.0,0.0,0.0,0.0,0.0,0.0,0.0,0.0,0.0,0.0,0.0,0.0,0.0,0.0,0.0,0.0,0.0,0.0,0.0,0.0,0.0,0.0,0.0,0.0,0.0,0.0,0.0,0.0,0.0,0.0,0.0,0.0,0.0,0.0,0.0,0.0,0.0,0.0,0.0,0.0,0.0,0.0,0.0,0.0,0.0,0.0,0.0,0.0,0.0,0.0,0.0,0.0,0.0,0.0,0.0,0.0,0.0,0.0,0.0,0.0,-3.3635,-3.4068,-3.3017,-3.2405,-3.229,0.0,0.0,0.0,0.0,0.0,0.0,0.0,0.0,0.0,0.0,0.0,0.0,0.0,0.0,0.0,0.0,0.0,0.0,0.0,0.0,0.0,0.0,0.0,0.0,0.0,0.0,0.0,0.0,0.0,0.0,0.0,0.0,0.0,0.0,0.0,0.0,0.0,0.0,0.0,0.0,0.0,0.0,0.0,0.0,0.0,0.0,0.0,0.0,0.0,0.0,0.0,0.0,0.0,0.0,0.0,0.0,0.0,0.0,0.0,0.0,0.0,0.0,0.0,0.0,0.0,0.0,0.0,0.0,0.0,0.0,0.0,0.0,0.0,0.0,0.0,0.0,0.0,0.0,0.0,0.0,0.0,0.0,0.0,0.0,0.0,0.0,0.0,0.0,0.0,0.0,0.0,0.0,0.0,0.0,0.0,0.0,0.0,0.0,0.0,0.0,0.0,0.0,0.0,0.0,0.0,0.0,0.0,0.0,0.0,0.0,0.0,0.0,-3.3178,-3.257,-3.2083,0.0,0.0,0.0,0.0,0.0,0.0,0.0,0.0,0.0,0.0,0.0,0.0,0.0,0.0,0.0,0.0,0.0,0.0,0.0,0.0,0.0,0.0,0.0,0.0,0.0,0.0,0.0,0.0,0.0,0.0,0.0,0.0,0.0,0.0,0.0,0.0,0.0,0.0,0.0,0.0,0.0,0.0,0.0,0.0,0.0,0.0,0.0,0.0,0.0,0.0,0.0,0.0,0.0,0.0,0.0,0.0,0.0,0.0,0.0,0.0,0.0,0.0,0.0,0.0,0.0,0.0,0.0,0.0,0.0,0.0,0.0,0.0,0.0,0.0,0.0,0.0,0.0,0.0,0.0,0.0,0.0,0.0,0.0,0.0,0.0,0.0,0.0,0.0,0.0,0.0,0.0,0.0,0.0,0.0,0.0,0.0,0.0,0.0,0.0,0.0,0.0,0.0,0.0,0.0,0.0,0.0,0.0,0.0,0.0,0.0,-3.2908,-3.3675,-3.2975,0.0,-3.0343,0.0,0.0,0.0,0.0,0.0,0.0,0.0,0.0,0.0,0.0,0.0,0.0,0.0,0.0,0.0,0.0,0.0,0.0,0.0,0.0,0.0,0.0,0.0,0.0,0.0,0.0,0.0,0.0,0.0,0.0,0.0,0.0,0.0,0.0,0.0,0.0,0.0,0.0,0.0,0.0,0.0,0.0,0.0,0.0,0.0,0.0,0.0,0.0,0.0,0.0,0.0,0.0,0.0,0.0,0.0,0.0,0.0,0.0,0.0,0.0,0.0,0.0,0.0,0.0,0.0,0.0,0.0,0.0,0.0,0.0,0.0,0.0,0.0,0.0,0.0,0.0,0.0,0.0,0.0,0.0,0.0,0.0,0.0,0.0,0.0,0.0,0.0,0.0,0.0,0.0,0.0,0.0,0.0,0.0,0.0,0.0,0.0,0.0,0.0,0.0,0.0,0.0,0.0,0.0,0.0,0.0,0.0,0.0,0.0,0.0,-3.3902,-3.4233,-3.3924,-3.2983,0.0,0.0,0.0,0.0,0.0,0.0,0.0,0.0,0.0,0.0,0.0,0.0,0.0,0.0,0.0,0.0,0.0,0.0,0.0,0.0,0.0,0.0,0.0,0.0,0.0,0.0,0.0,0.0,0.0,0.0,0.0,0.0,0.0,0.0,0.0,0.0,0.0,0.0,0.0,0.0,0.0,0.0,0.0,0.0,0.0,0.0,0.0,0.0,0.0,0.0,0.0,0.0,0.0,0.0,0.0,0.0,0.0,0.0,0.0,0.0,0.0,0.0,0.0,0.0,0.0,0.0,0.0,0.0,0.0,0.0,0.0,0.0,0.0,0.0,0.0,0.0,0.0,0.0,0.0,0.0,0.0,0.0,0.0,0.0,0.0,0.0,0.0,0.0,0.0,0.0,0.0,0.0,0.0,0.0,0.0,0.0,0.0,0.0,0.0,0.0,0.0,0.0,0.0,0.0,0.0,0.0,0.0,0.0,0.0,0.0,-3.298,-3.4105,-3.4244,-3.4265,-3.3411,-3.1596,0.0,0.0,0.0,0.0,0.0,0.0,0.0,0.0,0.0,0.0,0.0,0.0,0.0,0.0,0.0,0.0,0.0,0.0,0.0,0.0,0.0,0.0,0.0,0.0,0.0,0.0,0.0,0.0,0.0,0.0,0.0,0.0,0.0,0.0,0.0,0.0,0.0,0.0,0.0,0.0,0.0,0.0,0.0,0.0,0.0,0.0,0.0,0.0,0.0,0.0,0.0,0.0,0.0,0.0,0.0,0.0,0.0,0.0,0.0,0.0,0.0,0.0,0.0,0.0,0.0,0.0,0.0,0.0,0.0,0.0,0.0,0.0,0.0,0.0,0.0,0.0,0.0,0.0,0.0,0.0,0.0,0.0,0.0,0.0,0.0,0.0,0.0,0.0,0.0,0.0,0.0,0.0,0.0,0.0,0.0,0.0,0.0,0.0,0.0,0.0,0.0,0.0,0.0,0.0,0.0,0.0,0.0,0.0,0.0,-3.1904,-3.2705,-3.3502,-3.3447,-3.2343,0.0,0.0,0.0,0.0,0.0,0.0,0.0,0.0,0.0,0.0,0.0,0.0,0.0,0.0,0.0,0.0,0.0,0.0,0.0,0.0,0.0,0.0,0.0,0.0,0.0,0.0,0.0,0.0,0.0,0.0,0.0,0.0,0.0,0.0,0.0,0.0,0.0,0.0,0.0,0.0,0.0,0.0,0.0,0.0,0.0,0.0,0.0,0.0,0.0,0.0,0.0,0.0,0.0,0.0,0.0,0.0,0.0,0.0,0.0,0.0,0.0,0.0,0.0,0.0,0.0,0.0,0.0,0.0,0.0,0.0,0.0,0.0,0.0,0.0,0.0,0.0,0.0,0.0,0.0,0.0,0.0,0.0,0.0,0.0,0.0,0.0,0.0,0.0,0.0,0.0,0.0,0.0,0.0,0.0,0.0,0.0,0.0,0.0,0.0,0.0,0.0,0.0,0.0,0.0,0.0,0.0,0.0,0.0,0.0,-3.1071,-3.2777,-3.4371,-3.56,-3.4226,-3.2506,0.0,0.0,0.0,0.0,0.0,0.0,0.0,0.0,0.0,0.0,0.0,0.0,0.0,0.0,0.0,0.0,0.0,0.0,0.0,0.0,0.0,0.0,0.0,0.0,0.0,0.0,0.0,0.0,0.0,0.0,0.0,0.0,0.0,0.0,0.0,0.0,0.0,0.0,0.0,0.0,0.0,0.0,0.0,0.0,0.0,0.0,0.0,0.0,0.0,0.0,0.0,0.0,0.0,0.0,0.0,0.0,0.0,0.0,0.0,0.0,0.0,0.0,0.0,0.0,0.0,0.0,0.0,0.0,0.0,0.0,0.0,0.0,0.0,0.0,0.0,0.0,0.0,0.0,0.0,0.0,0.0,0.0,0.0,0.0,0.0,0.0,0.0,0.0,0.0,0.0,0.0,0.0,0.0,0.0,0.0,0.0,0.0,0.0,0.0,0.0,0.0,0.0,0.0,0.0,0.0,0.0,0.0,0.0,0.0,-3.1799,0.0,-3.5385,0.0,-3.4407,-3.2397,0.0,0.0,0.0,0.0,0.0,0.0,0.0,0.0,0.0,0.0,0.0,0.0,0.0,0.0,0.0,0.0,0.0,0.0,0.0,0.0,0.0,0.0,0.0,0.0,0.0,0.0,0.0,0.0,0.0,0.0,0.0,0.0,0.0,0.0,0.0,0.0,0.0,0.0,0.0,0.0,0.0,0.0,0.0,0.0,0.0,0.0,0.0,0.0,0.0,0.0,0.0,0.0,0.0,0.0,0.0,0.0,0.0,0.0,0.0,0.0,0.0,0.0,0.0,0.0,0.0,0.0,0.0,0.0,0.0,0.0,0.0,0.0,0.0,0.0,0.0,0.0,0.0,0.0,0.0,0.0,0.0,0.0,0.0,0.0,0.0,0.0,0.0,0.0,0.0,0.0,0.0,0.0,0.0,0.0,0.0,0.0,0.0,0.0,0.0,0.0,0.0,0.0,0.0,0.0,0.0,0.0,0.0,0.0,-3.1003,-3.3375,-3.4953,-3.5442,-3.4663,-3.3864,-3.1908,0.0,0.0,0.0,0.0,0.0,0.0,0.0,0.0,0.0,0.0,0.0,0.0,0.0,0.0,0.0,0.0,0.0,0.0,0.0,0.0,0.0,0.0,0.0,0.0,0.0,0.0,0.0,0.0,0.0,0.0,0.0,0.0,0.0,0.0,0.0,0.0,0.0,0.0,0.0,0.0,0.0,0.0,0.0,0.0,0.0,0.0,0.0,0.0,0.0,0.0,0.0,0.0,0.0,0.0,0.0,0.0,0.0,0.0,0.0,0.0,0.0,0.0,0.0,0.0,0.0,0.0,0.0,0.0,0.0,0.0,0.0,0.0,0.0,0.0,0.0,0.0,0.0,0.0,0.0,0.0,0.0,0.0,0.0,0.0,0.0,0.0,0.0,0.0,0.0,0.0,0.0,0.0,0.0,0.0,0.0,0.0,0.0,0.0,0.0,0.0,0.0,0.0,0.0,0.0,0.0,0.0,0.0,0.0,0.0,-3.5765,-3.5838,-3.5965,-3.6162,-3.3864,-3.1554,0.0,0.0,0.0,0.0,0.0,0.0,0.0,0.0,0.0,0.0,0.0,0.0,0.0,0.0,0.0,0.0,0.0,0.0,0.0,0.0,0.0,0.0,0.0,0.0,0.0,0.0,0.0,0.0,0.0,0.0,0.0,0.0,0.0,0.0,0.0,0.0,0.0,0.0,0.0,0.0,0.0,0.0,0.0,0.0,0.0,0.0,0.0,0.0,0.0,0.0,0.0,0.0,0.0,0.0,0.0,0.0,0.0,0.0,0.0,0.0,0.0,0.0,0.0,0.0,0.0,0.0,0.0,0.0,0.0,0.0,0.0,0.0,0.0,0.0,0.0,0.0,0.0,0.0,0.0,0.0,0.0,0.0,0.0,0.0,0.0,0.0,0.0,0.0,0.0,0.0,0.0,0.0,0.0,0.0,0.0,0.0,0.0,0.0,0.0,0.0,0.0,0.0,0.0,0.0,0.0,0.0,0.0,0.0,0.0,-3.729,-3.6905,-3.6987,-3.7796,-3.5028,-3.2401,-3.0106,0.0,0.0,0.0,0.0,0.0,0.0,0.0,0.0,0.0,0.0,0.0,0.0,0.0,0.0,0.0,0.0,0.0,0.0,0.0,0.0,0.0,0.0,0.0,0.0,0.0,0.0,0.0,0.0,0.0,0.0,0.0,0.0,0.0,0.0,0.0,0.0,0.0,0.0,0.0,0.0,0.0,0.0,0.0,0.0,0.0,0.0,0.0,0.0,0.0,0.0,0.0,0.0,0.0,0.0,0.0,0.0,0.0,0.0,0.0,0.0,0.0,0.0,0.0,0.0,0.0,0.0,0.0,0.0,0.0,0.0,0.0,0.0,0.0,0.0,0.0,0.0,0.0,0.0,0.0,0.0,0.0,0.0,0.0,0.0,0.0,0.0,0.0,0.0,0.0,0.0,0.0,0.0,0.0,0.0,0.0,0.0,0.0,0.0,0.0,0.0,0.0,0.0,0.0,0.0,0.0,0.0,0.0,0.0,-3.8384,-3.8237,-3.8492,-3.9175,-3.6905,-3.4137,0.0,0.0,0.0,0.0,0.0,0.0,0.0,0.0,0.0,0.0,0.0,0.0,0.0,0.0,0.0,0.0,0.0,0.0,0.0,0.0,0.0,0.0,0.0,0.0,0.0,0.0,0.0,0.0,0.0,0.0,0.0,0.0,0.0,0.0,0.0,0.0,0.0,0.0,0.0,0.0,0.0,0.0,0.0,0.0,0.0,0.0,0.0,0.0,0.0,0.0,0.0,0.0,0.0,0.0,0.0,0.0,0.0,0.0,0.0,0.0,0.0,0.0,0.0,0.0,0.0,0.0,0.0,0.0,0.0,0.0,0.0,0.0,0.0,0.0,0.0,0.0,0.0,0.0,0.0,0.0,0.0,0.0,0.0,0.0,0.0,0.0,0.0,0.0,0.0,0.0,0.0,0.0,0.0,0.0,0.0,0.0,0.0,0.0,0.0,0.0,0.0,0.0,0.0,0.0,0.0,0.0,0.0,0.0,0.0,-3.9715,-4.0687,-4.0766,-3.9917,-3.7222,-3.4518,0.0,0.0,0.0,0.0,0.0,0.0,0.0,0.0,0.0,0.0,0.0,0.0,0.0,0.0,0.0,0.0,0.0,0.0,0.0,0.0,0.0,0.0,0.0,0.0,0.0,0.0,0.0,0.0,0.0,0.0,0.0,0.0,0.0,0.0,0.0,0.0,0.0,0.0,0.0,0.0,0.0,0.0,0.0,0.0,0.0,0.0,0.0,0.0,0.0,0.0,0.0,0.0,0.0,0.0,0.0,0.0,0.0,0.0,0.0,0.0,0.0,0.0,0.0,0.0,0.0,0.0,0.0,0.0,0.0,0.0,0.0,0.0,0.0,0.0,0.0,0.0,0.0,0.0,0.0,0.0,0.0,0.0,0.0,0.0,0.0,0.0,0.0,0.0,0.0,0.0,0.0,0.0,0.0,0.0,0.0,0.0,0.0,0.0,0.0,0.0,0.0,0.0,0.0,0.0,0.0,0.0,0.0,0.0,-3.7063,-3.9959,-4.1819,-4.2221,-4.1119,-3.8579,-3.5927,0.0,0.0,0.0,0.0,0.0,0.0,0.0,0.0,0.0,0.0,0.0,0.0,0.0,0.0,0.0,0.0,0.0,0.0,0.0,0.0,0.0,0.0,0.0,0.0,0.0,0.0,0.0,0.0,0.0,0.0,0.0,0.0,0.0,0.0,0.0,0.0,0.0,0.0,0.0,0.0,0.0,0.0,0.0,0.0,0.0,0.0,0.0,0.0,0.0,0.0,0.0,0.0,0.0,0.0,0.0,0.0,0.0,0.0,0.0,0.0,0.0,0.0,0.0,0.0,0.0,0.0,0.0,0.0,0.0,0.0,0.0,0.0,0.0,0.0,0.0,0.0,0.0,0.0,0.0,0.0,0.0,0.0,0.0,0.0,0.0,0.0,0.0,0.0,0.0,0.0,0.0,0.0,0.0,0.0,0.0,0.0,0.0,0.0,0.0,0.0,0.0,0.0,0.0,0.0,0.0,0.0,0.0,0.0,-3.7393,-3.9572,-4.2072,-4.3014,-4.2161,-4.0251,-3.7669,0.0,0.0,0.0,0.0,0.0,0.0,0.0,0.0,0.0,0.0,0.0,0.0,0.0,0.0,0.0,0.0,0.0,0.0,0.0,0.0,0.0,0.0,0.0,0.0,0.0,0.0,0.0,0.0,0.0,0.0,0.0,0.0,0.0,0.0,0.0,0.0,0.0,0.0,0.0,0.0,0.0,0.0,0.0,0.0,0.0,0.0,0.0,0.0,0.0,0.0,0.0,0.0,0.0,0.0,0.0,0.0,0.0,0.0,0.0,0.0,0.0,0.0,0.0,0.0,0.0,0.0,0.0,0.0,0.0,0.0,0.0,0.0,0.0,0.0,0.0,0.0,0.0,0.0,0.0,0.0,0.0,0.0,0.0,0.0,0.0,0.0,0.0,0.0,0.0,0.0,0.0,0.0,0.0,0.0,0.0,0.0,0.0,0.0,0.0,0.0,0.0,0.0,0.0,0.0,0.0,0.0,0.0,0.0,-3.8993,-4.0141,-4.2264,-4.2777,-4.1457,-3.9919,-3.7706,0.0,0.0,0.0,0.0,0.0,0.0,0.0,0.0,0.0,0.0,0.0,0.0,0.0,0.0,0.0,0.0,0.0,0.0,0.0,0.0,0.0,0.0,0.0,0.0,0.0,0.0,0.0,0.0,0.0,0.0,0.0,0.0,0.0,0.0,0.0,0.0,0.0,0.0,0.0,0.0,0.0,0.0,0.0,0.0,0.0,0.0,0.0,0.0,-2.867,0.0,0.0,0.0,0.0,0.0,0.0,0.0,0.0,0.0,0.0,0.0,0.0,0.0,0.0,0.0,0.0,0.0,0.0,0.0,0.0,0.0,0.0,0.0,0.0,0.0,0.0,0.0,0.0,0.0,0.0,0.0,0.0,0.0,0.0,0.0,0.0,0.0,0.0,0.0,0.0,0.0,0.0,0.0,0.0,0.0,0.0,0.0,0.0,0.0,0.0,0.0,0.0,0.0,0.0,0.0,0.0,0.0,0.0,0.0,-3.9481,-4.0322,-4.2323,-4.2682,-4.1238,-3.9799,-3.7831,0.0,0.0,0.0,0.0,0.0,0.0,0.0,0.0,0.0,0.0,0.0,0.0,0.0,0.0,0.0,0.0,0.0,0.0,0.0,0.0,0.0,0.0,0.0,0.0,0.0,0.0,0.0,0.0,0.0,0.0,0.0,0.0,0.0,0.0,0.0,0.0,0.0,0.0,0.0,0.0,0.0,0.0,0.0,0.0,0.0,0.0,0.0,0.0,0.0,0.0,0.0,0.0,0.0,0.0,0.0,0.0,0.0,0.0,0.0,0.0,0.0,0.0,0.0,0.0,0.0,0.0,0.0,0.0,0.0,0.0,0.0,0.0,0.0,0.0,0.0,0.0,0.0,0.0,0.0,0.0,0.0,0.0,0.0,0.0,0.0,0.0,0.0,0.0,0.0,0.0,0.0,0.0,0.0,0.0,0.0,0.0,0.0,0.0,0.0,0.0,0.0,0.0,0.0,0.0,0.0,0.0,0.0,-3.7517,-3.9355,-4.0297,-4.2102,-4.2422,-4.1068,-3.958,-3.7794,-3.5649,0.0,0.0,0.0,0.0,0.0,0.0,0.0,0.0,0.0,0.0,0.0,0.0,0.0,0.0,0.0,0.0,0.0,0.0,0.0,0.0,0.0,0.0,0.0,0.0,0.0,0.0,0.0,0.0,0.0,0.0,0.0,0.0,0.0,0.0,0.0,0.0,0.0,0.0,-2.6769,-2.8117,0.0,0.0,0.0,0.0,0.0,0.0,0.0,0.0,-2.8508,0.0,0.0,0.0,0.0,0.0,0.0,0.0,0.0,0.0,0.0,0.0,0.0,0.0,0.0,0.0,0.0,0.0,0.0,0.0,0.0,0.0,0.0,0.0,0.0,0.0,0.0,0.0,0.0,0.0,0.0,0.0,0.0,0.0,0.0,0.0,0.0,0.0,0.0,0.0,0.0,0.0,0.0,0.0,0.0,0.0,0.0,0.0,0.0,0.0,0.0,0.0,0.0,0.0,0.0,0.0,0.0,-3.4537,-3.6903,-3.8759,-4.0104,-4.1052,-4.1153,-4.0273,-3.8728,-3.6875,-3.4688,0.0,0.0,0.0,0.0,0.0,0.0,0.0,0.0,0.0,0.0,0.0,0.0,0.0,0.0,0.0,0.0,0.0,0.0,0.0,0.0,0.0,0.0,0.0,0.0,0.0,0.0,0.0,0.0,0.0,0.0,0.0,0.0,0.0,0.0,0.0,0.0,0.0,0.0,0.0,-2.8898,-2.9402,0.0,0.0,0.0,0.0,0.0,0.0,0.0,0.0,-2.8562,0.0,0.0,0.0,0.0,0.0,0.0,0.0,0.0,0.0,0.0,0.0,0.0,0.0,0.0,0.0,0.0,0.0,0.0,0.0,0.0,0.0,0.0,0.0,0.0,0.0,0.0,0.0,0.0,0.0,0.0,0.0,0.0,0.0,0.0,0.0,0.0,0.0,0.0,0.0,0.0,0.0,0.0,0.0,0.0,0.0,0.0,0.0,0.0,0.0,0.0,0.0,0.0,0.0,0.0,0.0,-3.4493,-3.711,-3.9005,-4.0079,-4.0815,-4.0849,-4.0096,-3.8181,-3.6047,0.0,0.0,0.0,0.0,0.0,0.0,0.0,0.0,0.0,0.0,0.0,0.0,0.0,0.0,0.0,0.0,0.0,0.0,0.0,0.0,0.0,0.0,0.0,0.0,0.0,0.0,0.0,0.0,0.0,0.0,0.0,0.0,0.0,0.0,0.0,0.0,0.0,0.0,0.0,0.0,-2.9471,-3.0224,-3.0866,0.0,0.0,0.0,0.0,0.0,0.0,-3.017,-2.9813,0.0,0.0,0.0,0.0,0.0,0.0,0.0,0.0,0.0,0.0,0.0,0.0,0.0,0.0,0.0,0.0,0.0,0.0,0.0,0.0,0.0,0.0,0.0,0.0,0.0,0.0,0.0,0.0,0.0,0.0,0.0,0.0,0.0,0.0,0.0,0.0,0.0,0.0,0.0,0.0,0.0,0.0,0.0,0.0,0.0,0.0,0.0,0.0,0.0,0.0,0.0,0.0,0.0,0.0,0.0,-3.4467,-3.7155,-3.9056,-4.0062,-4.0688,-4.0629,-3.9876,-3.7566,-3.5244,0.0,0.0,0.0,0.0,0.0,0.0,0.0,0.0,0.0,0.0,0.0,0.0,0.0,0.0,0.0,0.0,0.0,0.0,0.0,0.0,0.0,0.0,0.0,0.0,0.0,0.0,0.0,0.0,0.0,0.0,0.0,0.0,0.0,0.0,0.0,0.0,0.0,0.0,0.0,0.0,0.0,-3.103,-3.2278,-3.2021,0.0,0.0,0.0,0.0,-3.1647,-3.1765,0.0,0.0,0.0,0.0,0.0,0.0,0.0,0.0,0.0,0.0,0.0,0.0,0.0,0.0,0.0,0.0,0.0,0.0,0.0,0.0,0.0,0.0,0.0,0.0,0.0,0.0,0.0,0.0,0.0,0.0,0.0,0.0,0.0,0.0,0.0,0.0,0.0,0.0,0.0,0.0,0.0,0.0,0.0,0.0,0.0,0.0,0.0,0.0,0.0,0.0,0.0,0.0,0.0,0.0,0.0,0.0,-3.4341,-3.6026,-3.7911,-3.9977,-4.018,-3.9893,-3.9123,-3.6737,-3.4404,0.0,0.0,0.0,0.0,0.0,0.0,0.0,0.0,0.0,0.0,0.0,0.0,0.0,0.0,0.0,0.0,0.0,0.0,0.0,0.0,0.0,0.0,0.0,0.0,0.0,0.0,0.0,0.0,0.0,0.0,0.0,0.0,0.0,0.0,0.0,0.0,0.0,0.0,0.0,0.0,0.0,-3.1477,-3.2212,-3.2801,-3.2936,0.0,0.0,-3.3152,-3.3152,-3.3694,0.0,0.0,0.0,0.0,0.0,0.0,0.0,0.0,0.0,0.0,0.0,0.0,0.0,0.0,0.0,0.0,0.0,0.0,0.0,0.0,0.0,0.0,0.0,0.0,0.0,0.0,0.0,0.0,0.0,0.0,0.0,0.0,0.0,0.0,0.0,0.0,0.0,0.0,0.0,0.0,0.0,0.0,0.0,0.0,0.0,0.0,0.0,0.0,0.0,0.0,0.0,0.0,0.0,0.0,0.0,-3.11,-3.3638,-3.5937,-3.8059,-3.9902,-3.9505,-3.9135,-3.8873,-3.6098,-3.3718,0.0,0.0,0.0,0.0,0.0,0.0,0.0,0.0,0.0,0.0,0.0,0.0,0.0,0.0,0.0,0.0,0.0,0.0,0.0,0.0,0.0,0.0,0.0,0.0,0.0,0.0,0.0,0.0,0.0,0.0,0.0,0.0,0.0,0.0,0.0,0.0,0.0,0.0,0.0,0.0,0.0,0.0,-3.4015,-3.4455,0.0,0.0,0.0,-3.4827,-3.525,0.0,0.0,0.0,0.0,0.0,0.0,0.0,0.0,0.0,0.0,0.0,0.0,0.0,0.0,0.0,0.0,0.0,0.0,0.0,0.0,0.0,0.0,0.0,0.0,0.0,0.0,0.0,0.0,0.0,0.0,0.0,0.0,0.0,0.0,0.0,0.0,0.0,0.0,0.0,0.0,0.0,0.0,0.0,0.0,0.0,0.0,0.0,0.0,0.0,0.0,0.0,0.0,0.0,0.0,0.0,0.0,0.0,-3.3305,-3.6031,-3.8229,-3.9765,-3.9025,-3.8556,-3.8404,-3.5562,0.0,0.0,0.0,0.0,0.0,0.0,0.0,0.0,0.0,0.0,0.0,0.0,0.0,0.0,0.0,0.0,0.0,0.0,0.0,0.0,0.0,0.0,0.0,0.0,0.0,0.0,0.0,-1.9493,0.0,0.0,0.0,0.0,0.0,0.0,0.0,0.0,0.0,0.0,0.0,0.0,0.0,0.0,-3.415,-3.5414,-3.609,-3.6603,0.0,0.0,-3.6535,-3.6761,-3.6169,-3.5025,0.0,0.0,0.0,0.0,0.0,0.0,0.0,0.0,0.0,0.0,0.0,0.0,0.0,0.0,0.0,0.0,0.0,0.0,0.0,0.0,0.0,0.0,0.0,0.0,0.0,0.0,0.0,0.0,0.0,0.0,0.0,0.0,0.0,0.0,0.0,0.0,0.0,0.0,0.0,0.0,0.0,0.0,0.0,0.0,0.0,0.0,0.0,0.0,0.0,0.0,0.0,0.0,0.0,0.0,0.0,-3.3895,-3.6161,-3.8087,-3.9603,-3.8974,-3.8271,-3.7576,-3.5248,-3.2995,0.0,0.0,0.0,0.0,0.0,0.0,0.0,0.0,0.0,0.0,0.0,0.0,0.0,0.0,0.0,0.0,0.0,0.0,0.0,0.0,0.0,0.0,0.0,0.0,0.0,0.0,0.0,0.0,0.0,0.0,0.0,0.0,0.0,0.0,0.0,0.0,0.0,0.0,0.0,0.0,0.0,-3.4709,-3.5498,-3.7415,-3.8548,0.0,0.0,-3.8311,-3.7032,-3.7879,-3.7216,-3.2832,0.0,0.0,0.0,0.0,0.0,0.0,0.0,0.0,0.0,0.0,0.0,0.0,0.0,0.0,0.0,0.0,0.0,0.0,0.0,0.0,0.0,0.0,0.0,0.0,0.0,0.0,0.0,0.0,0.0,0.0,0.0,0.0,0.0,0.0,0.0,0.0,0.0,0.0,0.0,0.0,0.0,0.0,0.0,0.0,0.0,0.0,0.0,0.0,0.0,0.0,0.0,0.0,0.0,-3.0273,-3.3184,-3.58,-3.7951,-3.9447,-3.8335,-3.7586,-3.7386,-3.4665,-3.2365,0.0,0.0,0.0,0.0,0.0,0.0,0.0,0.0,0.0,0.0,0.0,0.0,0.0,0.0,0.0,0.0,0.0,0.0,0.0,0.0,0.0,0.0,0.0,0.0,0.0,0.0,0.0,0.0,-2.3854,-2.4691,-2.5967,0.0,0.0,0.0,0.0,0.0,0.0,0.0,0.0,0.0,0.0,-3.6686,-3.7577,-3.8762,0.0,0.0,-3.9049,-3.8654,-3.8016,-3.7549,-3.6465,-3.4057,-3.2724,0.0,0.0,0.0,0.0,0.0,0.0,0.0,0.0,0.0,0.0,0.0,0.0,0.0,0.0,0.0,0.0,0.0,0.0,0.0,0.0,0.0,0.0,0.0,0.0,0.0,0.0,0.0,0.0,0.0,0.0,0.0,0.0,0.0,0.0,0.0,0.0,0.0,0.0,0.0,0.0,0.0,0.0,0.0,0.0,0.0,0.0,0.0,0.0,0.0,0.0,0.0,0.0,-3.0149,-3.2994,-3.5495,-3.7551,-3.9082,-3.7584,-3.6821,-3.6837,-3.4389,-3.2332,0.0,0.0,0.0,0.0,0.0,0.0,0.0,0.0,0.0,0.0,0.0,0.0,0.0,0.0,0.0,0.0,0.0,0.0,0.0,0.0,0.0,0.0,0.0,0.0,0.0,0.0,0.0,0.0,-2.5196,-2.5831,-2.6313,0.0,0.0,0.0,0.0,0.0,0.0,0.0,0.0,0.0,0.0,-3.807,-3.8772,-3.943,-3.9875,-3.9944,-3.9438,-3.8882,-3.8513,-3.7453,-3.6208,-3.4881,0.0,0.0,0.0,0.0,0.0,0.0,0.0,0.0,0.0,0.0,0.0,0.0,0.0,0.0,0.0,0.0,0.0,0.0,0.0,0.0,0.0,0.0,0.0,0.0,0.0,0.0,0.0,0.0,0.0,0.0,-2.4121,0.0,0.0,0.0,0.0,0.0,0.0,0.0,0.0,0.0,0.0,0.0,0.0,0.0,0.0,0.0,0.0,0.0,0.0,0.0,0.0,0.0,0.0,-3.0808,-3.3707,-3.5263,-3.6754,-3.8129,-3.6787,-3.6042,-3.6009,-3.4551,-3.3077,-3.1565,0.0,0.0,0.0,0.0,0.0,0.0,0.0,0.0,0.0,0.0,0.0,0.0,0.0,0.0,0.0,0.0,0.0,0.0,0.0,0.0,0.0,0.0,0.0,0.0,0.0,0.0,-2.5011,-2.5756,-2.6134,0.0,0.0,0.0,0.0,0.0,0.0,0.0,0.0,0.0,0.0,-3.6657,-3.8514,-3.8623,-3.9225,-3.9711,-3.972,-3.9573,-3.9149,-3.8245,-3.7834,-3.6965,0.0,0.0,0.0,0.0,0.0,0.0,0.0,0.0,0.0,0.0,0.0,0.0,0.0,0.0,0.0,0.0,0.0,0.0,0.0,0.0,0.0,0.0,0.0,0.0,0.0,0.0,0.0,-3.0024,-2.9368,0.0,0.0,0.0,0.0,0.0,0.0,0.0,0.0,0.0,0.0,0.0,-3.0718,-3.1083,0.0,0.0,0.0,0.0,0.0,0.0,0.0,0.0,0.0,0.0,0.0,0.0,-3.0609,-3.3011,-3.5015,-3.6489,-3.7417,-3.6506,-3.6009,-3.5992,-3.4568,-3.2646,-3.0208,0.0,0.0,0.0,0.0,0.0,0.0,0.0,0.0,0.0,0.0,0.0,0.0,0.0,0.0,0.0,0.0,0.0,0.0,0.0,0.0,0.0,0.0,0.0,0.0,0.0,-2.5062,0.0,0.0,0.0,0.0,0.0,0.0,0.0,0.0,0.0,0.0,0.0,-3.4854,-3.667,-3.8361,-3.9286,-3.8914,-3.9423,-3.9704,0.0,0.0,0.0,0.0,0.0,0.0,0.0,0.0,0.0,0.0,0.0,0.0,0.0,0.0,-3.2338,-3.1711,-3.1626,-3.1652,-3.1703,0.0,0.0,0.0,0.0,0.0,0.0,0.0,0.0,0.0,0.0,0.0,0.0,0.0,0.0,0.0,0.0,-2.9944,0.0,0.0,0.0,0.0,0.0,0.0,0.0,0.0,-3.3047,-3.3932,-3.3533,-3.3929,-3.3806,0.0,-3.2917,-3.1002,0.0,0.0,0.0,0.0,0.0,0.0,0.0,0.0,-3.1139,-3.3061,-3.475,-3.5976,-3.6655,-3.6009,-3.5611,-3.5595,-3.4254,-3.2583,-3.0626,-2.9496,-2.8061,0.0,0.0,0.0,0.0,0.0,0.0,0.0,0.0,0.0,0.0,0.0,0.0,0.0,0.0,0.0,0.0,0.0,0.0,0.0,0.0,0.0,0.0,0.0,-2.574,0.0,0.0,0.0,0.0,0.0,0.0,0.0,0.0,0.0,-3.3129,-3.4963,-3.6673,-3.7958,-3.9161,-3.963,-3.8825,0.0,0.0,0.0,0.0,0.0,0.0,0.0,-3.6463,-3.563,-3.5271,-3.4953,-3.4434,-3.4011,-3.3968,-3.4516,0.0,0.0,-3.3396,-3.3246,-3.329,-3.3274,-3.333,-3.3355,-3.3355,-3.341,-3.3556,0.0,0.0,0.0,0.0,0.0,0.0,0.0,0.0,-3.3881,-3.3898,0.0,-3.2213,0.0,0.0,0.0,0.0,0.0,0.0,0.0,0.0,-3.6165,-3.7084,-3.627,-3.6165,-3.6075,-3.6025,-3.533,-3.422,-3.2652,-2.9967,0.0,0.0,0.0,0.0,0.0,0.0,-3.231,-3.374,-3.4535,-3.5247,-3.5926,-3.5263,-3.4916,-3.4851,-3.3705,-3.2947,-3.2662,-3.0933,-2.9521,-2.8513,-2.7113,0.0,0.0,0.0,0.0,0.0,0.0,0.0,0.0,0.0,0.0,0.0,0.0,0.0,0.0,0.0,0.0,0.0,0.0,0.0,0.0,-2.5218,0.0,0.0,0.0,0.0,0.0,0.0,0.0,0.0,0.0,0.0,-3.3856,-3.6691,-3.8597,-3.7982,0.0,0.0,0.0,0.0,-3.7679,-3.7841,-3.7727,-3.7596,-3.7401,-3.6997,-3.6569,-3.6243,0.0,0.0,-3.5657,-3.5301,-3.5184,-3.5852,-3.5755,-3.5391,-3.4409,-3.433,-3.4404,-3.4433,-3.4388,-3.4433,-3.4433,-3.4404,-3.4602,-3.6542,0.0,0.0,0.0,0.0,-3.5513,-3.6203,-3.674,-3.7231,-3.718,-3.6638,-3.5672,0.0,0.0,0.0,0.0,0.0,0.0,-3.4847,-3.5515,-3.7401,-3.8095,-3.7786,-3.8276,-3.8183,-3.7582,-3.7367,-3.6506,-3.5032,-3.369,-3.1603,-2.8837,0.0,0.0,0.0,0.0,-3.231,-3.3763,-3.4518,-3.4998,-3.5197,-3.4998,-3.4715,-3.4349,-3.3981,-3.3527,-3.2932,-3.1971,-3.1198,-3.0606,-2.8576,0.0,0.0,0.0,0.0,0.0,0.0,0.0,0.0,0.0,0.0,0.0,0.0,0.0,0.0,0.0,0.0,0.0,0.0,0.0,-2.5946,-2.6127,-2.6699,0.0,0.0,0.0,0.0,0.0,0.0,0.0,0.0,0.0,-3.697,-3.8427,-3.9391,0.0,0.0,-3.9074,-3.744,-3.7161,-3.7131,-3.7177,0.0,0.0,0.0,-3.6569,-3.6274,-3.6085,-3.5863,-3.5655,-3.5572,-3.5454,-3.5441,-3.5621,-3.5587,-3.5437,-3.52,-3.5159,-3.5175,-3.519,-3.5175,-3.519,-3.5175,-3.519,-3.522,-3.8713,-3.7517,-3.6887,-3.6627,-3.6712,-3.7377,-3.7922,-3.8379,-3.8785,-3.8734,-3.8311,-3.7879,-3.6846,-3.5351,-3.4563,0.0,0.0,0.0,-3.6554,-3.7185,-3.8396,-3.887,-3.88,-3.9206,-3.9163,-3.8642,-3.8361,-3.7599,-3.6423,-3.5694,-3.3905,-3.1222,0.0,0.0,-3.0969,-3.1946,-3.2911,-3.3773,-3.4518,-3.475,-3.4468,-3.4468,-3.4459,-3.4407,-3.3993,-3.3632,-3.3428,-3.2665,-3.2041,-3.1655,-2.9763,-2.816,0.0,0.0,0.0,0.0,0.0,0.0,0.0,0.0,0.0,0.0,0.0,-2.2433,-2.284,0.0,0.0,0.0,-2.4463,-2.5844,-2.7324,-2.7688,0.0,0.0,0.0,0.0,0.0,0.0,0.0,-3.4914,-3.6581,-3.7839,-3.8286,-3.8953,-3.934,-3.9091,-3.8714,-3.8043,-3.6786,0.0,-3.6446,-3.6554,-3.6399,-3.632,-3.6414,-3.6196,-3.5943,-3.5829,-3.5701,-3.5604,-3.5522,-3.5489,-3.5489,-3.5489,-3.5489,-3.5489,-3.5489,-3.5489,-3.5489,-3.5489,-3.5489,-3.5489,-3.5489,-3.5489,-3.5489,-4.0113,-3.9994,-3.8633,-3.8075,-3.8142,-3.8802,-3.9073,-3.9073,-3.9089,-3.9073,-3.9073,-3.9073,-3.8328,-3.7009,-3.6121,0.0,-3.6767,-3.7384,-3.7937,-3.8502,-3.9135,-3.9322,-3.9216,-3.9166,-3.9133,-3.91,-3.8427,-3.7781,-3.7085,-3.6357,-3.528,-3.3889,-3.3216,-3.2497,-3.1896,-3.3127,-3.3846,-3.3889,-3.4485,-3.4452,-3.3694,-3.3598,-3.3905,-3.4493,-3.353,-3.3248,-3.3797,-3.2808,-3.2149,-3.1877,-3.064,-2.9098,-2.7303,0.0,0.0,0.0,0.0,0.0,0.0,0.0,0.0,0.0,0.0,0.0,0.0,0.0,0.0,0.0,-2.5196,0.0,-2.8497,-2.9643,0.0,0.0,0.0,-3.3135,-3.3717,-3.4755,-3.5707,-3.6428,0.0,0.0,-3.8147,0.0,-3.8569,-3.7861,-3.7322,-3.6782,-3.6239,-3.5911,-3.5752,-3.5941,-3.5973,-3.5941,-3.5973,-3.5799,-3.5686,-3.5554,-3.5489,-3.5504,-3.5489,-3.5489,-3.5489,-3.5489,-3.5489,-3.5489,-3.5489,-3.5489,-3.5489,-3.5489,-3.5489,-3.5489,-3.5489,-3.5489,-3.5489,-4.0113,-4.0079,-3.974,-3.9546,-3.9605,-3.9774,-3.9842,-3.9842,-3.9842,-3.9842,-3.9842,-3.9842,-3.9581,-3.9143,-3.8816,-3.8723,-3.8796,-3.8954,-3.9042,-3.9053,-3.8678,-3.8486,-3.8444,-3.788,-3.7615,-3.7615,-3.745,-3.7284,-3.7069,-3.6357,-3.5528,-3.4651,-3.4468,-3.4005,-3.3309,-3.3607,-3.4071,-3.4634,-3.4253,-3.3528,-3.2474,-3.2015,-3.1707,-3.1492,-3.1228,-3.1289,-3.1792,-3.1151,-3.118,-3.1892,-3.0704,-2.9501,-2.8433,-2.6514,0.0,0.0,0.0,0.0,0.0,0.0,0.0,0.0,0.0,-2.4467,-2.423,0.0,-2.6664,0.0,-2.7246,-2.8931,-3.127,-3.1516,0.0,0.0,-3.4434,-3.5003,-3.6104,-3.6339,-3.6713,-3.7512,-3.7728,-3.7809,-3.7793,-3.7476,-3.7138,-3.6884,-3.6932,-3.6717,-3.5953,-3.5752,-3.5671,-3.5651,-3.5604,-3.5619,-3.5619,-3.5572,-3.5569,-3.5489,-3.5489,-3.5489,-3.5489,-3.5489,-3.5489,-3.5489,-3.5489,-3.5489,-3.5489,-3.5489,-3.5489,-3.5489,-3.5489,-3.5489,-3.5489,-3.5504,-3.5457,-4.0375,-4.0113,-4.0113,-4.0113,-4.0113,-4.0113,-4.0113,-4.0113,-4.0113,-4.0113,-4.0113,-4.0037,-3.9961,-3.9901,-3.9694,-3.9563,-3.9501,-3.9432,-3.9186,-3.8775,-3.8394,-3.8046,-3.7715,-3.7301,-3.7119,-3.7102,-3.6771,-3.6605,-3.6572,-3.5876,-3.5192,-3.4562,-3.4546,-3.4211,-3.3567,-3.3802,-3.4136,-3.4529,-3.3567,-3.2741,-3.2087,-3.1483,-3.1063,-3.0855,-3.0617,-3.0643,-3.0945,-3.0699,-3.0645,-3.0951,-3.0306,-2.9525,-2.8656,-2.7002,-2.5747,0.0,0.0,0.0,0.0,0.0,0.0,0.0,0.0,0.0,0.0,0.0,-2.8802,-2.9096,-2.9919,-3.1283,-3.3381,-3.3907,-3.4501,-3.5398,-3.5958,-3.6425,-3.6784,-3.6935,-3.7199,-3.7662,-3.7639,-3.7466,-3.7214,-3.6854,-3.646,-3.6121,-3.6207,-3.614,-3.5726,-3.5589,-3.5557,-3.5504,-3.5489,-3.5489,-3.5489,-3.5489,-3.5489,-3.5489,-3.5489,-3.5489,-3.5489,-3.5489,-3.5489,-3.5489,-3.5489,-3.5489,-3.5489,-3.5439,-3.5374,-3.5359,-3.5279,-3.5294,-3.5472,-3.5439,-3.5311,-4.0781,-4.0113,-4.0113,-4.0113,-4.0113,-4.0113,-4.0113,-4.0113,-4.0113,-4.0113,-4.0113,-3.9961,-3.9901,-3.9849,-3.9633,-3.9501,-3.9458,-3.9252,-3.8791,-3.8186,-3.7987,-3.7582,-3.697,-3.687,-3.6837,-3.6787,-3.6174,-3.586,-3.5843,-3.5197,-3.4618,-3.4126,-3.4101,-3.3815,-3.3251,-3.3662,-3.386,-3.3813,-3.2647,-3.1939,-3.1811,-3.1177,-3.084,-3.0933,-3.0495,-3.0334,-3.0501,-3.0501,-3.0236,-2.9595,-2.9772,-2.9438,-2.8491,-2.7354,-2.6871,0.0,-2.6217,0.0,0.0,0.0,0.0,0.0,0.0,0.0,0.0,-2.9955,-3.0672,-3.2112,-3.2643,-3.3517,-3.4984,-3.6148,-3.6615,-3.6047,-3.698,-3.738,-3.6735,-3.7015,-3.7285,-3.73,-3.7225,-3.6956,-3.6447,-3.6357,-3.6133,-3.5654,-3.5549,-3.5567,-3.5504,-3.5489,-3.5504,-3.5489,-3.5489,-3.5489,-3.5489,-3.5489,-3.5489,-3.5489,-3.5489,-3.5489,-3.5489,-3.5489,-3.5489,-3.5489,-3.5489,-3.5504,-3.5472,-3.5326,-3.5195,-3.518,-3.5034,-3.5034,-3.5294,-3.5294,-3.5148,-4.0764,-4.0113,-4.0113,-4.0113,-4.0113,-4.0113,-4.0113,-4.0113,-4.0113,-4.0113,-4.007,-3.9977,-3.9833,-3.9729,-3.9563,-3.9432,-3.9292,-3.8702,-3.8318,-3.8162,-3.697,-3.634,-3.6174,-3.5595,-3.5313,-3.5297,-3.5164,-3.5098,-3.5114,-3.4965,-3.4635,-3.4101,-3.4101,-3.379,-3.3224,0.0,0.0,0.0,-3.1852,-3.1,-2.9892,-2.946,-2.8987,-2.8519,-2.8494,0.0,-2.8914,-2.8923,-2.8876,-2.8768,-2.969,0.0,0.0,0.0,0.0,0.0,0.0,0.0,0.0,0.0,0.0,0.0,-3.1478,-3.1147,-3.0614,-3.1416,-3.2556,-3.3876,-3.4116,-3.4715,-3.6067,-3.6427,-3.6693,-3.7049,-3.7304,-3.7394,-3.724,-3.6896,-3.6656,-3.6656,-3.6207,-3.5833,-3.5744,-3.5684,-3.5654,-3.5549,-3.5489,-3.5489,-3.5489,-3.5489,-3.5489,-3.5489,-3.5489,-3.5489,-3.5489,-3.5489,-3.5489,-3.5489,-3.5489,-3.5489,-3.5489,-3.5504,-3.5504,-3.5504,-3.5489,-3.5439,-3.5279,-3.5228,-3.5148,-3.5016,-3.4935,-3.4935,-3.5001,-3.4968,-3.4935,-4.1305,0.0,-4.0265,-4.0113,0.0,-4.0113,-4.0113,-4.0113,-4.0113,-4.0113,-4.0087,-3.9884,-3.9755,-3.9677,-3.9484,-3.9352,-3.9265,-3.8543,-3.7987,-3.7599,-3.6522,-3.581,-3.5446,-3.5081,-3.4899,-3.4899,-3.4899,-3.4899,-3.4899,-3.4899,-3.4464,-3.3672,-3.3672,-3.3214,-3.2394,-3.2092,-3.1896,-3.1793,-3.1561,-3.0785,-2.9511,-2.9282,-2.8748,-2.7836,0.0,0.0,0.0,0.0,0.0,0.0,0.0,0.0,0.0,0.0,0.0,-3.1235,-3.0966,-3.1194,-3.2102,-3.2435,-3.2826,-3.3425,-3.3814,-3.359,-3.2646,-3.3425,-3.4397,-3.5387,-3.5507,-3.5878,-3.6821,-3.6941,-3.6956,-3.6956,-3.6956,-3.6836,-3.6507,-3.6207,-3.5998,-3.5998,-3.5729,-3.5489,-3.5489,-3.5489,-3.5489,-3.5489,-3.5489,-3.5489,-3.5489,-3.5489,-3.5489,-3.5489,-3.5489,-3.5489,-3.5489,-3.5489,-3.5504,-3.5489,-3.5489,-3.5489,-3.5489,-3.5439,-3.5359,-3.5359,-3.5294,-3.5148,-3.5082,-3.5016,-3.4916,-3.4817,-3.4702,-3.4668,-3.4668,-3.475,-3.4798,-4.1982,-4.117,-4.0527,-4.0214,-4.0113,-4.0113,-4.0113,-4.0113,0.0,0.0,0.0,-3.9833,-3.9703,-3.9651,-3.9432,-3.9342,-3.9265,-3.8526,-3.7814,-3.7069,-3.6357,-3.5611,-3.4916,-3.4899,-3.4899,-3.4899,-3.4899,-3.4835,-3.4763,-3.4739,-3.4193,-3.3145,-3.3066,-3.2544,-3.1582,-3.1496,-3.1496,-3.1496,-3.1496,-3.0928,-2.9789,-2.9786,-2.9282,-2.8182,-2.8162,-2.8485,-2.9107,-2.9122,-2.9394,-2.9925,-3.0088,-3.041,-3.0988,-3.1155,-3.1821,-3.3048,-3.308,-3.3307,-3.3968,-3.44,-3.4683,-3.4698,-3.519,-3.5265,-3.4728,-3.5175,-3.5729,-3.6267,-3.6312,-3.6522,-3.7015,-3.706,-3.6881,-3.6357,-3.6312,-3.6088,-3.5594,-3.5489,-3.5534,-3.5489,-3.5504,-3.5489,-3.5489,-3.5489,-3.5489,-3.5489,-3.5489,-3.5489,-3.5489,-3.5489,-3.5489,-3.5489,-3.5489,-3.5489,-3.5489,-3.5457,-3.5439,-3.5424,-3.5392,-3.5407,-3.5407,-3.5294,-3.518,-3.5213,-3.5034,-3.4935,-3.4868,-3.4783,-3.4698,-3.4664,-3.4515,-3.438,-3.4414,-3.4515,-3.4631,-4.2439,-4.1204,-4.1102,-4.0679,-4.0113,-4.0113,-4.0113,-4.0113,-4.0113,-4.0037,-3.9926,-3.9884,-3.9729,-3.9528,-3.9501,-3.9405,-3.9249,-3.8526,-3.7814,0.0,-3.634,-3.5611,-3.4916,-3.4899,-3.4899,-3.4899,-3.4899,-3.4683,-3.425,-3.4209,-3.3636,-3.2656,-3.252,-3.2176,-3.1553,-3.1496,-3.1496,-3.1496,-3.1496,-3.1137,-3.0402,-3.0498,-3.0223,-2.9584,-2.9599,-2.9686,-2.9701,-2.9701,-2.9731,-2.9852,-3.0392,-3.0966,-3.1558,-3.2131,-3.2976,-3.4161,-3.425,-3.4565,-3.5192,-3.531,-3.537,-3.537,-3.5459,-3.5459,-3.5385,-3.5444,-3.5549,-3.5639,-3.5669,-3.5669,-3.5759,-3.5818,-3.5818,-3.5699,-3.5654,-3.5594,-3.5504,-3.5489,-3.5489,-3.5489,-3.5489,-3.5489,-3.5489,-3.5489,-3.5489,-3.5489,-3.5489,-3.5489,-3.5489,-3.5489,-3.5489,-3.5489,-3.5489,-3.5489,-3.5457,-3.5326,-3.5261,-3.5246,-3.51,-3.5082,-3.5228,-3.5067,-3.5001,-3.5133,-3.5001,-3.4835,-3.4765,-3.4731,-3.4631,-3.4515,-3.4414,-3.438,-3.438,-3.4448,-3.4448,-4.275,-4.1779,-4.1373,-4.0764,-4.0113,-4.0113,-4.0113,-4.0113,-4.0113,-4.0037,-3.9901,-3.9746,-3.9616,-3.9501,-3.9405,-3.9352,-3.9265,-3.8526,-3.803,-3.7632,-3.6522,-3.581,-3.5479,-3.5081,-3.4899,-3.4875,-3.4594,-3.4325,-3.4084,-3.379,-3.3203,-3.2425,-3.2079,-3.1783,-3.1539,-3.1496,-3.1496,-3.1496,-3.1496,-3.1167,-3.0522,-3.0563,-3.0306,-2.9717,-2.9768,-2.9907,-3.0156,-3.0186,-3.0351,-3.0726,-3.0996,-3.1461,-3.2106,-3.2766,-3.3561,-3.4444,-3.4831,-3.5175,-3.5489,-3.5489,-3.5489,-3.5489,-3.5489,-3.5489,-3.5489,-3.5489,-3.5489,-3.5489,-3.5489,-3.5489,-3.5489,-3.5489,-3.5489,-3.5489,-3.5489,-3.5489,-3.5489,-3.5489,-3.5489,-3.5489,-3.5489,-3.5489,-3.5489,-3.5489,-3.5489,-3.5489,-3.5489,-3.5489,-3.5489,-3.5489,-3.5489,-3.5489,-3.5489,-3.5439,-3.5359,-3.5246,-3.5133,-3.5034,-3.4968,-3.4935,-3.5001,-3.4902,-3.485,-3.4883,-3.4783,-3.4601,-3.4549,-3.453,-3.4481,-3.4448,-3.438,-3.438,-3.438,-3.438,-3.438,-4.3234,-4.2472,-4.1762,-4.0933,-4.013,-4.0113,-4.007,-4.0045,-4.0037,-3.9935,-3.9798,-3.9616,-3.9511,-3.9448,-3.9325,-3.9315,-3.9232,-3.8692,-3.8361,-3.8096,-3.7036,-3.6406,-3.6191,-3.5495,-3.5148,-3.5066,-3.4431,-3.4034,-3.3841,-3.3319,-3.2734,-3.2203,-3.171,-3.1496,-3.1496,-3.1496,-3.1496,-3.1496,-3.1496,-3.1241,-3.0733,-3.0731,-3.0492,-3.0073,-3.0028,-3.0253,-3.0702,-3.0731,-3.0957,-3.1451,-3.1496,-3.1809,-3.2497,-3.314,-3.3784,-3.4474,-3.5115,-3.5489,-3.5489,-3.5489,-3.5489,-3.5489,-3.5489,-3.5489,-3.5489,-3.5489,-3.5489,-3.5489,-3.5489,-3.5489,-3.5489,-3.5489,-3.5489,-3.5489,-3.5489,-3.5489,-3.5489,-3.5489,-3.5489,-3.5489,-3.5489,-3.5489,-3.5489,-3.5489,-3.5489,-3.5489,-3.5489,-3.5489,-3.5489,-3.5489,-3.5504,-3.5472,-3.5472,-3.5424,-3.5246,-3.5148,-3.5049,-3.4902,-3.4802,-3.4802,-3.4802,-3.475,-3.4664,-3.4698,-3.4549,-3.4448,-3.4414,-3.4414,-3.4414,-3.438,-3.438,-3.438,-3.438,-3.438,-3.438,-4.3984,-4.3223,-4.2429,-4.1399,-4.0146,-4.0113,-4.0037,-3.9926,-3.9807,-3.9651,-3.9563,-3.9642,-3.952,-3.9325,-3.9299,-3.9315,-3.9315,-3.9232,-3.8851,-3.8252,-3.8053,-3.7639,-3.6986,-3.6241,-3.5909,-3.572,-3.4651,-3.3838,-3.3277,-3.2749,-3.2176,-3.164,-3.1524,-3.1496,-3.1496,-3.1496,-3.1496,-3.1496,-3.1496,-3.1466,-3.1421,-3.1406,-3.1391,-3.1346,-3.1301,-3.1346,-3.1361,-3.1406,-3.1421,-3.1496,-3.1496,-3.1809,-3.2452,-3.314,-3.3784,-3.4474,-3.513,-3.5489,-3.5489,-3.5489,-3.5489,-3.5489,-3.5489,-3.5489,-3.5489,-3.5489,-3.5489,-3.5489,-3.5489,-3.5489,-3.5489,-3.5489,-3.5489,-3.5489,-3.5489,-3.5489,-3.5489,-3.5489,-3.5489,-3.5489,-3.5489,-3.5489,-3.5489,-3.5489,-3.5489,-3.5489,-3.5489,-3.5489,-3.5489,-3.5489,-3.5439,-3.5326,-3.5359,-3.5392,-3.5228,-3.5049,-3.4883,-3.4731,-3.4582,-3.4582,-3.4616,-3.4582,-3.4448,-3.4597,-3.4515,-3.4399,-3.438,-3.438,-3.438,-3.438,-3.438,-3.438,-3.438,-3.438,-3.438,-4.2921,-4.2211,-4.1855,-4.109,-4.0155,-4.0113,-4.0037,-3.9901,-3.9833,-3.9694,-3.9528,-3.958,-3.9484,-3.9315,-3.9315,-3.9315,-3.9315,-3.9315,-3.9149,-3.8808,-3.8411,-3.802,-3.7715,-3.7003,-3.6273,-3.546,-3.4607,-3.3704,-3.2784,-3.2132,-3.1739,-3.1524,-3.1496,-3.1496,-3.1496,-3.1496,-3.1496,-3.1496,-3.1496,-3.1496,-3.1496,-3.1496,-3.1496,-3.1496,-3.1496,-3.1496,-3.1496,-3.1496,-3.1496,-3.1496,-3.1496,-3.1795,-3.2452,-3.314,-3.3784,-3.4474,-3.5115,-3.5489,-3.5489,-3.5489,-3.5489,-3.5489,-3.5489,-3.5489,-3.5489,-3.5489,-3.5489,-3.5489,-3.5489,-3.5489,-3.5489,-3.5489,-3.5489,-3.5489,-3.5489,-3.5489,-3.5489,-3.5489,-3.5489,-3.5489,-3.5489,-3.5489,-3.5489,-3.5489,-3.5489,-3.5489,-3.5489,-3.5489,-3.5489,-3.5489,-3.5407,-3.5261,-3.5294,-3.518,-3.4949,-3.485,-3.4716,-3.4582,-3.4448,-3.4448,-3.4481,-3.4481,-3.4414,-3.4515,-3.4448,-3.4399,-3.438,-3.438,-3.438,-3.438,-3.438,-3.438,-3.438,-3.438,-3.438,-4.2198,-4.1693,-4.1424,-4.0823,-4.0076,-4.0054,-3.9935,-3.9798,-3.9798,-3.9668,-3.9448,-3.9432,-3.9379,-3.9315,-3.9315,-3.9315,-3.9315,-3.9315,-3.9315,-3.9249,-3.8725,-3.851,-3.8427,-3.7534,-3.6535,-3.5408,-3.4471,-3.3376,-3.2252,-3.1739,-3.1482,-3.1438,-3.1467,-3.1482,-3.1438,-3.1482,-3.1496,-3.1496,-3.1496,-3.1496,-3.1496,-3.1496,-3.1496,-3.1496,-3.1496,-3.1496,-3.1496,-3.1496,-3.1496,-3.1496,-3.1496,-3.1809,-3.2482,-3.314,-3.3873,-3.4713,-3.522,-3.5489,-3.5489,-3.5489,-3.5489,-3.5489,-3.5489,-3.5489,-3.5489,-3.5489,-3.5489,-3.5489,-3.5489,-3.5489,-3.5489,-3.5489,-3.5489,-3.5489,-3.5489,-3.5489,-3.5489,-3.5489,-3.5489,-3.5489,-3.5489,-3.5489,-3.5489,-3.5489,-3.5489,-3.5489,-3.5489,-3.5489,-3.5489,-3.5504,-3.5407,-3.5195,-3.5115,-3.5016,-3.4765,-3.4698,-3.4597,-3.4481,-3.438,-3.438,-3.438,-3.438,-3.438,-3.4448,-3.4414,-3.438,-3.438,-3.438,-3.438,-3.438,-3.438,-3.438,-3.438,-3.438,-3.438,-4.2457,-4.2307,-4.1605,-4.0816,-4.0018,-3.9953,-3.9772,-3.9554,-3.9554,-3.9432,-3.9342,-3.9299,-3.9315,-3.9315,-3.9315,-3.9315,-3.9315,-3.9315,-3.9315,-3.9299,-3.9249,-3.9249,-3.9146,-3.7867,-3.6848,-3.5986,-3.4466,-3.2984,-3.1701,-3.1539,-3.1438,-3.1322,-3.1438,-3.1453,-3.1351,-3.1453,-3.1496,-3.1496,-3.1496,-3.1496,-3.1496,-3.1496,-3.1496,-3.1496,-3.1496,-3.1496,-3.1496,-3.1496,-3.1496,-3.1496,-3.1525,-3.1839,-3.2512,-3.3185,-3.4143,-3.525,-3.5459,-3.5489,-3.5489,-3.5489,-3.5489,-3.5489,-3.5489,-3.5489,-3.5489,-3.5489,-3.5489,-3.5489,-3.5489,-3.5489,-3.5489,-3.5489,-3.5489,-3.5489,-3.5489,-3.5489,-3.5489,-3.5489,-3.5489,-3.5489,-3.5489,-3.5489,-3.5489,-3.5489,-3.5489,-3.5489,-3.5489,-3.5489,-3.5504,-3.5504,-3.5326,-3.5049,-3.4902,-3.4868,-3.4731,-3.4664,-3.4597,-3.4481,-3.438,-3.438,-3.438,-3.438,-3.438,-3.438,-3.438,-3.438,-3.438,-3.438,-3.438,-3.438,-3.438,-3.438,-3.438,-3.438,-3.438,-4.1191,-4.1183,-4.1198,-4.0772,-4.0061,-4.0331,-4.012,-3.9501,-3.9484,-3.9405,-3.9299,-3.9315,-3.9315,-3.9315,-3.9315,-3.9315,-3.9315,-3.9315,-3.9315,-3.9315,-3.9315,-3.9315,-3.9212,-3.8329,-3.7311,-3.6278,-3.5208,-3.3784,-3.2242,-3.172,-3.1438,-3.1351,-3.1453,-3.1438,-3.1351,-3.1438,-3.1496,-3.1496,-3.1496,-3.1496,-3.1496,-3.1496,-3.1496,-3.1496,-3.1496,-3.1496,-3.1496,-3.1496,-3.1496,-3.1496,-3.1884,-3.2437,-3.3155,-3.4173,-3.4981,-3.5415,-3.5489,-3.5489,-3.5489,-3.5489,-3.5489,-3.5489,-3.5489,-3.5489,-3.5489,-3.5489,-3.5489,-3.5489,-3.5489,-3.5489,-3.5489,-3.5489,-3.5489,-3.5489,-3.5489,-3.5489,-3.5489,-3.5489,-3.5489,-3.5489,-3.5489,-3.5489,-3.5489,-3.5489,-3.5489,-3.5489,-3.5489,-3.5489,-3.5457,-3.5407,-3.5213,-3.4983,-3.4817,-3.4716,-3.4515,-3.4515,-3.4481,-3.4448,-3.438,-3.438,-3.438,-3.438,-3.438,-3.438,-3.438,-3.438,-3.438,-3.438,-3.438,-3.438,-3.438,-3.438,-3.438,-3.438,-3.438,-4.0436,-4.0405,-4.0705,-4.0614,-4.0277,-4.0342,-4.0176,-3.9754,-3.9548,-3.9395,-3.9299,-3.9315,-3.9315,-3.9315,-3.9315,-3.9315,-3.9315,-3.9315,-3.9315,-3.9272,-3.9077,-3.8996,-3.8843,-3.8096,-3.7136,-3.6068,-3.5167,-3.4016,-3.2856,-3.2363,-3.202,-3.1782,-3.2005,-3.205,-3.1901,-3.1856,-3.1824,-3.1809,-3.1615,-3.1496,-3.1496,-3.1496,-3.1496,-3.1496,-3.1496,-3.1496,-3.1496,-3.1496,-3.1496,-3.1585,-3.2123,-3.2901,-3.3814,-3.4876,-3.5489,-3.5489,-3.5489,-3.5489,-3.5489,-3.5489,-3.5489,-3.5489,-3.5489,-3.5489,-3.5489,-3.5489,-3.5489,-3.5489,-3.5489,-3.5489,-3.5489,-3.5489,-3.5489,-3.5489,-3.5489,-3.5489,-3.5489,-3.5489,-3.5489,-3.5489,-3.5489,-3.5489,-3.5489,-3.5489,-3.5489,-3.5489,-3.5489,-3.5489,-3.5457,-3.5326,-3.5148,-3.492,-3.4783,-3.465,-3.4481,-3.4448,-3.4448,-3.4414,-3.438,-3.438,-3.438,-3.438,-3.438,-3.438,-3.438,-3.438,-3.438,-3.438,-3.438,-3.438,-3.438,-3.438,-3.438,-3.438,-3.438,-4.042,-4.0297,-4.0175,-4.037,-4.0434,-3.9949,-3.9914,-4.01,-3.9597,-3.9315,-3.9315,-3.9315,-3.9315,-3.9315,-3.9315,-3.9315,-3.9315,-3.9245,-3.9175,-3.9148,-3.8618,-3.8351,-3.8222,-3.7161,-3.6276,-3.546,-3.4212,-3.3498,-3.3254,-3.3258,-3.306,-3.2807,-3.3105,-3.3107,-3.293,-3.2615,-3.2467,-3.2318,-3.1869,-3.1555,-3.1496,-3.1496,-3.1496,-3.1496,-3.1496,-3.1496,-3.1496,-3.1496,-3.1496,-3.157,-3.2183,-3.314,-3.4352,-3.5145,-3.5489,-3.5489,-3.5489,-3.5489,-3.5489,-3.5489,-3.5489,-3.5489,-3.5489,-3.5489,-3.5489,-3.5489,-3.5489,-3.5489,-3.5489,-3.5489,-3.5489,-3.5489,-3.5489,-3.5489,-3.5489,-3.5489,-3.5489,-3.5489,-3.5489,-3.5489,-3.5489,-3.5489,-3.5489,-3.5489,-3.5489,-3.5489,-3.5489,-3.5489,-3.5457,-3.5294,-3.5115,-3.4935,-3.475,-3.4549,-3.4448,-3.438,-3.4414,-3.438,-3.438,-3.438,-3.438,-3.438,-3.438,-3.438,-3.438,-3.438,-3.438,-3.438,-3.438,-3.438,-3.438,-3.438,-3.438,-3.438,-3.438,-4.0347,-4.0316,-4.0467,-4.03,-4.0047,-4.0075,-3.9982,-3.965,-3.938,-3.9315,-3.9315,-3.9315,-3.9315,-3.9315,-3.9315,-3.9299,-3.9272,-3.8827,-3.859,-3.8579,-3.8379,-3.8051,-3.7576,-3.6799,-3.6057,-3.5421,-3.4598,-3.4095,-3.3895,-3.3631,-3.3207,-3.2895,-3.3268,-3.3315,-3.3079,-3.3106,-3.3006,-3.2497,-3.2288,-3.1989,-3.1555,-3.1496,-3.1496,-3.1496,-3.1496,-3.1496,-3.1496,-3.1496,-3.1496,-3.154,-3.2572,-3.3799,-3.4936,-3.5385,-3.5489,-3.5489,-3.5489,-3.5489,-3.5489,-3.5489,-3.5489,-3.5489,-3.5489,-3.5489,-3.5489,-3.5489,-3.5489,-3.5489,-3.5489,-3.5489,-3.5489,-3.5489,-3.5489,-3.5489,-3.5489,-3.5489,-3.5489,-3.5489,-3.5489,-3.5489,-3.5489,-3.5489,-3.5489,-3.5489,-3.5489,-3.5489,-3.5489,-3.5489,-3.5472,-3.5228,-3.5016,-3.4902,-3.4683,-3.4481,-3.4448,-3.438,-3.438,-3.438,-3.438,-3.438,-3.438,-3.438,-3.438,-3.438,-3.438,-3.438,-3.438,-3.438,-3.438,-3.438,-3.438,-3.438,-3.438,-3.438,-3.438,-4.0137,-4.0121,-4.0266,-4.0213,-3.999,-4.0008,-3.9724,-3.9344,-3.9297,-3.904,-3.8733,-3.9094,-3.9013,-3.8733,-3.8816,-3.8788,-3.8579,-3.8153,-3.7822,-3.7618,-3.7589,-3.737,-3.6966,-3.6368,-3.591,-3.5494,-3.507,-3.4718,-3.4448,-3.4252,-3.3854,-3.3501,-3.3871,-3.3995,-3.3746,-3.3776,-3.3634,-3.3245,-3.2766,-3.2288,-3.1899,-3.163,-3.1615,-3.1824,-3.1869,-3.2004,-3.2198,-3.2258,-3.2108,-3.2138,-3.314,-3.4367,-3.5385,-3.5489,-3.5489,-3.5489,-3.5489,-3.5489,-3.5489,-3.5489,-3.5489,-3.5489,-3.5489,-3.5489,-3.5489,-3.5489,-3.5489,-3.5489,-3.5489,-3.5489,-3.5489,-3.5489,-3.5489,-3.5489,-3.5489,-3.5489,-3.5489,-3.5489,-3.5489,-3.5489,-3.5489,-3.5489,-3.5489,-3.5489,-3.5489,-3.5489,-3.5489,-3.5489,-3.5424,-3.5133,-3.5001,-3.4835,-3.465,-3.4481,-3.4414,-3.438,-3.438,-3.438,-3.438,-3.438,-3.438,-3.438,-3.438,-3.438,-3.438,-3.438,-3.438,-3.438,-3.438,-3.438,-3.438,-3.438,-3.438,-3.438,-3.438,-3.9889,-3.9696,-3.9696,-3.997,-4.0228,-3.9735,-3.9471,-3.9372,-3.9324,-3.8688,-3.8014,-3.8606,-3.8479,-3.7751,-3.8067,-3.801,-3.7488,-3.737,-3.7071,-3.6662,-3.6492,-3.6399,-3.629,-3.5829,-3.5587,-3.5489,-3.5427,-3.5234,-3.485,-3.4889,-3.4902,-3.4355,-3.4743,-3.5055,-3.4735,-3.4626,-3.4503,-3.4158,-3.3245,-3.2736,-3.2527,-3.2019,-3.1944,-3.2542,-3.2587,-3.2796,-3.32,-3.3365,-3.3215,-3.2871,-3.3814,-3.4711,-3.534,-3.5489,-3.5489,-3.5489,-3.5489,-3.5489,-3.5489,-3.5489,-3.5489,-3.5489,-3.5489,-3.5489,-3.5489,-3.5489,-3.5489,-3.5489,-3.5489,-3.5489,-3.5489,-3.5489,-3.5489,-3.5489,-3.5489,-3.5489,-3.5489,-3.5489,-3.5489,-3.5489,-3.5489,-3.5489,-3.5489,-3.5489,-3.5489,-3.5489,-3.5489,-3.5489,-3.5392,-3.5133,-3.4953,-3.4769,-3.4568,-3.4481,-3.438,-3.438,-3.438,-3.438,-3.438,-3.438,-3.438,-3.438,-3.438,-3.438,-3.438,-3.438,-3.438,-3.438,-3.438,-3.438,-3.438,-3.438,-3.438,-3.438,-3.438,-3.9753,-3.9681,-3.9553,-3.9553,-3.9738,-3.9942,-3.9771,-3.936,-3.9314,-3.8792,-3.8164,-3.7924,-3.7751,-3.7413,-3.7531,-3.7531,-3.7251,-3.6875,-3.6616,-3.6337,-3.591,-3.5765,-3.5733,-3.5587,-3.5504,-3.5472,-3.5359,-3.5133,-3.4935,-3.4968,-3.4783,-3.4448,-3.4916,-3.51,-3.4957,-3.5118,-3.4951,-3.4563,-3.4234,-3.3679,-3.326,-3.3051,-3.3051,-3.32,-3.323,-3.3335,-3.3544,-3.3978,-3.4158,-3.4039,-3.4264,-3.4786,-3.5429,-3.5489,-3.5489,-3.5489,-3.5489,-3.5489,-3.5489,-3.5489,-3.5489,-3.5489,-3.5489,-3.5489,-3.5489,-3.5489,-3.5489,-3.5489,-3.5489,-3.5489,-3.5489,-3.5489,-3.5489,-3.5489,-3.5489,-3.5489,-3.5489,-3.5489,-3.5489,-3.5489,-3.5489,-3.5489,-3.5489,-3.5489,-3.5489,-3.5489,-3.5457,-3.5424,-3.5279,-3.5082,-3.4835,-3.4702,-3.4549,-3.4448,-3.438,-3.438,-3.438,-3.438,-3.438,-3.438,-3.438,-3.438,-3.438,-3.438,-3.438,-3.438,-3.438,-3.438,-3.438,-3.438,-3.438,-3.438,-3.438,-3.438,-3.438,-3.9589,-3.9553,-3.9445,-3.9388,-3.9427,-3.9807,-3.9442,-3.8694,-3.8835,-3.8257,-3.7361,-3.737,-3.7101,-3.6646,-3.686,-3.6814,-3.6538,-3.6196,-3.6022,-3.5958,-3.5668,-3.5522,-3.5489,-3.5489,-3.5472,-3.5374,-3.5261,-3.5063,-3.485,-3.4817,-3.4683,-3.4616,-3.4868,-3.5049,-3.5082,-3.5311,-3.534,-3.4921,-3.4698,-3.4294,-3.3979,-3.3634,-3.3679,-3.3814,-3.3918,-3.3993,-3.4337,-3.4711,-3.4906,-3.4906,-3.4936,-3.51,-3.5429,-3.5489,-3.5489,-3.5489,-3.5489,-3.5489,-3.5489,-3.5489,-3.5489,-3.5489,-3.5489,-3.5489,-3.5489,-3.5489,-3.5489,-3.5489,-3.5489,-3.5489,-3.5489,-3.5489,-3.5489,-3.5489,-3.5489,-3.5489,-3.5489,-3.5489,-3.5489,-3.5489,-3.5489,-3.5504,-3.5489,-3.5489,-3.5489,-3.5457,-3.5392,-3.5311,-3.5213,-3.4983,-3.4783,-3.465,-3.4549,-3.4448,-3.438,-3.438,-3.438,-3.438,-3.438,-3.438,-3.438,-3.438,-3.438,-3.438,-3.438,-3.438,-3.438,-3.438,-3.438,-3.438,-3.438,-3.438,-3.438,-3.438,-3.438,-3.9388,-3.9388,-3.9388,-3.9388,-3.9391,-3.947,-3.8916,-3.7834,-3.8245,-3.7452,-3.627,-3.6784,-3.6507,-3.5537,-3.6133,-3.6022,-3.5554,-3.5619,-3.5587,-3.5554,-3.5489,-3.5489,-3.5489,-3.5489,-3.5407,-3.5261,-3.5195,-3.4983,-3.475,-3.4698,-3.4664,-3.465,-3.4802,-3.5001,-3.5115,-3.5359,-3.5489,-3.5355,-3.4936,-3.4728,-3.4563,-3.4203,-3.4188,-3.4517,-3.4592,-3.4831,-3.5205,-3.5429,-3.5429,-3.5474,-3.5489,-3.5459,-3.5489,-3.5489,-3.5489,-3.5489,-3.5489,-3.5489,-3.5489,-3.5489,-3.5489,-3.5489,-3.5489,-3.5489,-3.5489,-3.5489,-3.5489,-3.5489,-3.5489,-3.5489,-3.5489,-3.5489,-3.5472,-3.5472,-3.5457,-3.5504,-3.5472,-3.5457,-3.5504,-3.5472,-3.5457,-3.5504,-3.5472,-3.5457,-3.5472,-3.5359,-3.5294,-3.5115,-3.5016,-3.4865,-3.4731,-3.4616,-3.4515,-3.4414,-3.438,-3.438,-3.438,-3.438,-3.438,-3.438,-3.438,-3.438,-3.438,-3.438,-3.438,-3.438,-3.438,-3.438,-3.438,-3.438,-3.438,-3.438,-3.438,-3.438,-3.438,-3.9388,-3.9388,-3.9388,-3.9388,-3.9502,-3.9978,-3.9453,-3.8183,-3.8357,-3.7477,-3.6394,-3.6037,-3.5797,-3.5519,-3.5668,-3.5587,-3.5504,-3.5489,-3.5489,-3.5489,-3.5489,-3.5504,-3.5504,-3.5457,-3.5374,-3.5195,-3.5049,-3.4883,-3.4698,-3.4563,-3.4481,-3.4515,-3.4769,-3.4935,-3.5034,-3.5326,-3.5489,-3.5474,-3.531,-3.5235,-3.5205,-3.507,-3.5011,-3.522,-3.522,-3.531,-3.5444,-3.5489,-3.5489,-3.5489,-3.5489,-3.5489,-3.5489,-3.5489,-3.5489,-3.5489,-3.5489,-3.5489,-3.5489,-3.5489,-3.5489,-3.5489,-3.5489,-3.5489,-3.5489,-3.5489,-3.5489,-3.5489,-3.5489,-3.5457,-3.5472,-3.5504,-3.5439,-3.5374,-3.5407,-3.5439,-3.5326,-3.5407,-3.5439,-3.5374,-3.5407,-3.5439,-3.5294,-3.5294,-3.5261,-3.5228,-3.5129,-3.4949,-3.4831,-3.4765,-3.4631,-3.453,-3.4481,-3.438,-3.438,-3.438,-3.438,-3.438,-3.438,-3.438,-3.438,-3.438,-3.438,-3.438,-3.438,-3.438,-3.438,-3.438,-3.438,-3.438,-3.438,-3.438,-3.438,-3.438,-3.438,-3.9388,-3.9388,-3.9388,-3.9388,-3.94,-3.9446,-3.8907,-3.8041,-3.7615,-3.6947,-3.6093,-3.5619,-3.5489,-3.5489,-3.5489,-3.5489,-3.5489,-3.5489,-3.5489,-3.5489,-3.5489,-3.5439,-3.5374,-3.5326,-3.5261,-3.5082,-3.4968,-3.4783,-3.4582,-3.4481,-3.4448,-3.4549,-3.4783,-3.4968,-3.5067,-3.5326,-3.5457,-3.5489,-3.5489,-3.5489,-3.5489,-3.5489,-3.5489,-3.5489,-3.5489,-3.5489,-3.5489,-3.5489,-3.5489,-3.5489,-3.5489,-3.5489,-3.5489,-3.5489,-3.5489,-3.5489,-3.5489,-3.5489,-3.5489,-3.5489,-3.5489,-3.5489,-3.5489,-3.5489,-3.5489,-3.5489,-3.5489,-3.5472,-3.5439,-3.5374,-3.5374,-3.5472,-3.5392,-3.5294,-3.5359,-3.5374,-3.5195,-3.5228,-3.5326,-3.5261,-3.5294,-3.5213,-3.5148,-3.5115,-3.5082,-3.5096,-3.4931,-3.4798,-3.475,-3.4664,-3.453,-3.4448,-3.4414,-3.438,-3.438,-3.438,-3.438,-3.438,-3.438,-3.438,-3.438,-3.438,-3.438,-3.438,-3.438,-3.438,-3.438,-3.438,-3.438,-3.438,-3.438,-3.438,-3.438,-3.438,-3.438,-3.9388,-3.9388,-3.9388,-3.9388,-3.9305,-3.8727,-3.8068,-3.7409,-3.6746,-3.6262,-3.5579,-3.5489,-3.5489,-3.5489,-3.5489,-3.5489,-3.5489,-3.5489,-3.5489,-3.5489,-3.5439,-3.5374,-3.5261,-3.518,-3.5049,-3.4902,-3.4835,-3.4683,-3.4481,-3.4414,-3.4481,-3.465,-3.4769,-3.4983,-3.5195,-3.5359,-3.5472,-3.5504,-3.5489,-3.5489,-3.5489,-3.5489,-3.5489,-3.5489,-3.5489,-3.5489,-3.5489,-3.5489,-3.5489,-3.5489,-3.5489,-3.5489,-3.5489,-3.5489,-3.5489,-3.5489,-3.5489,-3.5489,-3.5489,-3.5489,-3.5489,-3.5489,-3.5489,-3.5489,-3.5489,-3.5489,-3.5472,-3.5359,-3.5279,-3.5148,-3.5148,-3.5261,-3.5261,-3.5195,-3.5294,-3.5213,-3.5016,-3.5049,-3.5096,-3.5082,-3.5115,-3.5034,-3.5016,-3.4949,-3.4949,-3.4916,-3.4765,-3.4631,-3.4597,-3.4563,-3.4448,-3.4414,-3.4414,-3.438,-3.438,-3.4448,-3.4448,-3.4601,-3.4568,-3.4568,-3.4568,-3.4668,-3.4654,-3.4448,-3.438,-3.438,-3.438,-3.438,-3.438,-3.438,-3.438,-3.438,-3.438,-3.438,-3.438,-3.9388,-3.9388,-3.9388,-3.9388,-3.932,-3.8676,-3.7988,-3.7375,-3.6731,-3.6118,-3.5549,-3.5489,-3.5489,-3.5489,-3.5489,-3.5489,-3.5489,-3.5489,-3.5504,-3.5439,-3.5374,-3.5228,-3.5148,-3.5001,-3.4868,-3.475,-3.4731,-3.4582,-3.4448,-3.4414,-3.4515,-3.4664,-3.4731,-3.4898,-3.5129,-3.5261,-3.5359,-3.5472,-3.5489,-3.5489,-3.5489,-3.5489,-3.5489,-3.5489,-3.5489,-3.5489,-3.5489,-3.5489,-3.5489,-3.5489,-3.5489,-3.5489,-3.5489,-3.5489,-3.5489,-3.5489,-3.5489,-3.5489,-3.5489,-3.5489,-3.5489,-3.5489,-3.5489,-3.5489,-3.5489,-3.5489,-3.5439,-3.5261,-3.5115,-3.4968,-3.4935,-3.5049,-3.4949,-3.4883,-3.4916,-3.4949,-3.4783,-3.4798,-3.4798,-3.4817,-3.485,-3.4902,-3.485,-3.4783,-3.4783,-3.475,-3.4616,-3.4515,-3.4481,-3.4448,-3.4414,-3.4414,-3.438,-3.438,-3.438,-3.4481,-3.4534,-3.4887,-3.4938,-3.4938,-3.4971,-3.5037,-3.4971,-3.4568,-3.4414,-3.438,-3.438,-3.438,-3.438,-3.438,-3.438,-3.438,-3.438,-3.438,-3.438,-3.9388,-3.9388,-3.9388,-3.9388,-3.9209,-3.8302,-3.7704,-3.7285,-3.6417,-3.5804,-3.5579,-3.5489,-3.5489,-3.5489,-3.5489,-3.5489,-3.5504,-3.5489,-3.5439,-3.5359,-3.5261,-3.5082,-3.4949,-3.485,-3.4683,-3.4597,-3.453,-3.4515,-3.4414,-3.438,-3.4515,-3.4664,-3.4698,-3.4865,-3.5115,-3.5213,-3.5326,-3.5457,-3.5489,-3.5489,-3.5489,-3.5489,-3.5489,-3.5489,-3.5489,-3.5489,-3.5489,-3.5489,-3.5489,-3.5489,-3.5489,-3.5489,-3.5489,-3.5489,-3.5489,-3.5489,-3.5489,-3.5489,-3.5489,-3.5489,-3.5489,-3.5489,-3.5489,-3.5489,-3.5489,-3.5457,-3.5359,-3.5115,-3.5016,-3.4868,-3.4817,-3.4868,-3.4802,-3.475,-3.4817,-3.475,-3.465,-3.4664,-3.4631,-3.4597,-3.4683,-3.4716,-3.4616,-3.4597,-3.4631,-3.4563,-3.4481,-3.4414,-3.4414,-3.438,-3.438,-3.438,-3.4414,-3.4481,-3.4534,-3.4668,-3.4787,-3.5103,-3.5332,-3.5332,-3.5169,-3.5136,-3.4854,-3.4481,-3.4414,-3.438,-3.438,-3.438,-3.438,-3.438,-3.438,-3.438,-3.438,-3.438,-3.438,-3.9388,-3.9388,-3.9388,-3.9388,-3.9179,-3.7988,-3.7419,-3.715,-3.6058,-3.5534,-3.5489,-3.5489,-3.5489,-3.5489,-3.5457,-3.5424,-3.5472,-3.5472,-3.5326,-3.5213,-3.5148,-3.4983,-3.4765,-3.4631,-3.4563,-3.4448,-3.4414,-3.438,-3.4414,-3.438,-3.4515,-3.4631,-3.4664,-3.4831,-3.5115,-3.5133,-3.5294,-3.5439,-3.5489,-3.5489,-3.5489,-3.5489,-3.5489,-3.5489,-3.5489,-3.5489,-3.5489,-3.5489,-3.5489,-3.5489,-3.5489,-3.5489,-3.5489,-3.5489,-3.5489,-3.5489,-3.5489,-3.5489,-3.5489,-3.5489,-3.5489,-3.5489,-3.5489,-3.5457,-3.5407,-3.5294,-3.5148,-3.4935,-3.4802,-3.475,-3.4664,-3.475,-3.4716,-3.4683,-3.4683,-3.4716,-3.4549,-3.4515,-3.4515,-3.453,-3.4597,-3.4563,-3.4481,-3.4481,-3.4515,-3.4515,-3.4414,-3.4414,-3.438,-3.438,-3.438,-3.438,-3.4414,-3.4515,-3.4668,-3.4953,-3.5136,-3.5415,-3.5655,-3.572,-3.5397,-3.5085,-3.4802,-3.4568,-3.4414,-3.438,-3.438,-3.438,-3.438,-3.438,-3.438,-3.438,-3.438,-3.438,-3.438,-3.9388,-3.9388,-3.9373,-3.9388,-3.9164,-3.7943,-3.7389,-3.7195,-3.6028,-3.5504,-3.5489,-3.5489,-3.5489,-3.5472,-3.5326,-3.5359,-3.5392,-3.5326,-3.5228,-3.5115,-3.5001,-3.4883,-3.4698,-3.4481,-3.4448,-3.438,-3.438,-3.438,-3.438,-3.438,-3.4515,-3.4631,-3.4582,-3.4683,-3.5148,-3.5034,-3.5133,-3.5424,-3.5489,-3.5489,-3.5489,-3.5489,-3.5489,-3.5489,-3.5489,-3.5489,-3.5489,-3.5489,-3.5489,-3.5489,-3.5489,-3.5489,-3.5489,-3.5489,-3.5489,-3.5489,-3.5489,-3.5489,-3.5489,-3.5489,-3.5489,-3.5489,-3.5457,-3.5392,-3.5228,-3.4997,-3.4831,-3.4765,-3.4582,-3.4515,-3.4481,-3.4481,-3.4448,-3.4481,-3.4515,-3.4515,-3.4414,-3.4448,-3.4448,-3.4448,-3.4481,-3.4448,-3.4414,-3.4414,-3.4414,-3.4414,-3.438,-3.438,-3.438,-3.438,-3.4534,-3.4601,-3.4668,-3.4769,-3.5118,-3.5332,-3.5559,-3.58,-3.5943,-3.6085,-3.5655,-3.5267,-3.5019,-3.4787,-3.4601,-3.4414,-3.438,-3.438,-3.438,-3.438,-3.438,-3.438,-3.438,-3.4414,-3.4515,-3.9388,-3.9358,-3.9005,-3.8841,-3.8661,-3.7434,-3.6896,-3.6701,-3.5923,-3.5489,-3.5489,-3.5489,-3.5489,-3.5439,-3.5294,-3.5261,-3.5294,-3.5213,-3.5082,-3.4983,-3.4868,-3.4735,-3.4549,-3.4448,-3.438,-3.438,-3.438,-3.438,-3.438,-3.4414,-3.4515,-3.4631,-3.4515,-3.4683,-3.5115,-3.5016,-3.5148,-3.5392,-3.5489,-3.5489,-3.5489,-3.5489,-3.5489,-3.5489,-3.5489,-3.5489,-3.5489,-3.5489,-3.5489,-3.5489,-3.5489,-3.5489,-3.5489,-3.5489,-3.5489,-3.5489,-3.5489,-3.5489,-3.5489,-3.5489,-3.5489,-3.5457,-3.5392,-3.5261,-3.5049,-3.4817,-3.4698,-3.4698,-3.4515,-3.4414,-3.438,-3.438,-3.438,-3.438,-3.438,-3.438,-3.438,-3.438,-3.4414,-3.4414,-3.438,-3.438,-3.438,-3.4414,-3.4414,-3.4414,-3.438,-3.438,-3.438,-3.438,-3.4635,-3.492,-3.4986,-3.5085,-3.5559,-3.5896,-3.6133,-3.6321,-3.6352,-3.6336,-3.5896,-3.5544,-3.5332,-3.5037,-3.482,-3.4668,-3.4481,-3.4414,-3.4414,-3.4414,-3.438,-3.4501,-3.4654,-3.4787,-3.4854,-3.9155,-3.9095,-3.8601,-3.8287,-3.8033,-3.6941,-3.6507,-3.6417,-3.5804,-3.5489,-3.5472,-3.5439,-3.5439,-3.5374,-3.5195,-3.5096,-3.51,-3.5096,-3.4916,-3.4817,-3.475,-3.465,-3.4481,-3.438,-3.438,-3.438,-3.438,-3.438,-3.438,-3.4414,-3.4481,-3.4631,-3.4448,-3.4683,-3.4949,-3.5016,-3.5082,-3.5457,-3.5489,-3.5489,-3.5489,-3.5489,-3.5489,-3.5489,-3.5489,-3.5489,-3.5489,-3.5489,-3.5489,-3.5489,-3.5489,-3.5489,-3.5489,-3.5489,-3.5489,-3.5489,-3.5489,-3.5489,-3.5489,-3.5489,-3.5489,-3.5424,-3.5246,-3.5049,-3.4883,-3.4716,-3.4631,-3.4597,-3.4481,-3.4414,-3.438,-3.438,-3.438,-3.438,-3.438,-3.438,-3.438,-3.438,-3.438,-3.438,-3.438,-3.438,-3.438,-3.438,-3.438,-3.438,-3.438,-3.4414,-3.4448,-3.4501,-3.4787,-3.5136,-3.5365,-3.5559,-3.6006,-3.6414,-3.6662,-3.6785,-3.6816,-3.6538,-3.6086,-3.5896,-3.5752,-3.5462,-3.507,-3.4754,-3.4515,-3.4481,-3.4448,-3.4635,-3.4787,-3.4872,-3.4971,-3.507,-3.5019,-3.8452,-3.8452,-3.8392,-3.7988,-3.7419,-3.681,-3.6462,-3.6357,-3.5759,-3.5504,-3.5472,-3.5311,-3.5246,-3.5148,-3.4964,-3.485,-3.4902,-3.4783,-3.4716,-3.4698,-3.4698,-3.4582,-3.4448,-3.438,-3.438,-3.438,-3.438,-3.438,-3.438,-3.438,-3.4414,-3.4399,-3.4414,-3.4601,-3.482,-3.4968,-3.5148,-3.5424,-3.5489,-3.5489,-3.5489,-3.5489,-3.5489,-3.5489,-3.5489,-3.5489,-3.5489,-3.5489,-3.5489,-3.5489,-3.5489,-3.5489,-3.5489,-3.5489,-3.5489,-3.5489,-3.5489,-3.5489,-3.5489,-3.5489,-3.5504,-3.5392,-3.5148,-3.4883,-3.4716,-3.4515,-3.4448,-3.4448,-3.4414,-3.4414,-3.438,-3.438,-3.438,-3.438,-3.438,-3.438,-3.438,-3.438,-3.438,-3.438,-3.438,-3.438,-3.438,-3.438,-3.438,-3.438,-3.4414,-3.4414,-3.4654,-3.4787,-3.507,-3.5382,-3.5705,-3.6023,-3.6523,-3.6816,-3.6907,-3.7029,-3.7089,-3.6662,-3.6134,-3.6054,-3.6116,-3.5688,-3.5267,-3.492,-3.4668,-3.4802,-3.4953,-3.507,-3.5154,-3.5103,-3.5004,-3.5004,-3.4854,-3.7928,-3.7225,-3.7225,-3.7075,-3.6791,-3.6148,-3.5893,-3.5863,-3.5609,-3.5489,-3.5472,-3.5294,-3.518,-3.5082,-3.4865,-3.4731,-3.475,-3.4716,-3.4631,-3.4597,-3.4597,-3.4549,-3.4448,-3.438,-3.438,-3.438,-3.438,-3.438,-3.438,-3.438,-3.438,-3.438,-3.4414,-3.4601,-3.4802,-3.5001,-3.5261,-3.5392,-3.5489,-3.5489,-3.5489,-3.5489,-3.5489,-3.5489,-3.5489,-3.5489,-3.5489,-3.5489,-3.5489,-3.5489,-3.5489,-3.5489,-3.5489,-3.5489,-3.5489,-3.5489,-3.5489,-3.5489,-3.5504,-3.5472,-3.5407,-3.5115,-3.4916,-3.4716,-3.4563,-3.4448,-3.4414,-3.4414,-3.438,-3.438,-3.438,-3.438,-3.438,-3.438,-3.438,-3.438,-3.438,-3.438,-3.438,-3.438,-3.438,-3.438,-3.438,-3.438,-3.438,-3.4414,-3.4414,-3.4515,-3.4787,-3.5169,-3.5494,-3.5847,-3.618,-3.6492,-3.6968,-3.7089,-3.715,-3.724,-3.7345,-3.6952,-3.6507,-3.6445,-3.6399,-3.5943,-3.5608,-3.5447,-3.5365,-3.5365,-3.5365,-3.5365,-3.5252,-3.5154,-3.507,-3.5004,-3.4887,-3.73,-3.6492,-3.6282,-3.6193,-3.6118,-3.5699,-3.5489,-3.5489,-3.5504,-3.5489,-3.5472,-3.5279,-3.5148,-3.5049,-3.4831,-3.4631,-3.4631,-3.4597,-3.4515,-3.4481,-3.4515,-3.4515,-3.4448,-3.438,-3.438,-3.438,-3.438,-3.438,-3.438,-3.438,-3.4448,-3.4481,-3.4448,-3.4568,-3.4817,-3.5082,-3.5294,-3.5439,-3.5489,-3.5489,-3.5489,-3.5489,-3.5489,-3.5489,-3.5489,-3.5489,-3.5489,-3.5489,-3.5489,-3.5489,-3.5489,-3.5489,-3.5489,-3.5489,-3.5489,-3.5489,-3.5489,-3.5489,-3.5504,-3.5407,-3.5228,-3.4916,-3.4798,-3.4631,-3.4448,-3.438,-3.438,-3.438,-3.438,-3.438,-3.438,-3.438,-3.438,-3.438,-3.438,-3.438,-3.438,-3.438,-3.438,-3.438,-3.438,-3.438,-3.438,-3.4414,-3.4414,-3.4501,-3.4721,-3.4854,-3.507,-3.5494,-3.6038,-3.6399,-3.6739,-3.7089,-3.7405,-3.7345,-3.7315,-3.7345,-3.7405,-3.7315,-3.7029,-3.6953,-3.6723,-3.6367,-3.6133,-3.6054,-3.5881,-3.5689,-3.5576,-3.5494,-3.5447,-3.5415,-3.5382,-3.5332,-3.5169,-3.6522,-3.6402,-3.5818,-3.5549,-3.5579,-3.5519,-3.5489,-3.5489,-3.5489,-3.5489,-3.5457,-3.5279,-3.5082,-3.4935,-3.475,-3.4597,-3.4481,-3.4448,-3.4414,-3.4414,-3.4414,-3.4414,-3.4414,-3.438,-3.438,-3.438,-3.438,-3.438,-3.438,-3.438,-3.4481,-3.4563,-3.4481,-3.4501,-3.4731,-3.5063,-3.5294,-3.5472,-3.5489,-3.5489,-3.5489,-3.5489,-3.5489,-3.5489,-3.5489,-3.5489,-3.5489,-3.5489,-3.5489,-3.5489,-3.5489,-3.5489,-3.5489,-3.5489,-3.5489,-3.5489,-3.5489,-3.5489,-3.5457,-3.5294,-3.503,-3.4765,-3.4698,-3.4563,-3.4448,-3.438,-3.438,-3.438,-3.438,-3.438,-3.438,-3.438,-3.438,-3.438,-3.438,-3.438,-3.438,-3.438,-3.438,-3.438,-3.438,-3.438,-3.438,-3.4414,-3.4433,-3.4601,-3.4938,-3.5169,-3.535,-3.5816,-3.6399,-3.6769,-3.7119,-3.7255,-3.7464,-3.748,-3.748,-3.751,-3.748,-3.7391,-3.7315,-3.7165,-3.6938,-3.6708,-3.6554,-3.6414,-3.618,-3.5913,-3.5849,-3.5769,-3.58,-3.5753,-3.5705,-3.5479,-3.5136,-3.6237,-3.5818,-3.5594,-3.5489,-3.5489,-3.5489,-3.5489,-3.5489,-3.5489,-3.5489,-3.5424,-3.5148,-3.4968,-3.4835,-3.465,-3.4481,-3.4414,-3.438,-3.438,-3.438,-3.438,-3.438,-3.438,-3.438,-3.438,-3.438,-3.438,-3.438,-3.438,-3.438,-3.4414,-3.4448,-3.4481,-3.4582,-3.4817,-3.5082,-3.5294,-3.5457,-3.5489,-3.5489,-3.5489,-3.5489,-3.5489,-3.5489,-3.5489,-3.5489,-3.5489,-3.5489,-3.5489,-3.5489,-3.5489,-3.5489,-3.5489,-3.5489,-3.5489,-3.5489,-3.5489,-3.5359,-3.5162,-3.4949,-3.4817,-3.4698,-3.4597,-3.4481,-3.4414,-3.438,-3.438,-3.438,-3.438,-3.438,-3.438,-3.438,-3.438,-3.438,-3.438,-3.438,-3.438,-3.438,-3.438,-3.438,-3.438,-3.438,-3.438,-3.4448,-3.4501,-3.4721,-3.507,-3.5447,-3.5705,-3.6196,-3.6723,-3.7089,-3.7375,-3.745,-3.751,-3.751,-3.751,-3.751,-3.751,-3.748,-3.7391,-3.7315,-3.7225,-3.7029,-3.6877,-3.6708,-3.6569,-3.6399,-3.618,-3.6086,-3.6054,-3.58,-3.5479,-3.5136,-3.4687,-3.5908,-3.5519,-3.5489,-3.5489,-3.5489,-3.5489,-3.5489,-3.5489,-3.5489,-3.5489,-3.5424,-3.5228,-3.5001,-3.4868,-3.4716,-3.4448,-3.4414,-3.438,-3.438,-3.438,-3.438,-3.438,-3.438,-3.438,-3.438,-3.438,-3.438,-3.438,-3.438,-3.438,-3.4414,-3.4448,-3.4501,-3.4716,-3.4916,-3.5049,-3.5228,-3.5392,-3.5489,-3.5489,-3.5489,-3.5489,-3.5489,-3.5489,-3.5489,-3.5489,-3.5489,-3.5489,-3.5489,-3.5489,-3.5489,-3.5489,-3.5489,-3.5489,-3.5489,-3.5489,-3.5457,-3.5294,-3.5016,-3.4868,-3.475,-3.4582,-3.4448,-3.4414,-3.438,-3.438,-3.438,-3.438,-3.438,-3.438,-3.438,-3.438,-3.438,-3.438,-3.438,-3.438,-3.438,-3.438,-3.438,-3.438,-3.438,-3.438,-3.4414,-3.4481,-3.4549,-3.4854,-3.5201,-3.5608,-3.6038,-3.6523,-3.6953,-3.7255,-3.748,-3.748,-3.751,-3.751,-3.751,-3.751,-3.751,-3.751,-3.748,-3.7391,-3.7391,-3.7391,-3.7225,-3.7089,-3.7059,-3.6938,-3.6662,-3.6445,-3.6321,-3.5896,-3.5317,-3.507,-3.4872,-3.5504,-3.5489,-3.5489,-3.5489,-3.5489,-3.5489,-3.5489,-3.5489,-3.5489,-3.5489,-3.5489,-3.5472,-3.5213,-3.492,-3.4868,-3.4668,-3.4433,-3.4414,-3.438,-3.438,-3.438,-3.438,-3.438,-3.438,-3.438,-3.438,-3.438,-3.438,-3.4414,-3.4448,-3.4448,-3.4448,-3.4635,-3.4802,-3.4902,-3.4968,-3.5148,-3.5392,-3.5489,-3.5489,-3.5489,-3.5489,-3.5489,-3.5489,-3.5489,-3.5489,-3.5489,-3.5489,-3.5489,-3.5489,-3.5489,-3.5489,-3.5489,-3.5489,-3.5489,-3.5489,-3.5489,-3.518,-3.4968,-3.4868,-3.4668,-3.4467,-3.4414,-3.438,-3.438,-3.438,-3.438,-3.438,-3.438,-3.438,-3.438,-3.438,-3.438,-3.438,-3.438,-3.438,-3.438,-3.438,-3.438,-3.438,-3.438,-3.438,-3.438,-3.4481,-3.4601,-3.5004,-3.5382,-3.5847,-3.629,-3.6739,-3.7135,-3.7345,-3.748,-3.7435,-3.7435,-3.7421,-3.7315,-3.7255,-3.748,-3.751,-3.748,-3.745,-3.745,-3.745,-3.748,-3.7421,-3.7285,-3.7225,-3.715,-3.6938,-3.6616,-3.6352,-3.5879,-3.5928,-3.58,-3.5489,-3.5489,-3.5489,-3.5489,-3.5489,-3.5489,-3.5489,-3.5489,-3.5489,-3.5489,-3.5472,-3.5374,-3.518,-3.4902,-3.4783,-3.4616,-3.4481,-3.438,-3.438,-3.438,-3.438,-3.438,-3.438,-3.438,-3.438,-3.438,-3.438,-3.4414,-3.4433,-3.4515,-3.4515,-3.4448,-3.4716,-3.4802,-3.4902,-3.4902,-3.518,-3.5392,-3.5489,-3.5489,-3.5489,-3.5489,-3.5489,-3.5489,-3.5489,-3.5489,-3.5489,-3.5489,-3.5489,-3.5489,-3.5489,-3.5489,-3.5489,-3.5489,-3.5489,-3.5457,-3.5246,-3.4983,-3.4868,-3.4668,-3.4501,-3.4433,-3.4414,-3.438,-3.438,-3.438,-3.438,-3.438,-3.438,-3.438,-3.438,-3.438,-3.438,-3.438,-3.438,-3.438,-3.438,-3.438,-3.438,-3.438,-3.438,-3.438,-3.438,-3.4414,-3.4568,-3.507,-3.5512,-3.5975,-3.6492,-3.6938,-3.7225,-3.745,-3.748,-3.745,-3.7315,-3.7255,-3.7135,-3.7059,-3.7315,-3.751,-3.748,-3.748,-3.751,-3.751,-3.751,-3.748,-3.7421,-3.7345,-3.7315,-3.715,-3.6861,-3.6708,-3.6554,-3.6554,-3.6414,-3.5489,-3.5489,-3.5489,-3.5489,-3.5489,-3.5489,-3.5489,-3.5489,-3.5489,-3.5489,-3.5504,-3.5407,-3.5228,-3.5049,-3.4949,-3.4798,-3.4563,-3.4515,-3.4481,-3.438,-3.438,-3.438,-3.438,-3.438,-3.438,-3.438,-3.438,-3.438,-3.4467,-3.4616,-3.4683,-3.4563,-3.4765,-3.4916,-3.5016,-3.5082,-3.5213,-3.5392,-3.5489,-3.5489,-3.5489,-3.5489,-3.5489,-3.5489,-3.5489,-3.5489,-3.5489,-3.5489,-3.5489,-3.5489,-3.5489,-3.5489,-3.5489,-3.5489,-3.5424,-3.5359,-3.5213,-3.4983,-3.4817,-3.465,-3.4515,-3.4414,-3.438,-3.438,-3.438,-3.438,-3.438,-3.438,-3.438,-3.438,-3.438,-3.438,-3.438,-3.438,-3.438,-3.438,-3.438,-3.438,-3.438,-3.438,-3.438,-3.438,-3.438,-3.438,-3.4534,-3.4953,-3.5299,-3.5671,-3.6336,-3.7029,-3.7285,-3.748,-3.748,-3.745,-3.7285,-3.7165,-3.7165,-3.7195,-3.7345,-3.748,-3.751,-3.751,-3.751,-3.751,-3.751,-3.748,-3.745,-3.745,-3.7405,-3.7255,-3.718,-3.7089,-3.6998,-3.6998,-3.6769,-3.5489,-3.5489,-3.5489,-3.5489,-3.5489,-3.5489,-3.5489,-3.5489,-3.5489,-3.5489,-3.5504,-3.5489,-3.5374,-3.5148,-3.5082,-3.4883,-3.4683,-3.4597,-3.4481,-3.438,-3.438,-3.438,-3.438,-3.438,-3.438,-3.438,-3.4414,-3.4414,-3.4515,-3.4683,-3.4817,-3.4731,-3.4997,-3.5148,-3.5148,-3.5148,-3.5246,-3.5424,-3.5489,-3.5489,-3.5489,-3.5489,-3.5489,-3.5489,-3.5489,-3.5489,-3.5489,-3.5489,-3.5489,-3.5489,-3.5489,-3.5489,-3.5489,-3.5424,-3.5359,-3.5228,-3.5129,-3.4964,-3.4765,-3.4631,-3.4515,-3.4448,-3.438,-3.438,-3.438,-3.438,-3.438,-3.438,-3.438,-3.438,-3.438,-3.438,-3.438,-3.438,-3.438,-3.438,-3.438,-3.438,-3.438,-3.438,-3.438,-3.438,-3.438,-3.4414,-3.4448,-3.482,-3.5184,-3.5477,-3.5975,-3.68,-3.7195,-3.7375,-3.745,-3.7421,-3.7255,-3.7195,-3.7315,-3.7375,-3.745,-3.748,-3.751,-3.751,-3.751,-3.751,-3.751,-3.751,-3.751,-3.751,-3.748,-3.745,-3.7405,-3.748,-3.745,-3.7315,-3.7195,-3.5489,-3.5489,-3.5489,-3.5489,-3.5489,-3.5489,-3.5489,-3.5489,-3.5489,-3.5489,-3.5489,-3.5472,-3.5407,-3.5213,-3.5067,-3.4868,-3.4716,-3.4631,-3.4448,-3.4414,-3.438,-3.438,-3.438,-3.438,-3.438,-3.438,-3.4414,-3.4481,-3.4616,-3.4769,-3.4902,-3.4883,-3.5115,-3.5213,-3.5213,-3.5213,-3.5326,-3.5504,-3.5489,-3.5489,-3.5489,-3.5489,-3.5489,-3.5489,-3.5489,-3.5489,-3.5489,-3.5489,-3.5489,-3.5489,-3.5489,-3.5489,-3.5489,-3.5359,-3.5261,-3.5195,-3.4983,-3.4817,-3.4698,-3.4597,-3.4481,-3.4448,-3.438,-3.438,-3.438,-3.438,-3.438,-3.438,-3.438,-3.438,-3.438,-3.438,-3.438,-3.438,-3.438,-3.438,-3.438,-3.438,-3.438,-3.438,-3.438,-3.438,-3.438,-3.4414,-3.4467,-3.4702,-3.5019,-3.5332,-3.564,-3.6274,-3.6861,-3.7119,-3.7405,-3.7375,-3.7225,-3.7225,-3.7361,-3.7345,-3.7345,-3.7421,-3.751,-3.751,-3.751,-3.751,-3.751,-3.751,-3.751,-3.751,-3.751,-3.751,-3.751,-3.751,-3.751,-3.745,-3.7421,-3.5489,-3.5489,-3.5489,-3.5489,-3.5489,-3.5489,-3.5489,-3.5489,-3.5489,-3.5489,-3.5489,-3.5489,-3.5424,-3.5279,-3.51,-3.4935,-3.4783,-3.4631,-3.4481,-3.4414,-3.4414,-3.438,-3.438,-3.4414,-3.438,-3.4414,-3.4515,-3.4616,-3.4716,-3.4949,-3.5049,-3.5082,-3.5228,-3.5326,-3.5326,-3.5326,-3.5374,-3.5504,-3.5504,-3.5489,-3.5489,-3.5504,-3.5489,-3.5489,-3.5489,-3.5489,-3.5489,-3.5489,-3.5489,-3.5489,-3.5489,-3.5489,-3.5472,-3.5407,-3.5261,-3.5082,-3.4916,-3.4716,-3.4582,-3.4481,-3.438,-3.438,-3.438,-3.438,-3.438,-3.438,-3.438,-3.438,-3.438,-3.438,-3.438,-3.438,-3.438,-3.438,-3.438,-3.438,-3.438,-3.438,-3.438,-3.438,-3.438,-3.438,-3.438,-3.438,-3.4448,-3.4534,-3.4854,-3.5169,-3.5512,-3.5785,-3.6337,-3.6815,-3.7119,-3.715,-3.6938,-3.7105,-3.7421,-3.7361,-3.7285,-3.7391,-3.751,-3.751,-3.751,-3.751,-3.751,-3.751,-3.751,-3.751,-3.751,-3.751,-3.751,-3.751,-3.751,-3.751,-3.748,-3.5489,-3.5489,-3.5489,-3.5489,-3.5489,-3.5489,-3.5489,-3.5489,-3.5489,-3.5489,-3.5489,-3.5489,-3.5489,-3.5424,-3.5279,-3.5115,-3.4949,-3.4783,-3.4616,-3.4515,-3.4481,-3.4515,-3.4481,-3.4448,-3.4448,-3.4515,-3.4582,-3.4716,-3.4831,-3.4983,-3.5115,-3.5261,-3.5359,-3.5489,-3.5489,-3.5504,-3.5472,-3.5472,-3.5439,-3.5457,-3.5472,-3.5504,-3.5504,-3.5489,-3.5489,-3.5489,-3.5489,-3.5489,-3.5489,-3.5457,-3.5457,-3.5424,-3.5359,-3.5309,-3.5162,-3.4983,-3.4802,-3.465,-3.4481,-3.4414,-3.438,-3.438,-3.438,-3.438,-3.438,-3.438,-3.438,-3.438,-3.438,-3.438,-3.438,-3.438,-3.438,-3.438,-3.438,-3.438,-3.438,-3.438,-3.438,-3.438,-3.438,-3.438,-3.438,-3.438,-3.4467,-3.4568,-3.4721,-3.5037,-3.5332,-3.5544,-3.5928,-3.6383,-3.6769,-3.6739,-3.68,-3.7059,-3.745,-3.745,-3.7421,-3.748,-3.751,-3.751,-3.751,-3.751,-3.751,-3.751,-3.751,-3.751,-3.751,-3.751,-3.751,-3.751,-3.751,-3.751,-3.751,-3.5489,-3.5489,-3.5489,-3.5489,-3.5489,-3.5489,-3.5489,-3.5489,-3.5489,-3.5489,-3.5504,-3.5489,-3.5504,-3.5472,-3.5294,-3.5148,-3.5049,-3.4916,-3.4798,-3.4664,-3.4716,-3.4716,-3.465,-3.4616,-3.4631,-3.4664,-3.4731,-3.485,-3.4964,-3.5016,-3.5148,-3.5407,-3.5439,-3.5504,-3.5504,-3.5472,-3.5407,-3.5374,-3.5439,-3.5472,-3.5359,-3.5407,-3.5504,-3.5489,-3.5489,-3.5489,-3.5489,-3.5489,-3.5489,-3.5457,-3.5359,-3.5294,-3.5228,-3.5129,-3.4983,-3.4883,-3.475,-3.4568,-3.4433,-3.4414,-3.438,-3.438,-3.438,-3.438,-3.438,-3.438,-3.438,-3.438,-3.438,-3.438,-3.438,-3.438,-3.438,-3.438,-3.438,-3.438,-3.438,-3.438,-3.438,-3.438,-3.438,-3.438,-3.438,-3.4448,-3.4568,-3.4635,-3.4635,-3.4953,-3.5317,-3.5447,-3.5608,-3.6023,-3.6476,-3.6938,-3.7255,-3.7255,-3.748,-3.751,-3.751,-3.751,-3.751,-3.751,-3.751,-3.751,-3.751,-3.751,-3.751,-3.751,-3.751,-3.751,-3.751,-3.751,-3.751,-3.751,-3.751]},{"header":{"parameterUnit":"m.s-1","parameterCategory":1,"la1":31.0,"la2":29.5877,"lo1":-88.7671,"lo2":-86.6584,"dy":0.0162,"dx":0.0185,"nx":115,"ny":88,"refTime":"2024-09-24T06:00:00:Z","depth":0,"parameterNumber":3,"parameterNumberName":"V-component_of_WINDS"},"data":[0.0,0.0,0.0,0.0,0.0,0.0,0.0,0.0,0.0,0.0,0.0,0.0,0.0,0.0,0.0,0.0,0.0,0.0,0.0,0.0,0.0,0.0,0.0,0.0,0.0,0.0,0.0,0.0,0.0,0.0,0.0,0.0,0.0,0.0,0.0,0.0,0.0,0.0,0.0,0.0,0.0,0.0,0.0,0.0,0.0,0.0,0.0,0.0,0.0,0.0,0.0,0.0,0.0,0.0,0.0,0.0,0.0,0.0,0.0,0.0,0.0,0.0,0.0,0.0,0.0,0.0,0.0,0.0,0.0,0.0,0.0,0.0,0.0,0.0,0.0,0.0,0.0,0.0,0.0,0.0,0.0,0.0,0.0,0.0,0.0,0.0,0.0,0.0,0.0,0.0,0.0,0.0,0.0,0.0,0.0,0.0,0.0,0.0,0.0,0.0,0.0,0.0,0.0,0.0,0.0,0.0,0.0,0.0,0.0,0.0,0.0,0.0,0.0,0.0,0.0,0.0,0.0,0.0,0.0,0.0,0.0,0.0,0.0,0.0,0.0,0.0,0.0,0.0,0.0,0.0,0.0,0.0,0.0,0.0,0.0,0.0,0.0,0.0,0.0,0.0,0.0,0.0,0.0,0.0,0.0,0.0,0.0,0.0,0.0,0.0,0.0,0.0,0.0,0.0,0.0,0.0,0.0,0.0,0.0,0.0,0.0,0.0,0.0,0.0,0.0,0.0,0.0,0.0,0.0,0.0,0.0,0.0,0.0,0.0,0.0,0.0,0.0,0.0,0.0,0.0,0.0,0.0,0.0,0.0,0.0,0.0,0.0,0.0,0.0,0.0,0.0,0.0,0.0,0.0,0.0,0.0,0.0,0.0,0.0,0.0,0.0,0.0,0.0,0.0,0.0,0.0,0.0,0.0,0.0,0.0,0.0,0.0,0.0,0.0,0.0,0.0,0.0,0.0,0.0,0.0,0.0,0.0,0.0,0.0,0.0,0.0,0.0,0.0,0.0,0.0,0.0,0.0,0.0,0.0,0.0,0.0,0.0,0.0,0.0,0.0,0.0,0.0,0.0,0.0,0.0,0.0,0.0,0.0,0.0,0.0,0.0,0.0,0.0,0.0,0.0,0.0,0.0,0.0,0.0,0.0,0.0,0.0,0.0,0.0,0.0,0.0,0.0,0.0,0.0,0.0,0.0,0.0,0.0,0.0,0.0,0.0,0.0,0.0,0.0,0.0,0.0,0.0,0.0,0.0,0.0,0.0,0.0,0.0,0.0,0.0,0.0,0.0,0.0,0.0,0.0,0.0,0.0,0.0,0.0,0.0,0.0,0.0,0.0,0.0,0.0,0.0,0.0,0.0,0.0,0.0,0.0,0.0,0.0,0.0,0.0,0.0,0.0,0.0,0.0,0.0,0.0,0.0,0.0,0.0,0.0,0.0,0.0,0.0,0.0,0.0,0.0,0.0,0.0,0.0,0.0,0.0,0.0,0.0,0.0,0.0,0.0,0.0,0.0,0.0,0.0,0.0,0.0,0.0,0.0,0.0,0.0,0.0,0.0,0.0,0.0,0.0,0.0,0.0,0.0,0.0,0.0,0.0,0.0,0.0,0.0,0.0,0.0,0.0,0.0,0.0,0.0,0.0,0.0,0.0,0.0,0.0,0.0,0.0,0.0,0.0,0.0,0.0,0.0,0.0,0.0,0.0,0.0,0.0,0.0,0.0,0.0,0.0,0.0,0.0,0.0,0.0,0.0,0.0,0.0,0.0,0.0,0.0,0.0,0.0,0.0,0.0,0.0,0.0,0.0,0.0,0.0,0.0,0.0,0.0,0.0,0.0,0.0,0.0,0.0,0.0,0.0,0.0,0.0,0.0,0.0,0.0,0.0,0.0,0.0,0.0,0.0,0.0,0.0,0.0,0.0,0.0,0.0,0.0,0.0,0.0,0.0,0.0,0.0,0.0,0.0,0.0,0.0,0.0,0.0,0.0,0.0,0.0,0.0,0.0,0.0,0.0,0.0,0.0,0.0,0.0,0.0,0.0,0.0,0.0,0.0,0.0,0.0,0.0,0.0,0.0,0.0,0.0,0.0,0.0,0.0,0.0,0.0,0.0,0.0,0.0,0.0,0.0,0.0,0.0,0.0,0.0,0.0,0.0,0.0,0.0,0.0,0.0,0.0,0.0,0.0,0.0,0.0,0.0,0.0,0.0,0.0,0.0,0.0,0.0,0.0,0.0,0.0,0.0,0.0,0.0,0.0,0.0,0.0,0.0,0.0,0.0,0.0,0.0,0.0,0.0,0.0,0.0,0.0,0.0,0.0,0.0,0.0,0.0,0.0,0.0,0.0,0.0,0.0,0.0,0.0,0.0,0.0,0.0,0.0,0.0,0.0,0.0,0.0,0.0,0.0,0.0,0.0,0.0,0.0,0.0,0.0,0.0,0.0,0.0,0.0,0.0,0.0,0.0,0.0,0.0,0.0,0.0,0.0,0.0,0.0,0.0,0.0,0.0,0.0,0.0,0.0,0.0,0.0,0.0,0.0,0.0,0.0,0.0,0.0,0.0,0.0,0.0,0.0,0.0,0.0,0.0,0.0,0.0,0.0,0.0,0.0,0.0,0.0,0.0,0.0,0.0,0.0,0.0,0.0,0.0,0.0,0.0,0.0,0.0,0.0,0.0,0.0,0.0,0.0,0.0,0.0,0.0,0.0,0.0,0.0,0.0,0.0,0.0,0.0,0.0,0.0,0.0,0.0,0.0,0.0,0.0,0.0,0.0,0.0,0.0,0.0,0.0,0.0,0.0,0.0,0.0,0.0,0.0,0.0,0.0,0.0,0.0,0.0,0.0,0.0,0.0,0.0,0.0,0.0,0.0,0.0,0.0,0.0,0.0,0.0,0.0,0.0,0.0,0.0,0.0,0.0,0.0,0.0,0.0,0.0,0.0,0.0,0.0,0.0,0.0,0.0,0.0,0.0,0.0,0.0,0.0,0.0,0.0,0.0,0.0,0.0,0.0,0.0,0.0,0.0,0.0,0.0,0.0,0.0,0.0,0.0,0.0,0.0,0.0,0.0,0.0,0.0,0.0,0.0,0.0,0.0,0.0,0.0,0.0,0.0,0.0,0.0,0.0,0.0,0.0,0.0,0.0,0.0,0.0,0.0,0.0,0.0,0.0,0.0,0.0,0.0,0.0,0.0,0.0,0.0,0.0,0.0,0.0,0.0,0.0,0.0,0.0,0.0,0.0,0.0,0.0,0.0,0.0,0.0,0.0,0.0,0.0,0.0,0.0,0.0,0.0,0.0,0.0,0.0,0.0,0.0,0.0,0.0,0.0,0.0,0.0,0.0,0.0,0.0,0.0,0.0,0.0,0.0,0.0,0.0,0.0,0.0,0.0,0.0,0.0,0.0,0.0,0.0,0.0,0.0,0.0,0.0,0.0,0.0,0.0,0.0,0.0,0.0,0.0,0.0,0.0,0.0,0.0,0.0,0.0,0.0,0.0,0.0,0.0,0.0,0.0,0.0,0.0,0.0,0.0,0.0,0.0,0.0,0.0,0.0,0.0,0.0,0.0,0.0,0.0,0.0,0.0,0.0,0.0,0.0,0.0,0.0,0.0,0.0,0.0,0.0,0.0,0.0,0.0,0.0,0.0,0.0,0.0,0.0,0.0,0.0,0.0,0.0,0.0,0.0,0.0,0.0,0.0,0.0,0.0,0.0,0.0,0.0,0.0,0.0,0.0,0.0,0.0,0.0,0.0,0.0,0.0,0.0,0.0,0.0,0.0,0.0,0.0,0.0,0.0,0.0,0.0,0.0,0.0,0.0,0.0,0.0,0.0,0.0,0.0,0.0,0.0,0.0,0.0,0.0,0.0,0.0,0.0,0.0,0.0,0.0,0.0,0.0,0.0,0.0,0.0,0.0,0.0,0.0,0.0,0.0,0.0,0.0,0.0,0.0,0.0,0.0,0.0,0.0,0.0,0.0,0.0,0.0,0.0,0.0,0.0,0.0,0.0,0.0,0.0,0.0,0.0,0.0,0.0,0.0,0.0,0.0,0.0,0.0,0.0,0.0,0.0,0.0,0.0,0.0,0.0,0.0,0.0,0.0,0.0,0.0,0.0,0.0,0.0,0.0,0.0,0.0,0.0,0.0,0.0,0.0,0.0,0.0,0.0,0.0,0.0,0.0,0.0,0.0,0.0,0.0,0.0,0.0,0.0,0.0,0.0,0.0,0.0,0.0,0.0,0.0,0.0,0.0,0.0,0.0,0.0,-0.9852,0.0,0.0,0.0,0.0,0.0,0.0,0.0,0.0,0.0,0.0,0.0,0.0,0.0,0.0,0.0,0.0,0.0,0.0,0.0,0.0,0.0,0.0,0.0,0.0,0.0,0.0,0.0,0.0,0.0,0.0,0.0,0.0,0.0,0.0,0.0,0.0,0.0,0.0,0.0,0.0,0.0,0.0,0.0,0.0,0.0,0.0,0.0,0.0,0.0,0.0,0.0,0.0,0.0,0.0,0.0,0.0,0.0,0.0,0.0,0.0,0.0,0.0,0.0,0.0,0.0,0.0,0.0,0.0,0.0,0.0,0.0,0.0,0.0,0.0,0.0,0.0,0.0,0.0,0.0,0.0,0.0,0.0,0.0,0.0,0.0,0.0,0.0,0.0,0.0,0.0,0.0,0.0,0.0,0.0,0.0,0.0,0.0,0.0,0.0,0.0,0.0,0.0,0.0,0.0,0.0,0.0,0.0,0.0,0.0,0.0,-1.15,-1.144,-1.0887,-1.0685,-1.0843,0.0,0.0,0.0,0.0,0.0,0.0,0.0,0.0,0.0,0.0,0.0,0.0,0.0,0.0,0.0,0.0,0.0,0.0,0.0,0.0,0.0,0.0,0.0,0.0,0.0,0.0,0.0,0.0,0.0,0.0,0.0,0.0,0.0,0.0,0.0,0.0,0.0,0.0,0.0,0.0,0.0,0.0,0.0,0.0,0.0,0.0,0.0,0.0,0.0,0.0,0.0,0.0,0.0,0.0,0.0,0.0,0.0,0.0,0.0,0.0,0.0,0.0,0.0,0.0,0.0,0.0,0.0,0.0,0.0,0.0,0.0,0.0,0.0,0.0,0.0,0.0,0.0,0.0,0.0,0.0,0.0,0.0,0.0,0.0,0.0,0.0,0.0,0.0,0.0,0.0,0.0,0.0,0.0,0.0,0.0,0.0,0.0,0.0,0.0,0.0,0.0,0.0,0.0,0.0,0.0,0.0,0.0,0.0,0.0,0.0,0.0,0.0,-1.1627,-1.1414,-1.1558,0.0,0.0,0.0,0.0,0.0,0.0,0.0,0.0,0.0,0.0,0.0,0.0,0.0,0.0,0.0,0.0,0.0,0.0,0.0,0.0,0.0,0.0,0.0,0.0,0.0,0.0,0.0,0.0,0.0,0.0,0.0,0.0,0.0,0.0,0.0,0.0,0.0,0.0,0.0,0.0,0.0,0.0,0.0,0.0,0.0,0.0,0.0,0.0,0.0,0.0,0.0,0.0,0.0,0.0,0.0,0.0,0.0,0.0,0.0,0.0,0.0,0.0,0.0,0.0,0.0,0.0,0.0,0.0,0.0,0.0,0.0,0.0,0.0,0.0,0.0,0.0,0.0,0.0,0.0,0.0,0.0,0.0,0.0,0.0,0.0,0.0,0.0,0.0,0.0,0.0,0.0,0.0,0.0,0.0,0.0,0.0,0.0,0.0,0.0,0.0,0.0,0.0,0.0,0.0,0.0,0.0,0.0,0.0,0.0,0.0,-1.2427,-1.2549,-1.2247,0.0,-1.1534,0.0,0.0,0.0,0.0,0.0,0.0,0.0,0.0,0.0,0.0,0.0,0.0,0.0,0.0,0.0,0.0,0.0,0.0,0.0,0.0,0.0,0.0,0.0,0.0,0.0,0.0,0.0,0.0,0.0,0.0,0.0,0.0,0.0,0.0,0.0,0.0,0.0,0.0,0.0,0.0,0.0,0.0,0.0,0.0,0.0,0.0,0.0,0.0,0.0,0.0,0.0,0.0,0.0,0.0,0.0,0.0,0.0,0.0,0.0,0.0,0.0,0.0,0.0,0.0,0.0,0.0,0.0,0.0,0.0,0.0,0.0,0.0,0.0,0.0,0.0,0.0,0.0,0.0,0.0,0.0,0.0,0.0,0.0,0.0,0.0,0.0,0.0,0.0,0.0,0.0,0.0,0.0,0.0,0.0,0.0,0.0,0.0,0.0,0.0,0.0,0.0,0.0,0.0,0.0,0.0,0.0,0.0,0.0,0.0,0.0,-1.3269,-1.3442,-1.332,-1.2992,0.0,0.0,0.0,0.0,0.0,0.0,0.0,0.0,0.0,0.0,0.0,0.0,0.0,0.0,0.0,0.0,0.0,0.0,0.0,0.0,0.0,0.0,0.0,0.0,0.0,0.0,0.0,0.0,0.0,0.0,0.0,0.0,0.0,0.0,0.0,0.0,0.0,0.0,0.0,0.0,0.0,0.0,0.0,0.0,0.0,0.0,0.0,0.0,0.0,0.0,0.0,0.0,0.0,0.0,0.0,0.0,0.0,0.0,0.0,0.0,0.0,0.0,0.0,0.0,0.0,0.0,0.0,0.0,0.0,0.0,0.0,0.0,0.0,0.0,0.0,0.0,0.0,0.0,0.0,0.0,0.0,0.0,0.0,0.0,0.0,0.0,0.0,0.0,0.0,0.0,0.0,0.0,0.0,0.0,0.0,0.0,0.0,0.0,0.0,0.0,0.0,0.0,0.0,0.0,0.0,0.0,0.0,0.0,0.0,0.0,-1.3158,-1.3606,-1.3836,-1.3888,-1.3499,-1.2726,0.0,0.0,0.0,0.0,0.0,0.0,0.0,0.0,0.0,0.0,0.0,0.0,0.0,0.0,0.0,0.0,0.0,0.0,0.0,0.0,0.0,0.0,0.0,0.0,0.0,0.0,0.0,0.0,0.0,0.0,0.0,0.0,0.0,0.0,0.0,0.0,0.0,0.0,0.0,0.0,0.0,0.0,0.0,0.0,0.0,0.0,0.0,0.0,0.0,0.0,0.0,0.0,0.0,0.0,0.0,0.0,0.0,0.0,0.0,0.0,0.0,0.0,0.0,0.0,0.0,0.0,0.0,0.0,0.0,0.0,0.0,0.0,0.0,0.0,0.0,0.0,0.0,0.0,0.0,0.0,0.0,0.0,0.0,0.0,0.0,0.0,0.0,0.0,0.0,0.0,0.0,0.0,0.0,0.0,0.0,0.0,0.0,0.0,0.0,0.0,0.0,0.0,0.0,0.0,0.0,0.0,0.0,0.0,0.0,-1.285,-1.3214,-1.3536,-1.3514,-1.3067,0.0,0.0,0.0,0.0,0.0,0.0,0.0,0.0,0.0,0.0,0.0,0.0,0.0,0.0,0.0,0.0,0.0,0.0,0.0,0.0,0.0,0.0,0.0,0.0,0.0,0.0,0.0,0.0,0.0,0.0,0.0,0.0,0.0,0.0,0.0,0.0,0.0,0.0,0.0,0.0,0.0,0.0,0.0,0.0,0.0,0.0,0.0,0.0,0.0,0.0,0.0,0.0,0.0,0.0,0.0,0.0,0.0,0.0,0.0,0.0,0.0,0.0,0.0,0.0,0.0,0.0,0.0,0.0,0.0,0.0,0.0,0.0,0.0,0.0,0.0,0.0,0.0,0.0,0.0,0.0,0.0,0.0,0.0,0.0,0.0,0.0,0.0,0.0,0.0,0.0,0.0,0.0,0.0,0.0,0.0,0.0,0.0,0.0,0.0,0.0,0.0,0.0,0.0,0.0,0.0,0.0,0.0,0.0,0.0,-1.2514,-1.3243,-1.3887,-1.4338,-1.3828,-1.3133,0.0,0.0,0.0,0.0,0.0,0.0,0.0,0.0,0.0,0.0,0.0,0.0,0.0,0.0,0.0,0.0,0.0,0.0,0.0,0.0,0.0,0.0,0.0,0.0,0.0,0.0,0.0,0.0,0.0,0.0,0.0,0.0,0.0,0.0,0.0,0.0,0.0,0.0,0.0,0.0,0.0,0.0,0.0,0.0,0.0,0.0,0.0,0.0,0.0,0.0,0.0,0.0,0.0,0.0,0.0,0.0,0.0,0.0,0.0,0.0,0.0,0.0,0.0,0.0,0.0,0.0,0.0,0.0,0.0,0.0,0.0,0.0,0.0,0.0,0.0,0.0,0.0,0.0,0.0,0.0,0.0,0.0,0.0,0.0,0.0,0.0,0.0,0.0,0.0,0.0,0.0,0.0,0.0,0.0,0.0,0.0,0.0,0.0,0.0,0.0,0.0,0.0,0.0,0.0,0.0,0.0,0.0,0.0,0.0,-1.2848,0.0,-1.4296,0.0,-1.3901,-1.3089,0.0,0.0,0.0,0.0,0.0,0.0,0.0,0.0,0.0,0.0,0.0,0.0,0.0,0.0,0.0,0.0,0.0,0.0,0.0,0.0,0.0,0.0,0.0,0.0,0.0,0.0,0.0,0.0,0.0,0.0,0.0,0.0,0.0,0.0,0.0,0.0,0.0,0.0,0.0,0.0,0.0,0.0,0.0,0.0,0.0,0.0,0.0,0.0,0.0,0.0,0.0,0.0,0.0,0.0,0.0,0.0,0.0,0.0,0.0,0.0,0.0,0.0,0.0,0.0,0.0,0.0,0.0,0.0,0.0,0.0,0.0,0.0,0.0,0.0,0.0,0.0,0.0,0.0,0.0,0.0,0.0,0.0,0.0,0.0,0.0,0.0,0.0,0.0,0.0,0.0,0.0,0.0,0.0,0.0,0.0,0.0,0.0,0.0,0.0,0.0,0.0,0.0,0.0,0.0,0.0,0.0,0.0,0.0,-1.2526,-1.3484,-1.4166,-1.4364,-1.4049,-1.3682,-1.2892,0.0,0.0,0.0,0.0,0.0,0.0,0.0,0.0,0.0,0.0,0.0,0.0,0.0,0.0,0.0,0.0,0.0,0.0,0.0,0.0,0.0,0.0,0.0,0.0,0.0,0.0,0.0,0.0,0.0,0.0,0.0,0.0,0.0,0.0,0.0,0.0,0.0,0.0,0.0,0.0,0.0,0.0,0.0,0.0,0.0,0.0,0.0,0.0,0.0,0.0,0.0,0.0,0.0,0.0,0.0,0.0,0.0,0.0,0.0,0.0,0.0,0.0,0.0,0.0,0.0,0.0,0.0,0.0,0.0,0.0,0.0,0.0,0.0,0.0,0.0,0.0,0.0,0.0,0.0,0.0,0.0,0.0,0.0,0.0,0.0,0.0,0.0,0.0,0.0,0.0,0.0,0.0,0.0,0.0,0.0,0.0,0.0,0.0,0.0,0.0,0.0,0.0,0.0,0.0,0.0,0.0,0.0,0.0,0.0,-1.445,-1.4479,-1.4531,-1.4564,-1.3682,-1.2829,0.0,0.0,0.0,0.0,0.0,0.0,0.0,0.0,0.0,0.0,0.0,0.0,0.0,0.0,0.0,0.0,0.0,0.0,0.0,0.0,0.0,0.0,0.0,0.0,0.0,0.0,0.0,0.0,0.0,0.0,0.0,0.0,0.0,0.0,0.0,0.0,0.0,0.0,0.0,0.0,0.0,0.0,0.0,0.0,0.0,0.0,0.0,0.0,0.0,0.0,0.0,0.0,0.0,0.0,0.0,0.0,0.0,0.0,0.0,0.0,0.0,0.0,0.0,0.0,0.0,0.0,0.0,0.0,0.0,0.0,0.0,0.0,0.0,0.0,0.0,0.0,0.0,0.0,0.0,0.0,0.0,0.0,0.0,0.0,0.0,0.0,0.0,0.0,0.0,0.0,0.0,0.0,0.0,0.0,0.0,0.0,0.0,0.0,0.0,0.0,0.0,0.0,0.0,0.0,0.0,0.0,0.0,0.0,0.0,-1.6021,-1.5428,-1.5179,-1.5367,-1.4241,-1.3338,-1.2702,0.0,0.0,0.0,0.0,0.0,0.0,0.0,0.0,0.0,0.0,0.0,0.0,0.0,0.0,0.0,0.0,0.0,0.0,0.0,0.0,0.0,0.0,0.0,0.0,0.0,0.0,0.0,0.0,0.0,0.0,0.0,0.0,0.0,0.0,0.0,0.0,0.0,0.0,0.0,0.0,0.0,0.0,0.0,0.0,0.0,0.0,0.0,0.0,0.0,0.0,0.0,0.0,0.0,0.0,0.0,0.0,0.0,0.0,0.0,0.0,0.0,0.0,0.0,0.0,0.0,0.0,0.0,0.0,0.0,0.0,0.0,0.0,0.0,0.0,0.0,0.0,0.0,0.0,0.0,0.0,0.0,0.0,0.0,0.0,0.0,0.0,0.0,0.0,0.0,0.0,0.0,0.0,0.0,0.0,0.0,0.0,0.0,0.0,0.0,0.0,0.0,0.0,0.0,0.0,0.0,0.0,0.0,0.0,-1.8154,-1.7024,-1.6438,-1.6428,-1.5428,-1.4402,0.0,0.0,0.0,0.0,0.0,0.0,0.0,0.0,0.0,0.0,0.0,0.0,0.0,0.0,0.0,0.0,0.0,0.0,0.0,0.0,0.0,0.0,0.0,0.0,0.0,0.0,0.0,0.0,0.0,0.0,0.0,0.0,0.0,0.0,0.0,0.0,0.0,0.0,0.0,0.0,0.0,0.0,0.0,0.0,0.0,0.0,0.0,0.0,0.0,0.0,0.0,0.0,0.0,0.0,0.0,0.0,0.0,0.0,0.0,0.0,0.0,0.0,0.0,0.0,0.0,0.0,0.0,0.0,0.0,0.0,0.0,0.0,0.0,0.0,0.0,0.0,0.0,0.0,0.0,0.0,0.0,0.0,0.0,0.0,0.0,0.0,0.0,0.0,0.0,0.0,0.0,0.0,0.0,0.0,0.0,0.0,0.0,0.0,0.0,0.0,0.0,0.0,0.0,0.0,0.0,0.0,0.0,0.0,0.0,-1.9263,-1.9899,-1.9828,-1.8933,-1.7505,-1.6234,0.0,0.0,0.0,0.0,0.0,0.0,0.0,0.0,0.0,0.0,0.0,0.0,0.0,0.0,0.0,0.0,0.0,0.0,0.0,0.0,0.0,0.0,0.0,0.0,0.0,0.0,0.0,0.0,0.0,0.0,0.0,0.0,0.0,0.0,0.0,0.0,0.0,0.0,0.0,0.0,0.0,0.0,0.0,0.0,0.0,0.0,0.0,0.0,0.0,0.0,0.0,0.0,0.0,0.0,0.0,0.0,0.0,0.0,0.0,0.0,0.0,0.0,0.0,0.0,0.0,0.0,0.0,0.0,0.0,0.0,0.0,0.0,0.0,0.0,0.0,0.0,0.0,0.0,0.0,0.0,0.0,0.0,0.0,0.0,0.0,0.0,0.0,0.0,0.0,0.0,0.0,0.0,0.0,0.0,0.0,0.0,0.0,0.0,0.0,0.0,0.0,0.0,0.0,0.0,0.0,0.0,0.0,0.0,-1.9448,-2.0525,-2.2236,-2.2686,-2.1806,-1.9446,-1.7717,0.0,0.0,0.0,0.0,0.0,0.0,0.0,0.0,0.0,0.0,0.0,0.0,0.0,0.0,0.0,0.0,0.0,0.0,0.0,0.0,0.0,0.0,0.0,0.0,0.0,0.0,0.0,0.0,0.0,0.0,0.0,0.0,0.0,0.0,0.0,0.0,0.0,0.0,0.0,0.0,0.0,0.0,0.0,0.0,0.0,0.0,0.0,0.0,0.0,0.0,0.0,0.0,0.0,0.0,0.0,0.0,0.0,0.0,0.0,0.0,0.0,0.0,0.0,0.0,0.0,0.0,0.0,0.0,0.0,0.0,0.0,0.0,0.0,0.0,0.0,0.0,0.0,0.0,0.0,0.0,0.0,0.0,0.0,0.0,0.0,0.0,0.0,0.0,0.0,0.0,0.0,0.0,0.0,0.0,0.0,0.0,0.0,0.0,0.0,0.0,0.0,0.0,0.0,0.0,0.0,0.0,0.0,0.0,-2.0567,-2.171,-2.3924,-2.4834,-2.428,-2.1233,-1.9038,0.0,0.0,0.0,0.0,0.0,0.0,0.0,0.0,0.0,0.0,0.0,0.0,0.0,0.0,0.0,0.0,0.0,0.0,0.0,0.0,0.0,0.0,0.0,0.0,0.0,0.0,0.0,0.0,0.0,0.0,0.0,0.0,0.0,0.0,0.0,0.0,0.0,0.0,0.0,0.0,0.0,0.0,0.0,0.0,0.0,0.0,0.0,0.0,0.0,0.0,0.0,0.0,0.0,0.0,0.0,0.0,0.0,0.0,0.0,0.0,0.0,0.0,0.0,0.0,0.0,0.0,0.0,0.0,0.0,0.0,0.0,0.0,0.0,0.0,0.0,0.0,0.0,0.0,0.0,0.0,0.0,0.0,0.0,0.0,0.0,0.0,0.0,0.0,0.0,0.0,0.0,0.0,0.0,0.0,0.0,0.0,0.0,0.0,0.0,0.0,0.0,0.0,0.0,0.0,0.0,0.0,0.0,0.0,-2.1949,-2.2538,-2.4217,-2.4697,-2.3935,-2.2413,-2.0847,0.0,0.0,0.0,0.0,0.0,0.0,0.0,0.0,0.0,0.0,0.0,0.0,0.0,0.0,0.0,0.0,0.0,0.0,0.0,0.0,0.0,0.0,0.0,0.0,0.0,0.0,0.0,0.0,0.0,0.0,0.0,0.0,0.0,0.0,0.0,0.0,0.0,0.0,0.0,0.0,0.0,0.0,0.0,0.0,0.0,0.0,0.0,0.0,-1.3522,0.0,0.0,0.0,0.0,0.0,0.0,0.0,0.0,0.0,0.0,0.0,0.0,0.0,0.0,0.0,0.0,0.0,0.0,0.0,0.0,0.0,0.0,0.0,0.0,0.0,0.0,0.0,0.0,0.0,0.0,0.0,0.0,0.0,0.0,0.0,0.0,0.0,0.0,0.0,0.0,0.0,0.0,0.0,0.0,0.0,0.0,0.0,0.0,0.0,0.0,0.0,0.0,0.0,0.0,0.0,0.0,0.0,0.0,0.0,-2.2394,-2.2813,-2.4312,-2.4705,-2.3809,-2.2862,-2.1622,0.0,0.0,0.0,0.0,0.0,0.0,0.0,0.0,0.0,0.0,0.0,0.0,0.0,0.0,0.0,0.0,0.0,0.0,0.0,0.0,0.0,0.0,0.0,0.0,0.0,0.0,0.0,0.0,0.0,0.0,0.0,0.0,0.0,0.0,0.0,0.0,0.0,0.0,0.0,0.0,0.0,0.0,0.0,0.0,0.0,0.0,0.0,0.0,0.0,0.0,0.0,0.0,0.0,0.0,0.0,0.0,0.0,0.0,0.0,0.0,0.0,0.0,0.0,0.0,0.0,0.0,0.0,0.0,0.0,0.0,0.0,0.0,0.0,0.0,0.0,0.0,0.0,0.0,0.0,0.0,0.0,0.0,0.0,0.0,0.0,0.0,0.0,0.0,0.0,0.0,0.0,0.0,0.0,0.0,0.0,0.0,0.0,0.0,0.0,0.0,0.0,0.0,0.0,0.0,0.0,0.0,0.0,-2.1226,-2.238,-2.2857,-2.4185,-2.4492,-2.3711,-2.2852,-2.1765,-2.0323,0.0,0.0,0.0,0.0,0.0,0.0,0.0,0.0,0.0,0.0,0.0,0.0,0.0,0.0,0.0,0.0,0.0,0.0,0.0,0.0,0.0,0.0,0.0,0.0,0.0,0.0,0.0,0.0,0.0,0.0,0.0,0.0,0.0,0.0,0.0,0.0,0.0,0.0,-1.3237,-1.3904,0.0,0.0,0.0,0.0,0.0,0.0,0.0,0.0,-1.5278,0.0,0.0,0.0,0.0,0.0,0.0,0.0,0.0,0.0,0.0,0.0,0.0,0.0,0.0,0.0,0.0,0.0,0.0,0.0,0.0,0.0,0.0,0.0,0.0,0.0,0.0,0.0,0.0,0.0,0.0,0.0,0.0,0.0,0.0,0.0,0.0,0.0,0.0,0.0,0.0,0.0,0.0,0.0,0.0,0.0,0.0,0.0,0.0,0.0,0.0,0.0,0.0,0.0,0.0,0.0,0.0,-1.9789,-2.1199,-2.2321,-2.3038,-2.3701,-2.376,-2.3252,-2.2529,-2.1559,-2.023,0.0,0.0,0.0,0.0,0.0,0.0,0.0,0.0,0.0,0.0,0.0,0.0,0.0,0.0,0.0,0.0,0.0,0.0,0.0,0.0,0.0,0.0,0.0,0.0,0.0,0.0,0.0,0.0,0.0,0.0,0.0,0.0,0.0,0.0,0.0,0.0,0.0,0.0,0.0,-1.5083,-1.551,0.0,0.0,0.0,0.0,0.0,0.0,0.0,0.0,-1.5751,0.0,0.0,0.0,0.0,0.0,0.0,0.0,0.0,0.0,0.0,0.0,0.0,0.0,0.0,0.0,0.0,0.0,0.0,0.0,0.0,0.0,0.0,0.0,0.0,0.0,0.0,0.0,0.0,0.0,0.0,0.0,0.0,0.0,0.0,0.0,0.0,0.0,0.0,0.0,0.0,0.0,0.0,0.0,0.0,0.0,0.0,0.0,0.0,0.0,0.0,0.0,0.0,0.0,0.0,0.0,-1.9865,-2.1426,-2.2519,-2.3081,-2.3564,-2.3584,-2.3091,-2.2266,-2.1233,0.0,0.0,0.0,0.0,0.0,0.0,0.0,0.0,0.0,0.0,0.0,0.0,0.0,0.0,0.0,0.0,0.0,0.0,0.0,0.0,0.0,0.0,0.0,0.0,0.0,0.0,0.0,0.0,0.0,0.0,0.0,0.0,0.0,0.0,0.0,0.0,0.0,0.0,0.0,0.0,-1.6085,-1.6539,-1.7153,0.0,0.0,0.0,0.0,0.0,0.0,-1.7156,-1.6954,0.0,0.0,0.0,0.0,0.0,0.0,0.0,0.0,0.0,0.0,0.0,0.0,0.0,0.0,0.0,0.0,0.0,0.0,0.0,0.0,0.0,0.0,0.0,0.0,0.0,0.0,0.0,0.0,0.0,0.0,0.0,0.0,0.0,0.0,0.0,0.0,0.0,0.0,0.0,0.0,0.0,0.0,0.0,0.0,0.0,0.0,0.0,0.0,0.0,0.0,0.0,0.0,0.0,0.0,0.0,-1.995,-2.1505,-2.2549,-2.3071,-2.3432,-2.3457,-2.2964,-2.1963,-2.0864,0.0,0.0,0.0,0.0,0.0,0.0,0.0,0.0,0.0,0.0,0.0,0.0,0.0,0.0,0.0,0.0,0.0,0.0,0.0,0.0,0.0,0.0,0.0,0.0,0.0,0.0,0.0,0.0,0.0,0.0,0.0,0.0,0.0,0.0,0.0,0.0,0.0,0.0,0.0,0.0,0.0,-1.7422,-1.8309,-1.8209,0.0,0.0,0.0,0.0,-1.8271,-1.834,0.0,0.0,0.0,0.0,0.0,0.0,0.0,0.0,0.0,0.0,0.0,0.0,0.0,0.0,0.0,0.0,0.0,0.0,0.0,0.0,0.0,0.0,0.0,0.0,0.0,0.0,0.0,0.0,0.0,0.0,0.0,0.0,0.0,0.0,0.0,0.0,0.0,0.0,0.0,0.0,0.0,0.0,0.0,0.0,0.0,0.0,0.0,0.0,0.0,0.0,0.0,0.0,0.0,0.0,0.0,0.0,-2.0127,-2.1115,-2.2109,-2.3023,-2.314,-2.2974,-2.2588,-2.164,-2.0519,0.0,0.0,0.0,0.0,0.0,0.0,0.0,0.0,0.0,0.0,0.0,0.0,0.0,0.0,0.0,0.0,0.0,0.0,0.0,0.0,0.0,0.0,0.0,0.0,0.0,0.0,0.0,0.0,0.0,0.0,0.0,0.0,0.0,0.0,0.0,0.0,0.0,0.0,0.0,0.0,0.0,-1.79,-1.8504,-1.889,-1.8968,0.0,0.0,-1.9141,-1.9141,-1.9453,0.0,0.0,0.0,0.0,0.0,0.0,0.0,0.0,0.0,0.0,0.0,0.0,0.0,0.0,0.0,0.0,0.0,0.0,0.0,0.0,0.0,0.0,0.0,0.0,0.0,0.0,0.0,0.0,0.0,0.0,0.0,0.0,0.0,0.0,0.0,0.0,0.0,0.0,0.0,0.0,0.0,0.0,0.0,0.0,0.0,0.0,0.0,0.0,0.0,0.0,0.0,0.0,0.0,0.0,0.0,-1.8548,-2.0012,-2.138,-2.2474,-2.327,-2.3212,-2.2995,-2.267,-2.153,-2.041,0.0,0.0,0.0,0.0,0.0,0.0,0.0,0.0,0.0,0.0,0.0,0.0,0.0,0.0,0.0,0.0,0.0,0.0,0.0,0.0,0.0,0.0,0.0,0.0,0.0,0.0,0.0,0.0,0.0,0.0,0.0,0.0,0.0,0.0,0.0,0.0,0.0,0.0,0.0,0.0,0.0,0.0,-1.9639,-1.9893,0.0,0.0,0.0,-2.0107,-2.0352,0.0,0.0,0.0,0.0,0.0,0.0,0.0,0.0,0.0,0.0,0.0,0.0,0.0,0.0,0.0,0.0,0.0,0.0,0.0,0.0,0.0,0.0,0.0,0.0,0.0,0.0,0.0,0.0,0.0,0.0,0.0,0.0,0.0,0.0,0.0,0.0,0.0,0.0,0.0,0.0,0.0,0.0,0.0,0.0,0.0,0.0,0.0,0.0,0.0,0.0,0.0,0.0,0.0,0.0,0.0,0.0,0.0,-2.0111,-2.1756,-2.2914,-2.3541,-2.3333,-2.3052,-2.2735,-2.1474,0.0,0.0,0.0,0.0,0.0,0.0,0.0,0.0,0.0,0.0,0.0,0.0,0.0,0.0,0.0,0.0,0.0,0.0,0.0,0.0,0.0,0.0,0.0,0.0,0.0,0.0,0.0,-1.1887,0.0,0.0,0.0,0.0,0.0,0.0,0.0,0.0,0.0,0.0,0.0,0.0,0.0,0.0,-1.9717,-2.0498,-2.0889,-2.1133,0.0,0.0,-2.1094,-2.1171,-2.083,-2.0273,0.0,0.0,0.0,0.0,0.0,0.0,0.0,0.0,0.0,0.0,0.0,0.0,0.0,0.0,0.0,0.0,0.0,0.0,0.0,0.0,0.0,0.0,0.0,0.0,0.0,0.0,0.0,0.0,0.0,0.0,0.0,0.0,0.0,0.0,0.0,0.0,0.0,0.0,0.0,0.0,0.0,0.0,0.0,0.0,0.0,0.0,0.0,0.0,0.0,0.0,0.0,0.0,0.0,0.0,0.0,-2.072,-2.2105,-2.3112,-2.3737,-2.3418,-2.2996,-2.2522,-2.1389,-2.017,0.0,0.0,0.0,0.0,0.0,0.0,0.0,0.0,0.0,0.0,0.0,0.0,0.0,0.0,0.0,0.0,0.0,0.0,0.0,0.0,0.0,0.0,0.0,0.0,0.0,0.0,0.0,0.0,0.0,0.0,0.0,0.0,0.0,0.0,0.0,0.0,0.0,0.0,0.0,0.0,0.0,-2.0039,-2.0546,-2.1602,-2.2256,0.0,0.0,-2.2119,-2.1327,-2.1814,-2.1595,-1.9533,0.0,0.0,0.0,0.0,0.0,0.0,0.0,0.0,0.0,0.0,0.0,0.0,0.0,0.0,0.0,0.0,0.0,0.0,0.0,0.0,0.0,0.0,0.0,0.0,0.0,0.0,0.0,0.0,0.0,0.0,0.0,0.0,0.0,0.0,0.0,0.0,0.0,0.0,0.0,0.0,0.0,0.0,0.0,0.0,0.0,0.0,0.0,0.0,0.0,0.0,0.0,0.0,0.0,-1.8779,-2.0535,-2.2208,-2.3371,-2.3996,-2.3492,-2.3033,-2.2686,-2.1295,-2.0077,0.0,0.0,0.0,0.0,0.0,0.0,0.0,0.0,0.0,0.0,0.0,0.0,0.0,0.0,0.0,0.0,0.0,0.0,0.0,0.0,0.0,0.0,0.0,0.0,0.0,0.0,0.0,0.0,-1.4262,-1.469,-1.5449,0.0,0.0,0.0,0.0,0.0,0.0,0.0,0.0,0.0,0.0,-2.161,-2.175,-2.2549,0.0,0.0,-2.2716,-2.2656,-2.2393,-2.2339,-2.2019,-2.1127,-2.0498,0.0,0.0,0.0,0.0,0.0,0.0,0.0,0.0,0.0,0.0,0.0,0.0,0.0,0.0,0.0,0.0,0.0,0.0,0.0,0.0,0.0,0.0,0.0,0.0,0.0,0.0,0.0,0.0,0.0,0.0,0.0,0.0,0.0,0.0,0.0,0.0,0.0,0.0,0.0,0.0,0.0,0.0,0.0,0.0,0.0,0.0,0.0,0.0,0.0,0.0,0.0,0.0,-1.8794,-2.0617,-2.218,-2.335,-2.4067,-2.3371,-2.2897,-2.2685,-2.1333,-2.0203,0.0,0.0,0.0,0.0,0.0,0.0,0.0,0.0,0.0,0.0,0.0,0.0,0.0,0.0,0.0,0.0,0.0,0.0,0.0,0.0,0.0,0.0,0.0,0.0,0.0,0.0,0.0,0.0,-1.529,-1.5713,-1.6085,0.0,0.0,0.0,0.0,0.0,0.0,0.0,0.0,0.0,0.0,-2.2762,-2.2725,-2.3226,-2.3547,-2.3353,-2.3289,-2.3305,-2.3313,-2.3063,-2.2845,-2.2815,0.0,0.0,0.0,0.0,0.0,0.0,0.0,0.0,0.0,0.0,0.0,0.0,0.0,0.0,0.0,0.0,0.0,0.0,0.0,0.0,0.0,0.0,0.0,0.0,0.0,0.0,0.0,0.0,0.0,0.0,-1.1895,0.0,0.0,0.0,0.0,0.0,0.0,0.0,0.0,0.0,0.0,0.0,0.0,0.0,0.0,0.0,0.0,0.0,0.0,0.0,0.0,0.0,0.0,-1.9251,-2.1062,-2.2035,-2.2967,-2.3826,-2.2987,-2.2522,-2.2501,-2.159,-2.0669,-1.9772,0.0,0.0,0.0,0.0,0.0,0.0,0.0,0.0,0.0,0.0,0.0,0.0,0.0,0.0,0.0,0.0,0.0,0.0,0.0,0.0,0.0,0.0,0.0,0.0,0.0,0.0,-1.5628,-1.6094,-1.641,0.0,0.0,0.0,0.0,0.0,0.0,0.0,0.0,0.0,0.0,-2.208,-2.3199,-2.3207,-2.3569,-2.3861,-2.3807,-2.4013,-2.4108,-2.3898,-2.4219,-2.4409,0.0,0.0,0.0,0.0,0.0,0.0,0.0,0.0,0.0,0.0,0.0,0.0,0.0,0.0,0.0,0.0,0.0,0.0,0.0,0.0,0.0,0.0,0.0,0.0,0.0,0.0,0.0,-1.5754,-1.5533,0.0,0.0,0.0,0.0,0.0,0.0,0.0,0.0,0.0,0.0,0.0,-1.8004,-1.8538,0.0,0.0,0.0,0.0,0.0,0.0,0.0,0.0,0.0,0.0,0.0,0.0,-1.9127,-2.0627,-2.188,-2.2801,-2.3381,-2.2811,-2.2501,-2.249,-2.16,-2.04,-1.8922,0.0,0.0,0.0,0.0,0.0,0.0,0.0,0.0,0.0,0.0,0.0,0.0,0.0,0.0,0.0,0.0,0.0,0.0,0.0,0.0,0.0,0.0,0.0,0.0,0.0,-1.5509,0.0,0.0,0.0,0.0,0.0,0.0,0.0,0.0,0.0,0.0,0.0,-2.1621,-2.2471,-2.3971,-2.4848,-2.4375,-2.4814,-2.4991,0.0,0.0,0.0,0.0,0.0,0.0,0.0,0.0,0.0,0.0,0.0,0.0,0.0,0.0,-2.4814,-2.3734,-2.3456,-2.3421,-2.3352,0.0,0.0,0.0,0.0,0.0,0.0,0.0,0.0,0.0,0.0,0.0,0.0,0.0,0.0,0.0,0.0,-1.6641,0.0,0.0,0.0,0.0,0.0,0.0,0.0,0.0,-1.9128,-1.9937,-2.0149,-2.0589,-2.0716,0.0,-2.0519,-1.9419,0.0,0.0,0.0,0.0,0.0,0.0,0.0,0.0,-1.9458,-2.0659,-2.1714,-2.248,-2.2904,-2.2501,-2.2252,-2.2242,-2.1769,-2.0757,-1.9137,-1.9201,-1.8398,0.0,0.0,0.0,0.0,0.0,0.0,0.0,0.0,0.0,0.0,0.0,0.0,0.0,0.0,0.0,0.0,0.0,0.0,0.0,0.0,0.0,0.0,0.0,-1.6084,0.0,0.0,0.0,0.0,0.0,0.0,0.0,0.0,0.0,-2.1207,-2.2328,-2.3532,-2.4532,-2.5797,-2.6293,-2.5455,0.0,0.0,0.0,0.0,0.0,0.0,0.0,-2.6736,-2.6971,-2.7248,-2.737,-2.7146,-2.7114,-2.7323,-2.7951,0.0,0.0,-2.6033,-2.5684,-2.566,-2.5648,-2.5575,-2.5479,-2.5479,-2.5406,-2.5343,0.0,0.0,0.0,0.0,0.0,0.0,0.0,0.0,-1.8926,-1.8935,0.0,-1.8225,0.0,0.0,0.0,0.0,0.0,0.0,0.0,0.0,-2.157,-2.2393,-2.2227,-2.2434,-2.2542,-2.2511,-2.2076,-2.1383,-2.0354,-1.868,0.0,0.0,0.0,0.0,0.0,0.0,-2.0238,-2.1083,-2.158,-2.2025,-2.2449,-2.2035,-2.1818,-2.1883,-2.2151,-2.1704,-2.0559,-2.1509,-2.0767,-1.7947,-1.8202,0.0,0.0,0.0,0.0,0.0,0.0,0.0,0.0,0.0,0.0,0.0,0.0,0.0,0.0,0.0,0.0,0.0,0.0,0.0,0.0,-1.6104,0.0,0.0,0.0,0.0,0.0,0.0,0.0,0.0,0.0,0.0,-2.3872,-2.4749,-2.5729,-2.6595,0.0,0.0,0.0,0.0,-2.6753,-2.6558,-2.6787,-2.7003,-2.7174,-2.7753,-2.8315,-2.87,0.0,0.0,-2.9394,-2.8842,-2.8491,-2.9032,-2.9213,-2.898,-2.7616,-2.7246,-2.7122,-2.7084,-2.7109,-2.7084,-2.7084,-2.7122,-2.7217,-2.0569,0.0,0.0,0.0,0.0,-2.0246,-2.0692,-2.1052,-2.1333,-2.1304,-2.0993,-2.044,0.0,0.0,0.0,0.0,0.0,0.0,-2.0577,-2.1287,-2.2473,-2.306,-2.3155,-2.3513,-2.3628,-2.3484,-2.335,-2.2811,-2.189,-2.1052,-1.9748,-1.8019,0.0,0.0,0.0,0.0,-2.0238,-2.1046,-2.1569,-2.1869,-2.1994,-2.1869,-2.2063,-2.2628,-2.2759,-2.2455,-2.1797,-2.2647,-2.1947,-1.9498,-1.9732,0.0,0.0,0.0,0.0,0.0,0.0,0.0,0.0,0.0,0.0,0.0,0.0,0.0,0.0,0.0,0.0,0.0,0.0,0.0,-1.685,-1.7499,-1.8221,0.0,0.0,0.0,0.0,0.0,0.0,0.0,0.0,0.0,-2.8113,-2.7855,-2.7646,0.0,0.0,-2.8194,-2.7452,-2.7435,-2.7476,-2.7447,0.0,0.0,0.0,-2.8315,-2.8724,-2.8961,-2.9236,-2.9457,-2.965,-2.9487,-2.941,-2.956,-2.9663,-2.9538,-2.9211,-2.9047,-2.8996,-2.9009,-2.8996,-2.9009,-2.8996,-2.9009,-2.9033,-2.2126,-2.1226,-2.103,-2.0934,-2.0983,-2.1471,-2.1894,-2.2158,-2.2393,-2.2363,-2.2119,-2.1814,-2.122,-2.041,-2.0056,0.0,0.0,0.0,-2.191,-2.2565,-2.3242,-2.3703,-2.3893,-2.4202,-2.4235,-2.4146,-2.3971,-2.3494,-2.276,-2.2304,-2.1186,-1.951,0.0,0.0,-1.9399,-2.001,-2.0565,-2.1104,-2.1569,-2.1714,-2.1538,-2.1538,-2.1847,-2.2505,-2.3091,-2.3169,-2.2601,-2.3624,-2.312,-2.0754,-2.1034,-2.0086,0.0,0.0,0.0,0.0,0.0,0.0,0.0,0.0,0.0,0.0,0.0,-1.6075,-1.6142,0.0,0.0,0.0,-1.7129,-1.7638,-1.8517,-1.9298,0.0,0.0,0.0,0.0,0.0,0.0,0.0,-2.6429,-2.7754,-2.9035,-3.0115,-2.9957,-2.9578,-2.9324,-2.924,-2.8929,-2.829,0.0,-2.841,-2.8303,-2.8566,-2.8697,-2.8514,-2.8791,-2.9106,-2.9339,-2.9495,-2.9611,-2.974,-2.9779,-2.9779,-2.9779,-2.9779,-2.9779,-2.9779,-2.9779,-2.9779,-2.9779,-2.9779,-2.9779,-2.9779,-2.9779,-2.9779,-2.3101,-2.3033,-2.2305,-2.1982,-2.2021,-2.2402,-2.2559,-2.2559,-2.2568,-2.2559,-2.2559,-2.2559,-2.2129,-2.1367,-2.1224,0.0,-2.182,-2.2462,-2.3021,-2.3594,-2.3982,-2.4274,-2.4445,-2.4414,-2.4394,-2.4373,-2.4012,-2.3608,-2.3174,-2.2718,-2.2045,-2.1176,-2.0705,-2.0307,-1.9979,-2.07,-2.1098,-2.1176,-2.1549,-2.1528,-2.1156,-2.1199,-2.1444,-2.1975,-2.3315,-2.3716,-2.3066,-2.4387,-2.4062,-2.1755,-2.1957,-2.0756,-1.7773,0.0,0.0,0.0,0.0,0.0,0.0,0.0,0.0,0.0,0.0,0.0,0.0,0.0,0.0,0.0,-1.8944,0.0,-2.0421,-2.1537,0.0,0.0,0.0,-2.554,-2.6224,-2.7338,-2.8276,-2.8718,0.0,0.0,-3.0479,0.0,-3.1232,-3.0865,-3.029,-2.9653,-2.8955,-2.9145,-2.9341,-2.917,-2.9131,-2.917,-2.9131,-2.9314,-2.9482,-2.9702,-2.9779,-2.9792,-2.9779,-2.9779,-2.9779,-2.9779,-2.9779,-2.9779,-2.9779,-2.9779,-2.9779,-2.9779,-2.9779,-2.9779,-2.9779,-2.9779,-2.9779,-2.3101,-2.3081,-2.2886,-2.2832,-2.2808,-2.2906,-2.2945,-2.2945,-2.2945,-2.2945,-2.2945,-2.2945,-2.2967,-2.2942,-2.3036,-2.3267,-2.36,-2.3754,-2.3984,-2.4226,-2.4052,-2.3991,-2.4022,-2.367,-2.3505,-2.3505,-2.3401,-2.3298,-2.3163,-2.2718,-2.2201,-2.1652,-2.1538,-2.1248,-2.0814,-2.1,-2.129,-2.1642,-2.1404,-2.1308,-2.1392,-2.1901,-2.2512,-2.3144,-2.3532,-2.3418,-2.273,-2.3634,-2.3336,-2.1664,-2.18,-2.1532,-2.061,-1.9264,0.0,0.0,0.0,0.0,0.0,0.0,0.0,0.0,0.0,-1.903,-1.8634,0.0,-2.1353,0.0,-2.2063,-2.3116,-2.3832,-2.4568,0.0,0.0,-2.7146,-2.778,-2.8718,-2.9361,-2.9862,-3.0241,-3.0688,-3.096,-3.0947,-3.0687,-3.0546,-3.0608,-3.0242,-2.9733,-2.931,-2.9341,-2.947,-2.9585,-2.9611,-2.9624,-2.9624,-2.965,-2.9714,-2.9779,-2.9779,-2.9779,-2.9779,-2.9779,-2.9779,-2.9779,-2.9779,-2.9779,-2.9779,-2.9779,-2.9779,-2.9779,-2.9779,-2.9779,-2.9779,-2.9792,-2.9818,-2.331,-2.3101,-2.3101,-2.3101,-2.3101,-2.3101,-2.3101,-2.3101,-2.3101,-2.3101,-2.3101,-2.3232,-2.3363,-2.3503,-2.3851,-2.4067,-2.4206,-2.4282,-2.4308,-2.4229,-2.3991,-2.3774,-2.3567,-2.3308,-2.3194,-2.3184,-2.2977,-2.2873,-2.2853,-2.2418,-2.2258,-2.2338,-2.2327,-2.2376,-2.2429,-2.2109,-2.2062,-2.2317,-2.2218,-2.2188,-2.2312,-2.2457,-2.2672,-2.2988,-2.3335,-2.3301,-2.2898,-2.3292,-2.304,-2.2026,-2.2019,-2.1698,-2.0868,-2.0117,-1.9446,0.0,0.0,0.0,0.0,0.0,0.0,0.0,0.0,0.0,0.0,0.0,-2.3585,-2.3719,-2.4718,-2.5673,-2.6493,-2.7274,-2.8001,-2.8537,-2.9118,-2.9628,-3.0053,-3.0515,-3.087,-3.1046,-3.1165,-3.116,-3.0882,-3.0583,-3.0323,-3.0242,-3.0047,-2.9791,-2.9647,-2.9599,-2.9638,-2.9792,-2.9779,-2.9779,-2.9779,-2.9779,-2.9779,-2.9779,-2.9779,-2.9779,-2.9779,-2.9779,-2.9779,-2.9779,-2.9779,-2.9779,-2.9779,-2.9869,-2.9946,-2.9934,-2.9998,-3.0011,-2.983,-2.9869,-2.996,-2.3545,-2.3101,-2.3101,-2.3101,-2.3101,-2.3101,-2.3101,-2.3101,-2.3101,-2.3101,-2.3101,-2.3363,-2.3503,-2.359,-2.3991,-2.4206,-2.4239,-2.4349,-2.424,-2.3919,-2.3795,-2.3484,-2.3101,-2.3039,-2.3018,-2.2987,-2.2604,-2.2408,-2.2397,-2.1994,-2.2214,-2.2964,-2.3001,-2.335,-2.4047,-2.357,-2.3217,-2.3077,-2.3448,-2.3526,-2.3271,-2.2913,-2.2613,-2.232,-2.2979,-2.3223,-2.3036,-2.3036,-2.2836,-2.2453,-2.2283,-2.1684,-2.0463,-2.0753,-2.0806,0.0,-2.0437,0.0,0.0,0.0,0.0,0.0,0.0,0.0,0.0,-2.4858,-2.534,-2.6295,-2.6909,-2.763,-2.8583,-2.9534,-2.9982,-2.9781,-3.0552,-3.1019,-3.0756,-3.106,-3.1286,-3.1298,-3.1235,-3.1009,-3.0583,-3.0507,-3.0319,-2.9917,-2.9829,-2.9778,-2.9792,-2.9779,-2.9792,-2.9779,-2.9779,-2.9779,-2.9779,-2.9779,-2.9779,-2.9779,-2.9779,-2.9779,-2.9779,-2.9779,-2.9779,-2.9779,-2.9779,-2.9792,-2.983,-2.9972,-3.0126,-3.0113,-3.0254,-3.0254,-3.0011,-3.0011,-3.0152,-2.3535,-2.3101,-2.3101,-2.3101,-2.3101,-2.3101,-2.3101,-2.3101,-2.3101,-2.3101,-2.3135,-2.3373,-2.358,-2.3754,-2.4067,-2.4282,-2.4433,-2.4125,-2.4002,-2.3846,-2.3101,-2.2708,-2.2604,-2.2242,-2.2066,-2.2056,-2.1973,-2.1932,-2.1942,-2.1849,-2.2225,-2.3001,-2.3001,-2.3386,-2.4084,0.0,0.0,0.0,-2.4002,-2.3895,-2.3093,-2.3329,-2.3264,-2.2786,-2.2818,0.0,-2.2186,-2.2143,-2.2107,-2.2024,-2.1869,0.0,0.0,0.0,0.0,0.0,0.0,0.0,0.0,0.0,0.0,0.0,-2.6355,-2.602,-2.5348,-2.6186,-2.7197,-2.8237,-2.8437,-2.9,-3.0063,-3.0363,-3.0653,-3.1019,-3.1232,-3.1308,-3.1248,-3.0959,-3.0758,-3.0758,-3.0382,-3.0068,-2.9993,-2.9942,-2.9917,-2.9829,-2.9779,-2.9779,-2.9779,-2.9779,-2.9779,-2.9779,-2.9779,-2.9779,-2.9779,-2.9779,-2.9779,-2.9779,-2.9779,-2.9779,-2.9779,-2.9792,-2.9792,-2.9792,-2.9779,-2.9869,-2.9998,-3.0088,-3.0152,-3.0305,-3.0368,-3.0368,-3.0292,-3.033,-3.0368,-2.3848,0.0,-2.3188,-2.3101,0.0,-2.3101,-2.3101,-2.3101,-2.3101,-2.3101,-2.3144,-2.3493,-2.3711,-2.3841,-2.4196,-2.4411,-2.4476,-2.4084,-2.3795,-2.3494,-2.2822,-2.2377,-2.2149,-2.1921,-2.1807,-2.1807,-2.1807,-2.1807,-2.1807,-2.1807,-2.2381,-2.3522,-2.3522,-2.4131,-2.5252,-2.5699,-2.5599,-2.5007,-2.533,-2.4985,-2.3951,-2.4139,-2.3804,-2.2946,0.0,0.0,0.0,0.0,0.0,0.0,0.0,0.0,0.0,0.0,0.0,-2.5577,-2.5413,-2.5658,-2.6522,-2.6916,-2.7423,-2.8047,-2.8373,-2.8123,-2.7212,-2.7985,-2.8863,-2.9628,-2.9728,-3.0105,-3.0896,-3.0997,-3.1009,-3.1009,-3.1009,-3.0909,-3.0633,-3.0382,-3.0206,-3.0206,-2.998,-2.9779,-2.9779,-2.9779,-2.9779,-2.9779,-2.9779,-2.9779,-2.9779,-2.9779,-2.9779,-2.9779,-2.9779,-2.9779,-2.9779,-2.9779,-2.9792,-2.9779,-2.9779,-2.9779,-2.9779,-2.9869,-2.9934,-2.9934,-3.0011,-3.0152,-3.0228,-3.0305,-3.0419,-3.0533,-3.0634,-3.0672,-3.0672,-3.0609,-3.0584,-2.4238,-2.3769,-2.3398,-2.3159,-2.3101,-2.3101,-2.3101,-2.3101,0.0,0.0,0.0,-2.358,-2.3797,-2.3884,-2.4282,-2.4464,-2.4476,-2.4074,-2.3629,-2.3163,-2.2718,-2.2252,-2.1818,-2.1807,-2.1807,-2.1807,-2.1807,-2.1873,-2.1987,-2.2025,-2.2793,-2.4192,-2.4301,-2.5028,-2.6383,-2.6487,-2.6487,-2.6487,-2.6487,-2.6009,-2.4996,-2.4938,-2.4354,-2.3232,-2.3164,-2.3325,-2.3675,-2.3688,-2.3909,-2.4341,-2.4419,-2.4735,-2.5262,-2.5398,-2.5941,-2.7062,-2.7269,-2.7578,-2.8126,-2.8737,-2.9038,-2.9051,-2.9528,-2.9591,-2.9076,-2.9515,-2.998,-3.0432,-3.047,-3.0645,-3.106,-3.1097,-3.0947,-3.0507,-3.047,-3.0281,-2.9867,-2.9779,-2.9817,-2.9779,-2.9792,-2.9779,-2.9779,-2.9779,-2.9779,-2.9779,-2.9779,-2.9779,-2.9779,-2.9779,-2.9779,-2.9779,-2.9779,-2.9779,-2.9779,-2.9818,-2.9869,-2.9856,-2.9895,-2.9908,-2.9908,-3.0011,-3.0113,-3.0075,-3.0254,-3.0368,-3.0444,-3.0571,-3.0698,-3.0736,-3.0874,-3.1024,-3.0986,-3.0874,-3.0773,-2.4502,-2.3789,-2.373,-2.3486,-2.3101,-2.3101,-2.3101,-2.3101,-2.3101,-2.3232,-2.346,-2.3493,-2.3754,-2.4163,-2.4206,-2.4325,-2.4466,-2.4074,-2.3629,0.0,-2.2708,-2.2252,-2.1818,-2.1807,-2.1807,-2.1807,-2.1807,-2.2149,-2.2777,-2.2804,-2.3607,-2.4945,-2.5123,-2.5594,-2.6418,-2.6487,-2.6487,-2.6487,-2.6487,-2.6185,-2.5511,-2.5365,-2.5025,-2.4387,-2.4184,-2.4201,-2.4429,-2.4429,-2.4454,-2.4553,-2.4942,-2.5413,-2.6015,-2.6487,-2.7304,-2.8475,-2.8612,-2.8875,-2.9465,-2.9628,-2.9679,-2.9679,-2.9754,-2.9754,-2.9691,-2.9741,-2.9829,-2.9905,-2.993,-2.993,-3.0005,-3.0055,-3.0055,-2.9955,-2.9917,-2.9867,-2.9792,-2.9779,-2.9779,-2.9779,-2.9779,-2.9779,-2.9779,-2.9779,-2.9779,-2.9779,-2.9779,-2.9779,-2.9779,-2.9779,-2.9779,-2.9779,-2.9779,-2.9779,-2.9818,-2.9972,-3.0049,-3.0037,-3.0177,-3.0228,-3.0088,-3.0216,-3.0292,-3.0139,-3.0292,-3.0482,-3.0622,-3.066,-3.0773,-3.0874,-3.0986,-3.1024,-3.1024,-3.0949,-3.0949,-2.4744,-2.4121,-2.3887,-2.3535,-2.3101,-2.3101,-2.3101,-2.3101,-2.3101,-2.3232,-2.3503,-2.3764,-2.398,-2.4206,-2.4325,-2.4411,-2.4476,-2.4074,-2.3764,-2.3515,-2.2822,-2.2377,-2.217,-2.1921,-2.1807,-2.1845,-2.2252,-2.2665,-2.299,-2.3386,-2.4179,-2.5276,-2.5746,-2.6141,-2.6465,-2.6487,-2.6487,-2.6487,-2.6487,-2.621,-2.5611,-2.5532,-2.5261,-2.4716,-2.4593,-2.4763,-2.5136,-2.5161,-2.5298,-2.5611,-2.5836,-2.6224,-2.6762,-2.7312,-2.7975,-2.8838,-2.9227,-2.9515,-2.9779,-2.9779,-2.9779,-2.9779,-2.9779,-2.9779,-2.9779,-2.9779,-2.9779,-2.9779,-2.9779,-2.9779,-2.9779,-2.9779,-2.9779,-2.9779,-2.9779,-2.9779,-2.9779,-2.9779,-2.9779,-2.9779,-2.9779,-2.9779,-2.9779,-2.9779,-2.9779,-2.9779,-2.9779,-2.9779,-2.9779,-2.9779,-2.9779,-2.9779,-2.9779,-2.9869,-2.9934,-3.0037,-3.0139,-3.0254,-3.033,-3.0368,-3.0292,-3.0406,-3.0495,-3.0457,-3.0571,-3.0748,-3.0836,-3.0887,-3.0911,-3.0949,-3.1024,-3.1024,-3.1024,-3.1024,-3.1024,-2.4961,-2.4521,-2.4111,-2.3633,-2.311,-2.3101,-2.3135,-2.3178,-2.3232,-2.3406,-2.3677,-2.398,-2.4153,-2.4292,-2.4454,-2.4507,-2.4456,-2.4178,-2.3971,-2.3805,-2.3143,-2.2749,-2.2615,-2.218,-2.1963,-2.2018,-2.2682,-2.3065,-2.3313,-2.3986,-2.4779,-2.5558,-2.6198,-2.6487,-2.6487,-2.6487,-2.6487,-2.6487,-2.6487,-2.6273,-2.5845,-2.5787,-2.5586,-2.5234,-2.5197,-2.5385,-2.5762,-2.5787,-2.6034,-2.6449,-2.6487,-2.6751,-2.7268,-2.7808,-2.8348,-2.8863,-2.9465,-2.9779,-2.9779,-2.9779,-2.9779,-2.9779,-2.9779,-2.9779,-2.9779,-2.9779,-2.9779,-2.9779,-2.9779,-2.9779,-2.9779,-2.9779,-2.9779,-2.9779,-2.9779,-2.9779,-2.9779,-2.9779,-2.9779,-2.9779,-2.9779,-2.9779,-2.9779,-2.9779,-2.9779,-2.9779,-2.9779,-2.9779,-2.9779,-2.9779,-2.9792,-2.983,-2.983,-2.9856,-3.0037,-3.0152,-3.0267,-3.0406,-3.052,-3.052,-3.052,-3.0609,-3.0736,-3.0698,-3.0836,-3.0949,-3.0986,-3.0986,-3.0986,-3.1024,-3.1024,-3.1024,-3.1024,-3.1024,-3.1024,-2.5458,-2.5018,-2.4558,-2.3842,-2.312,-2.3101,-2.3232,-2.346,-2.3624,-2.3884,-2.4067,-2.3937,-2.41,-2.4454,-2.4497,-2.4507,-2.4507,-2.4456,-2.4218,-2.3961,-2.3836,-2.3577,-2.3111,-2.2646,-2.2439,-2.2483,-2.288,-2.342,-2.4011,-2.4791,-2.5594,-2.6314,-2.6452,-2.6487,-2.6487,-2.6487,-2.6487,-2.6487,-2.6487,-2.6461,-2.6424,-2.6411,-2.6399,-2.6361,-2.6323,-2.6361,-2.6373,-2.6411,-2.6424,-2.6487,-2.6487,-2.6751,-2.7291,-2.7808,-2.8348,-2.8863,-2.9478,-2.9779,-2.9779,-2.9779,-2.9779,-2.9779,-2.9779,-2.9779,-2.9779,-2.9779,-2.9779,-2.9779,-2.9779,-2.9779,-2.9779,-2.9779,-2.9779,-2.9779,-2.9779,-2.9779,-2.9779,-2.9779,-2.9779,-2.9779,-2.9779,-2.9779,-2.9779,-2.9779,-2.9779,-2.9779,-2.9779,-2.9779,-2.9779,-2.9779,-2.9869,-2.9972,-2.9934,-2.9895,-3.0088,-3.0267,-3.0457,-3.066,-3.0798,-3.0798,-3.0761,-3.0798,-3.0949,-3.0811,-3.0874,-3.0973,-3.1024,-3.1024,-3.1024,-3.1024,-3.1024,-3.1024,-3.1024,-3.1024,-3.1024,-2.7212,-2.6762,-2.5711,-2.4446,-2.3184,-2.3101,-2.3232,-2.3503,-2.358,-2.3851,-2.4163,-2.4077,-2.4196,-2.4507,-2.4507,-2.4507,-2.4507,-2.4507,-2.4404,-2.425,-2.4002,-2.3815,-2.3567,-2.3122,-2.2997,-2.3249,-2.3785,-2.432,-2.4873,-2.5616,-2.6164,-2.6452,-2.6487,-2.6487,-2.6487,-2.6487,-2.6487,-2.6487,-2.6487,-2.6487,-2.6487,-2.6487,-2.6487,-2.6487,-2.6487,-2.6487,-2.6487,-2.6487,-2.6487,-2.6487,-2.6487,-2.6738,-2.7291,-2.7808,-2.8348,-2.8863,-2.9465,-2.9779,-2.9779,-2.9779,-2.9779,-2.9779,-2.9779,-2.9779,-2.9779,-2.9779,-2.9779,-2.9779,-2.9779,-2.9779,-2.9779,-2.9779,-2.9779,-2.9779,-2.9779,-2.9779,-2.9779,-2.9779,-2.9779,-2.9779,-2.9779,-2.9779,-2.9779,-2.9779,-2.9779,-2.9779,-2.9779,-2.9779,-2.9779,-2.9779,-2.9908,-3.0049,-3.0011,-3.0113,-3.0381,-3.0495,-3.0647,-3.0798,-3.0949,-3.0949,-3.0911,-3.0911,-3.0986,-3.0874,-3.0949,-3.0973,-3.1024,-3.1024,-3.1024,-3.1024,-3.1024,-3.1024,-3.1024,-3.1024,-3.1024,-2.853,-2.8056,-2.6581,-2.5077,-2.3783,-2.3359,-2.3406,-2.3677,-2.3677,-2.3894,-2.4292,-2.4282,-2.4368,-2.4507,-2.4507,-2.4507,-2.4507,-2.4507,-2.4507,-2.4466,-2.4198,-2.4064,-2.4012,-2.3854,-2.3783,-2.3996,-2.4759,-2.5322,-2.5654,-2.6164,-2.6533,-2.6555,-2.6521,-2.6533,-2.6555,-2.6533,-2.6487,-2.6487,-2.6487,-2.6487,-2.6487,-2.6487,-2.6487,-2.6487,-2.6487,-2.6487,-2.6487,-2.6487,-2.6487,-2.6487,-2.6487,-2.6751,-2.7256,-2.7808,-2.8423,-2.9063,-2.9553,-2.9779,-2.9779,-2.9779,-2.9779,-2.9779,-2.9779,-2.9779,-2.9779,-2.9779,-2.9779,-2.9779,-2.9779,-2.9779,-2.9779,-2.9779,-2.9779,-2.9779,-2.9779,-2.9779,-2.9779,-2.9779,-2.9779,-2.9779,-2.9779,-2.9779,-2.9779,-2.9779,-2.9779,-2.9779,-2.9779,-2.9779,-2.9779,-2.9792,-2.9908,-3.0126,-3.019,-3.0305,-3.0622,-3.0698,-3.0811,-3.0911,-3.1024,-3.1024,-3.1024,-3.1024,-3.1024,-3.0949,-3.0986,-3.1024,-3.1024,-3.1024,-3.1024,-3.1024,-3.1024,-3.1024,-3.1024,-3.1024,-3.1024,-2.8705,-2.8403,-2.6697,-2.5753,-2.5371,-2.4065,-2.3721,-2.412,-2.412,-2.4282,-2.4464,-2.4497,-2.4507,-2.4507,-2.4507,-2.4507,-2.4507,-2.4507,-2.4507,-2.4497,-2.4466,-2.4466,-2.452,-2.4886,-2.4796,-2.4502,-2.5561,-2.6178,-2.6424,-2.6465,-2.6555,-2.6692,-2.6555,-2.6568,-2.6658,-2.6568,-2.6487,-2.6487,-2.6487,-2.6487,-2.6487,-2.6487,-2.6487,-2.6487,-2.6487,-2.6487,-2.6487,-2.6487,-2.6487,-2.6487,-2.6512,-2.6776,-2.7281,-2.7846,-2.8649,-2.9578,-2.9754,-2.9779,-2.9779,-2.9779,-2.9779,-2.9779,-2.9779,-2.9779,-2.9779,-2.9779,-2.9779,-2.9779,-2.9779,-2.9779,-2.9779,-2.9779,-2.9779,-2.9779,-2.9779,-2.9779,-2.9779,-2.9779,-2.9779,-2.9779,-2.9779,-2.9779,-2.9779,-2.9779,-2.9779,-2.9779,-2.9779,-2.9779,-2.9792,-2.9792,-2.9972,-3.0267,-3.0406,-3.0444,-3.066,-3.0736,-3.0811,-3.0911,-3.1024,-3.1024,-3.1024,-3.1024,-3.1024,-3.1024,-3.1024,-3.1024,-3.1024,-3.1024,-3.1024,-3.1024,-3.1024,-3.1024,-3.1024,-3.1024,-3.1024,-3.0065,-2.9105,-2.7985,-2.6795,-2.5522,-2.4534,-2.4166,-2.4206,-2.4196,-2.4325,-2.4497,-2.4507,-2.4507,-2.4507,-2.4507,-2.4507,-2.4507,-2.4507,-2.4507,-2.4507,-2.4507,-2.4507,-2.4562,-2.5249,-2.5643,-2.5758,-2.6591,-2.7054,-2.6934,-2.6675,-2.6555,-2.6658,-2.6568,-2.6555,-2.6658,-2.6555,-2.6487,-2.6487,-2.6487,-2.6487,-2.6487,-2.6487,-2.6487,-2.6487,-2.6487,-2.6487,-2.6487,-2.6487,-2.6487,-2.6487,-2.6813,-2.7278,-2.7821,-2.8674,-2.9352,-2.9716,-2.9779,-2.9779,-2.9779,-2.9779,-2.9779,-2.9779,-2.9779,-2.9779,-2.9779,-2.9779,-2.9779,-2.9779,-2.9779,-2.9779,-2.9779,-2.9779,-2.9779,-2.9779,-2.9779,-2.9779,-2.9779,-2.9779,-2.9779,-2.9779,-2.9779,-2.9779,-2.9779,-2.9779,-2.9779,-2.9779,-2.9779,-2.9779,-2.9818,-2.9908,-3.0075,-3.0343,-3.0533,-3.0647,-3.0874,-3.0874,-3.0911,-3.0949,-3.1024,-3.1024,-3.1024,-3.1024,-3.1024,-3.1024,-3.1024,-3.1024,-3.1024,-3.1024,-3.1024,-3.1024,-3.1024,-3.1024,-3.1024,-3.1024,-3.1024,-3.1168,-3.0241,-2.9304,-2.8044,-2.6659,-2.5516,-2.4861,-2.4541,-2.4354,-2.4378,-2.4497,-2.4507,-2.4507,-2.4507,-2.4507,-2.4507,-2.4507,-2.4507,-2.4507,-2.454,-2.4775,-2.4903,-2.5105,-2.6121,-2.6673,-2.6811,-2.7414,-2.773,-2.763,-2.7216,-2.7167,-2.7445,-2.7154,-2.7132,-2.7246,-2.6968,-2.6763,-2.6751,-2.6587,-2.6487,-2.6487,-2.6487,-2.6487,-2.6487,-2.6487,-2.6487,-2.6487,-2.6487,-2.6487,-2.6562,-2.7014,-2.7607,-2.8373,-2.9264,-2.9779,-2.9779,-2.9779,-2.9779,-2.9779,-2.9779,-2.9779,-2.9779,-2.9779,-2.9779,-2.9779,-2.9779,-2.9779,-2.9779,-2.9779,-2.9779,-2.9779,-2.9779,-2.9779,-2.9779,-2.9779,-2.9779,-2.9779,-2.9779,-2.9779,-2.9779,-2.9779,-2.9779,-2.9779,-2.9779,-2.9779,-2.9779,-2.9779,-2.9779,-2.9818,-2.9972,-3.0152,-3.0355,-3.0571,-3.0723,-3.0911,-3.0949,-3.0949,-3.0986,-3.1024,-3.1024,-3.1024,-3.1024,-3.1024,-3.1024,-3.1024,-3.1024,-3.1024,-3.1024,-3.1024,-3.1024,-3.1024,-3.1024,-3.1024,-3.1024,-3.1024,-3.1793,-3.1697,-3.0481,-2.9533,-2.8709,-2.7009,-2.5859,-2.524,-2.4683,-2.4507,-2.4507,-2.4507,-2.4507,-2.4507,-2.4507,-2.4507,-2.4507,-2.4583,-2.4658,-2.47,-2.5379,-2.5746,-2.5902,-2.7435,-2.8024,-2.7705,-2.7953,-2.8233,-2.8339,-2.8093,-2.8236,-2.8708,-2.8212,-2.8089,-2.8626,-2.7733,-2.7304,-2.7178,-2.6801,-2.6537,-2.6487,-2.6487,-2.6487,-2.6487,-2.6487,-2.6487,-2.6487,-2.6487,-2.6487,-2.6549,-2.7065,-2.7808,-2.8825,-2.949,-2.9779,-2.9779,-2.9779,-2.9779,-2.9779,-2.9779,-2.9779,-2.9779,-2.9779,-2.9779,-2.9779,-2.9779,-2.9779,-2.9779,-2.9779,-2.9779,-2.9779,-2.9779,-2.9779,-2.9779,-2.9779,-2.9779,-2.9779,-2.9779,-2.9779,-2.9779,-2.9779,-2.9779,-2.9779,-2.9779,-2.9779,-2.9779,-2.9779,-2.9779,-2.9818,-3.0011,-3.019,-3.0368,-3.0609,-3.0836,-3.0949,-3.1024,-3.0986,-3.1024,-3.1024,-3.1024,-3.1024,-3.1024,-3.1024,-3.1024,-3.1024,-3.1024,-3.1024,-3.1024,-3.1024,-3.1024,-3.1024,-3.1024,-3.1024,-3.1024,-3.1024,-3.195,-3.1925,-3.1192,-3.0575,-2.9904,-2.793,-2.6715,-2.612,-2.5027,-2.4507,-2.4507,-2.4507,-2.4507,-2.4507,-2.4507,-2.4497,-2.454,-2.5094,-2.5421,-2.5474,-2.5704,-2.6152,-2.6864,-2.7919,-2.8745,-2.9005,-2.8775,-2.8736,-2.8821,-2.8408,-2.8424,-2.8785,-2.8413,-2.8328,-2.8692,-2.8151,-2.7695,-2.7329,-2.7153,-2.6901,-2.6537,-2.6487,-2.6487,-2.6487,-2.6487,-2.6487,-2.6487,-2.6487,-2.6487,-2.6524,-2.7392,-2.836,-2.9315,-2.9691,-2.9779,-2.9779,-2.9779,-2.9779,-2.9779,-2.9779,-2.9779,-2.9779,-2.9779,-2.9779,-2.9779,-2.9779,-2.9779,-2.9779,-2.9779,-2.9779,-2.9779,-2.9779,-2.9779,-2.9779,-2.9779,-2.9779,-2.9779,-2.9779,-2.9779,-2.9779,-2.9779,-2.9779,-2.9779,-2.9779,-2.9779,-2.9779,-2.9779,-2.9779,-2.983,-3.0088,-3.0305,-3.0406,-3.0685,-3.0911,-3.0949,-3.1024,-3.1024,-3.1024,-3.1024,-3.1024,-3.1024,-3.1024,-3.1024,-3.1024,-3.1024,-3.1024,-3.1024,-3.1024,-3.1024,-3.1024,-3.1024,-3.1024,-3.1024,-3.1024,-3.1024,-3.2213,-3.2201,-3.1957,-3.1488,-3.0755,-2.8802,-2.775,-2.7167,-2.5338,-2.4871,-2.5274,-2.4786,-2.4914,-2.5274,-2.5147,-2.5189,-2.5474,-2.6038,-2.6483,-2.6771,-2.6812,-2.7151,-2.773,-2.8542,-2.9209,-2.9651,-2.9428,-2.9391,-2.9617,-2.9125,-2.917,-2.9574,-2.912,-2.9035,-2.9206,-2.872,-2.8222,-2.7896,-2.7494,-2.7153,-2.6826,-2.66,-2.6587,-2.6763,-2.6801,-2.6914,-2.7077,-2.7067,-2.7002,-2.7027,-2.7808,-2.8837,-2.9691,-2.9779,-2.9779,-2.9779,-2.9779,-2.9779,-2.9779,-2.9779,-2.9779,-2.9779,-2.9779,-2.9779,-2.9779,-2.9779,-2.9779,-2.9779,-2.9779,-2.9779,-2.9779,-2.9779,-2.9779,-2.9779,-2.9779,-2.9779,-2.9779,-2.9779,-2.9779,-2.9779,-2.9779,-2.9779,-2.9779,-2.9779,-2.9779,-2.9779,-2.9779,-2.9779,-2.9856,-3.0139,-3.0292,-3.0482,-3.0723,-3.0911,-3.0986,-3.1024,-3.1024,-3.1024,-3.1024,-3.1024,-3.1024,-3.1024,-3.1024,-3.1024,-3.1024,-3.1024,-3.1024,-3.1024,-3.1024,-3.1024,-3.1024,-3.1024,-3.1024,-3.1024,-3.1024,-3.2519,-3.2723,-3.2723,-3.2295,-3.15,-2.9604,-2.8677,-2.8214,-2.5905,-2.5486,-2.631,-2.5432,-2.5589,-2.6618,-2.6163,-2.6246,-2.6987,-2.7151,-2.7557,-2.8131,-2.8383,-2.8502,-2.8673,-2.9339,-2.9663,-2.9779,-2.9793,-2.996,-3.0228,-3.0063,-3.0406,-3.073,-3.0202,-3.0139,-3.0062,-2.9378,-2.8888,-2.8662,-2.7896,-2.7469,-2.7354,-2.6927,-2.6864,-2.7306,-2.7344,-2.7519,-2.7858,-2.7996,-2.7871,-2.7582,-2.8373,-2.9126,-2.9654,-2.9779,-2.9779,-2.9779,-2.9779,-2.9779,-2.9779,-2.9779,-2.9779,-2.9779,-2.9779,-2.9779,-2.9779,-2.9779,-2.9779,-2.9779,-2.9779,-2.9779,-2.9779,-2.9779,-2.9779,-2.9779,-2.9779,-2.9779,-2.9779,-2.9779,-2.9779,-2.9779,-2.9779,-2.9779,-2.9779,-2.9779,-2.9779,-2.9779,-2.9779,-2.9779,-2.9895,-3.0139,-3.0317,-3.0558,-3.0785,-3.0911,-3.1024,-3.1024,-3.1024,-3.1024,-3.1024,-3.1024,-3.1024,-3.1024,-3.1024,-3.1024,-3.1024,-3.1024,-3.1024,-3.1024,-3.1024,-3.1024,-3.1024,-3.1024,-3.1024,-3.1024,-3.1024,-3.2624,-3.2711,-3.2896,-3.2896,-3.2395,-3.0304,-2.9095,-2.8597,-2.6831,-2.6104,-2.6229,-2.637,-2.6618,-2.7058,-2.6894,-2.6894,-2.7313,-2.7851,-2.8223,-2.8581,-2.9209,-2.9417,-2.9456,-2.9663,-2.9792,-2.983,-2.9934,-3.0139,-3.0368,-3.033,-3.0571,-3.0949,-3.0419,-3.0177,-3.0254,-2.9795,-2.9327,-2.8938,-2.8662,-2.826,-2.7908,-2.7733,-2.7733,-2.7858,-2.7883,-2.7971,-2.8147,-2.8511,-2.8662,-2.8499,-2.8687,-2.9189,-2.9729,-2.9779,-2.9779,-2.9779,-2.9779,-2.9779,-2.9779,-2.9779,-2.9779,-2.9779,-2.9779,-2.9779,-2.9779,-2.9779,-2.9779,-2.9779,-2.9779,-2.9779,-2.9779,-2.9779,-2.9779,-2.9779,-2.9779,-2.9779,-2.9779,-2.9779,-2.9779,-2.9779,-2.9779,-2.9779,-2.9779,-2.9779,-2.9779,-2.9779,-2.9818,-2.9856,-2.9998,-3.0228,-3.0482,-3.0634,-3.0836,-3.0949,-3.1024,-3.1024,-3.1024,-3.1024,-3.1024,-3.1024,-3.1024,-3.1024,-3.1024,-3.1024,-3.1024,-3.1024,-3.1024,-3.1024,-3.1024,-3.1024,-3.1024,-3.1024,-3.1024,-3.1024,-3.1024,-3.2853,-3.2896,-3.3025,-3.3124,-3.2864,-3.0961,-2.9993,-2.9557,-2.7957,-2.7288,-2.7394,-2.7151,-2.7516,-2.8183,-2.7839,-2.7931,-2.8291,-2.8791,-2.904,-2.9118,-2.9534,-2.974,-2.9779,-2.9779,-2.983,-2.9946,-3.0049,-3.0279,-3.0495,-3.0533,-3.0685,-3.0761,-3.0444,-3.0267,-3.0228,-2.996,-2.9654,-2.9302,-2.9051,-2.8712,-2.8449,-2.8222,-2.826,-2.8373,-2.8461,-2.8524,-2.8812,-2.9126,-2.9289,-2.9289,-2.9315,-2.9453,-2.9729,-2.9779,-2.9779,-2.9779,-2.9779,-2.9779,-2.9779,-2.9779,-2.9779,-2.9779,-2.9779,-2.9779,-2.9779,-2.9779,-2.9779,-2.9779,-2.9779,-2.9779,-2.9779,-2.9779,-2.9779,-2.9779,-2.9779,-2.9779,-2.9779,-2.9779,-2.9779,-2.9779,-2.9779,-2.9792,-2.9779,-2.9779,-2.9779,-2.9818,-2.9895,-2.996,-3.0075,-3.0343,-3.0571,-3.0723,-3.0836,-3.0949,-3.1024,-3.1024,-3.1024,-3.1024,-3.1024,-3.1024,-3.1024,-3.1024,-3.1024,-3.1024,-3.1024,-3.1024,-3.1024,-3.1024,-3.1024,-3.1024,-3.1024,-3.1024,-3.1024,-3.1024,-3.1024,-3.3124,-3.3124,-3.3124,-3.3124,-3.2907,-3.1608,-3.0955,-3.0774,-2.9082,-2.8673,-2.898,-2.7971,-2.8395,-2.9753,-2.887,-2.904,-2.9702,-2.9624,-2.9663,-2.9702,-2.9779,-2.9779,-2.9779,-2.9779,-2.9908,-3.0049,-3.0126,-3.0343,-3.0609,-3.0698,-3.0736,-3.0723,-3.052,-3.0292,-3.019,-2.9934,-2.9779,-2.9666,-2.9315,-2.9076,-2.8938,-2.8699,-2.8687,-2.8963,-2.9026,-2.9227,-2.9541,-2.9729,-2.9729,-2.9767,-2.9779,-2.9754,-2.9779,-2.9779,-2.9779,-2.9779,-2.9779,-2.9779,-2.9779,-2.9779,-2.9779,-2.9779,-2.9779,-2.9779,-2.9779,-2.9779,-2.9779,-2.9779,-2.9779,-2.9779,-2.9779,-2.9779,-2.983,-2.983,-2.9818,-2.9792,-2.983,-2.9818,-2.9792,-2.983,-2.9818,-2.9792,-2.983,-2.9818,-2.983,-2.9934,-3.0011,-3.019,-3.0305,-3.0508,-3.066,-3.0761,-3.0874,-3.0986,-3.1024,-3.1024,-3.1024,-3.1024,-3.1024,-3.1024,-3.1024,-3.1024,-3.1024,-3.1024,-3.1024,-3.1024,-3.1024,-3.1024,-3.1024,-3.1024,-3.1024,-3.1024,-3.1024,-3.1024,-3.1024,-3.3124,-3.3124,-3.3124,-3.3124,-3.2927,-3.1942,-3.1033,-3.0372,-2.9834,-2.928,-2.8949,-2.9052,-2.9378,-2.9804,-2.9534,-2.9663,-2.9792,-2.9779,-2.9779,-2.9779,-2.9779,-2.9792,-2.9792,-2.9818,-2.9946,-3.0126,-3.0267,-3.0457,-3.0698,-3.0849,-3.0911,-3.0874,-3.0558,-3.0368,-3.0254,-2.9972,-2.9779,-2.9767,-2.9628,-2.9566,-2.9541,-2.9428,-2.9377,-2.9553,-2.9553,-2.9628,-2.9741,-2.9779,-2.9779,-2.9779,-2.9779,-2.9779,-2.9779,-2.9779,-2.9779,-2.9779,-2.9779,-2.9779,-2.9779,-2.9779,-2.9779,-2.9779,-2.9779,-2.9779,-2.9779,-2.9779,-2.9779,-2.9779,-2.9779,-2.9818,-2.983,-2.9792,-2.9869,-2.9946,-2.9908,-2.9869,-2.9972,-2.9908,-2.9869,-2.9946,-2.9908,-2.9869,-3.0011,-3.0011,-3.0049,-3.0088,-3.0203,-3.0381,-3.0546,-3.0622,-3.0773,-3.0887,-3.0911,-3.1024,-3.1024,-3.1024,-3.1024,-3.1024,-3.1024,-3.1024,-3.1024,-3.1024,-3.1024,-3.1024,-3.1024,-3.1024,-3.1024,-3.1024,-3.1024,-3.1024,-3.1024,-3.1024,-3.1024,-3.1024,-3.1024,-3.3124,-3.3124,-3.3124,-3.3124,-3.2988,-3.2228,-3.1436,-3.0736,-3.0392,-2.9852,-2.9293,-2.9624,-2.9779,-2.9779,-2.9779,-2.9779,-2.9779,-2.9779,-2.9779,-2.9779,-2.9779,-2.9869,-2.9946,-2.9972,-3.0049,-3.0228,-3.033,-3.0571,-3.0798,-3.0911,-3.0949,-3.0836,-3.0571,-3.033,-3.0216,-2.9972,-2.9818,-2.9779,-2.9779,-2.9779,-2.9779,-2.9779,-2.9779,-2.9779,-2.9779,-2.9779,-2.9779,-2.9779,-2.9779,-2.9779,-2.9779,-2.9779,-2.9779,-2.9779,-2.9779,-2.9779,-2.9779,-2.9779,-2.9779,-2.9779,-2.9779,-2.9779,-2.9779,-2.9779,-2.9779,-2.9779,-2.9779,-2.983,-2.9869,-2.9946,-2.9946,-2.983,-2.9895,-3.0011,-2.9934,-2.9946,-3.0126,-3.0088,-2.9972,-3.0049,-3.0011,-3.0075,-3.0152,-3.019,-3.0228,-3.0241,-3.0432,-3.0584,-3.0609,-3.0736,-3.0887,-3.0949,-3.0986,-3.1024,-3.1024,-3.1024,-3.1024,-3.1024,-3.1024,-3.1024,-3.1024,-3.1024,-3.1024,-3.1024,-3.1024,-3.1024,-3.1024,-3.1024,-3.1024,-3.1024,-3.1024,-3.1024,-3.1024,-3.1024,-3.1024,-3.3124,-3.3124,-3.3124,-3.3124,-3.298,-3.2423,-3.1872,-3.132,-3.0834,-3.0226,-2.9854,-2.9779,-2.9779,-2.9779,-2.9779,-2.9779,-2.9779,-2.9779,-2.9779,-2.9779,-2.9869,-2.9946,-3.0049,-3.0113,-3.0267,-3.0406,-3.0482,-3.0685,-3.0911,-3.0986,-3.0911,-3.0723,-3.0558,-3.0343,-3.0126,-2.9934,-2.983,-2.9792,-2.9779,-2.9779,-2.9779,-2.9779,-2.9779,-2.9779,-2.9779,-2.9779,-2.9779,-2.9779,-2.9779,-2.9779,-2.9779,-2.9779,-2.9779,-2.9779,-2.9779,-2.9779,-2.9779,-2.9779,-2.9779,-2.9779,-2.9779,-2.9779,-2.9779,-2.9779,-2.9779,-2.9779,-2.983,-2.9934,-2.9998,-3.0152,-3.0152,-3.0049,-3.0049,-3.0126,-3.0011,-3.0075,-3.0305,-3.0267,-3.0241,-3.0228,-3.019,-3.0254,-3.0305,-3.0381,-3.0381,-3.0419,-3.0622,-3.0773,-3.0811,-3.0849,-3.0949,-3.0986,-3.0986,-3.1024,-3.1024,-3.0949,-3.0949,-3.0748,-3.0785,-3.0785,-3.0785,-3.0672,-3.0659,-3.0949,-3.1024,-3.1024,-3.1024,-3.1024,-3.1024,-3.1024,-3.1024,-3.1024,-3.1024,-3.1024,-3.1024,-3.3124,-3.3124,-3.3124,-3.3124,-3.2993,-3.2453,-3.1876,-3.1361,-3.0821,-3.0306,-2.9829,-2.9779,-2.9779,-2.9779,-2.9779,-2.9779,-2.9779,-2.9779,-2.9792,-2.9869,-2.9946,-3.0088,-3.0152,-3.0292,-3.0444,-3.0609,-3.066,-3.0798,-3.0949,-3.0986,-3.0874,-3.0736,-3.066,-3.047,-3.0203,-3.0049,-2.9934,-2.983,-2.9779,-2.9779,-2.9779,-2.9779,-2.9779,-2.9779,-2.9779,-2.9779,-2.9779,-2.9779,-2.9779,-2.9779,-2.9779,-2.9779,-2.9779,-2.9779,-2.9779,-2.9779,-2.9779,-2.9779,-2.9779,-2.9779,-2.9779,-2.9779,-2.9779,-2.9779,-2.9779,-2.9779,-2.9869,-3.0049,-3.019,-3.033,-3.0368,-3.0267,-3.0381,-3.0457,-3.0419,-3.0381,-3.0571,-3.0584,-3.0584,-3.0533,-3.0495,-3.0406,-3.0495,-3.0571,-3.0571,-3.0609,-3.0761,-3.0874,-3.0911,-3.0949,-3.0986,-3.0986,-3.1024,-3.1024,-3.1024,-3.0911,-3.0823,-3.0394,-3.0305,-3.0305,-3.0266,-3.019,-3.0266,-3.0785,-3.0986,-3.1024,-3.1024,-3.1024,-3.1024,-3.1024,-3.1024,-3.1024,-3.1024,-3.1024,-3.1024,-3.3124,-3.3124,-3.3124,-3.3124,-3.2973,-3.2139,-3.1637,-3.1286,-3.0557,-3.0043,-2.9854,-2.9779,-2.9779,-2.9779,-2.9779,-2.9779,-2.9792,-2.9779,-2.9869,-2.9934,-3.0049,-3.0228,-3.0381,-3.0495,-3.0685,-3.0811,-3.0887,-3.0874,-3.0986,-3.1024,-3.0874,-3.0736,-3.0698,-3.0508,-3.019,-3.0075,-2.9972,-2.9818,-2.9779,-2.9779,-2.9779,-2.9779,-2.9779,-2.9779,-2.9779,-2.9779,-2.9779,-2.9779,-2.9779,-2.9779,-2.9779,-2.9779,-2.9779,-2.9779,-2.9779,-2.9779,-2.9779,-2.9779,-2.9779,-2.9779,-2.9779,-2.9779,-2.9779,-2.9779,-2.9779,-2.9818,-2.9934,-3.019,-3.0305,-3.0444,-3.0533,-3.0444,-3.052,-3.0609,-3.0533,-3.0609,-3.0723,-3.0736,-3.0773,-3.0811,-3.0685,-3.0647,-3.0761,-3.0811,-3.0773,-3.0849,-3.0911,-3.0986,-3.0986,-3.1024,-3.1024,-3.1024,-3.0986,-3.0911,-3.0823,-3.0672,-3.0508,-3.0114,-2.9845,-2.9845,-3.0037,-3.0075,-3.0432,-3.0911,-3.0986,-3.1024,-3.1024,-3.1024,-3.1024,-3.1024,-3.1024,-3.1024,-3.1024,-3.1024,-3.1024,-3.3124,-3.3124,-3.3124,-3.3124,-3.2948,-3.1876,-3.1399,-3.1173,-3.0256,-2.9817,-2.9779,-2.9779,-2.9779,-2.9779,-2.9818,-2.9856,-2.983,-2.983,-2.9972,-3.0075,-3.0152,-3.0343,-3.0622,-3.0773,-3.0849,-3.0949,-3.0986,-3.1024,-3.0986,-3.1024,-3.0874,-3.0773,-3.0736,-3.0546,-3.019,-3.0139,-3.0011,-2.9869,-2.9779,-2.9779,-2.9779,-2.9779,-2.9779,-2.9779,-2.9779,-2.9779,-2.9779,-2.9779,-2.9779,-2.9779,-2.9779,-2.9779,-2.9779,-2.9779,-2.9779,-2.9779,-2.9779,-2.9779,-2.9779,-2.9779,-2.9779,-2.9779,-2.9779,-2.9818,-2.9908,-3.0011,-3.0152,-3.0368,-3.052,-3.0609,-3.0736,-3.0609,-3.0647,-3.0685,-3.0685,-3.0647,-3.0836,-3.0874,-3.0874,-3.0887,-3.0811,-3.0849,-3.0911,-3.0911,-3.0874,-3.0874,-3.0986,-3.0986,-3.1024,-3.1024,-3.1024,-3.1024,-3.0986,-3.0874,-3.0672,-3.0317,-3.0075,-2.9716,-2.9457,-2.938,-2.9767,-3.0165,-3.052,-3.0785,-3.0986,-3.1024,-3.1024,-3.1024,-3.1024,-3.1024,-3.1024,-3.1024,-3.1024,-3.1024,-3.1024,-3.3124,-3.3124,-3.3111,-3.3124,-3.2935,-3.1838,-3.1373,-3.121,-3.0231,-2.9792,-2.9779,-2.9779,-2.9779,-2.983,-2.9972,-2.9934,-2.9895,-2.9972,-3.0088,-3.019,-3.0292,-3.0457,-3.0698,-3.0911,-3.0949,-3.1024,-3.1024,-3.1024,-3.1024,-3.1024,-3.0874,-3.0773,-3.0798,-3.0685,-3.0152,-3.0254,-3.0139,-2.9856,-2.9779,-2.9779,-2.9779,-2.9779,-2.9779,-2.9779,-2.9779,-2.9779,-2.9779,-2.9779,-2.9779,-2.9779,-2.9779,-2.9779,-2.9779,-2.9779,-2.9779,-2.9779,-2.9779,-2.9779,-2.9779,-2.9779,-2.9779,-2.9779,-2.9818,-2.9895,-3.0088,-3.0356,-3.0546,-3.0622,-3.0798,-3.0874,-3.0911,-3.0911,-3.0949,-3.0911,-3.0874,-3.0874,-3.0986,-3.0949,-3.0949,-3.0949,-3.0911,-3.0949,-3.0986,-3.0986,-3.0986,-3.0986,-3.1024,-3.1024,-3.1024,-3.1024,-3.0823,-3.0748,-3.0672,-3.0558,-3.0126,-2.9845,-2.9574,-2.925,-2.9106,-2.8961,-2.9457,-2.9922,-3.0241,-3.0508,-3.0748,-3.0986,-3.1024,-3.1024,-3.1024,-3.1024,-3.1024,-3.1024,-3.1024,-3.0986,-3.0874,-3.3124,-3.3099,-3.2729,-3.2591,-3.2441,-3.1411,-3.0959,-3.0796,-3.0143,-2.9779,-2.9779,-2.9779,-2.9779,-2.9869,-3.0011,-3.0049,-3.0011,-3.0075,-3.0228,-3.0343,-3.0444,-3.0596,-3.0836,-3.0949,-3.1024,-3.1024,-3.1024,-3.1024,-3.1024,-3.0986,-3.0874,-3.0773,-3.0874,-3.0685,-3.019,-3.0305,-3.0152,-2.9895,-2.9779,-2.9779,-2.9779,-2.9779,-2.9779,-2.9779,-2.9779,-2.9779,-2.9779,-2.9779,-2.9779,-2.9779,-2.9779,-2.9779,-2.9779,-2.9779,-2.9779,-2.9779,-2.9779,-2.9779,-2.9779,-2.9779,-2.9779,-2.9818,-2.9895,-3.0049,-3.0267,-3.0533,-3.0698,-3.0698,-3.0874,-3.0986,-3.1024,-3.1024,-3.1024,-3.1024,-3.1024,-3.1024,-3.1024,-3.1024,-3.0986,-3.0986,-3.1024,-3.1024,-3.1024,-3.0986,-3.0986,-3.0986,-3.1024,-3.1024,-3.1024,-3.1024,-3.071,-3.0355,-3.0279,-3.0165,-2.9574,-2.9133,-2.887,-2.8633,-2.8593,-2.8645,-2.9133,-2.9561,-2.9845,-3.019,-3.047,-3.0672,-3.0911,-3.0986,-3.0986,-3.0986,-3.1024,-3.0861,-3.0659,-3.0508,-3.0432,-3.2855,-3.2805,-3.239,-3.2127,-3.1913,-3.0997,-3.0633,-3.0557,-3.0043,-2.9779,-2.983,-2.9869,-2.9869,-2.9946,-3.0126,-3.0241,-3.0177,-3.0241,-3.0419,-3.0533,-3.0609,-3.0723,-3.0911,-3.1024,-3.1024,-3.1024,-3.1024,-3.1024,-3.1024,-3.0986,-3.0911,-3.0773,-3.0949,-3.0685,-3.0381,-3.0305,-3.0228,-2.9818,-2.9779,-2.9779,-2.9779,-2.9779,-2.9779,-2.9779,-2.9779,-2.9779,-2.9779,-2.9779,-2.9779,-2.9779,-2.9779,-2.9779,-2.9779,-2.9779,-2.9779,-2.9779,-2.9779,-2.9779,-2.9779,-2.9779,-2.9779,-2.9856,-3.0037,-3.0267,-3.0457,-3.0647,-3.0773,-3.0811,-3.0911,-3.0986,-3.1024,-3.1024,-3.1024,-3.1024,-3.1024,-3.1024,-3.1024,-3.1024,-3.1024,-3.1024,-3.1024,-3.1024,-3.1024,-3.1024,-3.1024,-3.1024,-3.1024,-3.0986,-3.0949,-3.0861,-3.0508,-3.0075,-2.9806,-2.9574,-2.9028,-2.8514,-2.8259,-2.8099,-2.8059,-2.8355,-2.8897,-2.9133,-2.9341,-2.969,-3.0152,-3.0545,-3.0874,-3.0911,-3.0949,-3.071,-3.0508,-3.0381,-3.0266,-3.0152,-3.0241,-3.2265,-3.2265,-3.2215,-3.1876,-3.1399,-3.0819,-3.0595,-3.0507,-3.0005,-2.9792,-2.983,-2.996,-3.0037,-3.0152,-3.0394,-3.0495,-3.0406,-3.0571,-3.0647,-3.0698,-3.0698,-3.0798,-3.0949,-3.1024,-3.1024,-3.1024,-3.1024,-3.1024,-3.1024,-3.1024,-3.0986,-3.0973,-3.0986,-3.0748,-3.047,-3.033,-3.0152,-2.9856,-2.9779,-2.9779,-2.9779,-2.9779,-2.9779,-2.9779,-2.9779,-2.9779,-2.9779,-2.9779,-2.9779,-2.9779,-2.9779,-2.9779,-2.9779,-2.9779,-2.9779,-2.9779,-2.9779,-2.9779,-2.9779,-2.9779,-2.9792,-2.9895,-3.0152,-3.0457,-3.0647,-3.0874,-3.0949,-3.0949,-3.0986,-3.0986,-3.1024,-3.1024,-3.1024,-3.1024,-3.1024,-3.1024,-3.1024,-3.1024,-3.1024,-3.1024,-3.1024,-3.1024,-3.1024,-3.1024,-3.1024,-3.1024,-3.0986,-3.0986,-3.0659,-3.0508,-3.0152,-2.9755,-2.9367,-2.8976,-2.8407,-2.8059,-2.7938,-2.7777,-2.7696,-2.8195,-2.8806,-2.8937,-2.8922,-2.9419,-2.9922,-3.0355,-3.0672,-3.052,-3.0317,-3.0152,-3.0024,-3.0114,-3.0228,-3.0228,-3.0432,-3.1825,-3.1235,-3.1235,-3.111,-3.0871,-3.0331,-3.0118,-3.0093,-2.988,-2.9779,-2.983,-3.0011,-3.0113,-3.0228,-3.0508,-3.066,-3.0609,-3.0647,-3.0773,-3.0811,-3.0811,-3.0836,-3.0949,-3.1024,-3.1024,-3.1024,-3.1024,-3.1024,-3.1024,-3.1024,-3.1024,-3.1024,-3.0986,-3.0748,-3.052,-3.0292,-3.0049,-2.9895,-2.9779,-2.9779,-2.9779,-2.9779,-2.9779,-2.9779,-2.9779,-2.9779,-2.9779,-2.9779,-2.9779,-2.9779,-2.9779,-2.9779,-2.9779,-2.9779,-2.9779,-2.9779,-2.9779,-2.9779,-2.9792,-2.983,-2.9908,-3.019,-3.0419,-3.0647,-3.0849,-3.0949,-3.0986,-3.0986,-3.1024,-3.1024,-3.1024,-3.1024,-3.1024,-3.1024,-3.1024,-3.1024,-3.1024,-3.1024,-3.1024,-3.1024,-3.1024,-3.1024,-3.1024,-3.1024,-3.1024,-3.0986,-3.0986,-3.0874,-3.0508,-3.0037,-2.9651,-2.9223,-2.8779,-2.8383,-2.7857,-2.7696,-2.7615,-2.7493,-2.7383,-2.7846,-2.8395,-2.8474,-2.8566,-2.9106,-2.9484,-2.9678,-2.9806,-2.9806,-2.9806,-2.9806,-2.9909,-3.0024,-3.0152,-3.0228,-3.0394,-3.1298,-3.062,-3.0444,-3.0369,-3.0306,-2.9955,-2.9779,-2.9779,-2.9792,-2.9779,-2.983,-2.9998,-3.0152,-3.0267,-3.0546,-3.0773,-3.0773,-3.0811,-3.0874,-3.0911,-3.0874,-3.0874,-3.0949,-3.1024,-3.1024,-3.1024,-3.1024,-3.1024,-3.1024,-3.1024,-3.0949,-3.0911,-3.0949,-3.0785,-3.0533,-3.0228,-3.0011,-2.9869,-2.9779,-2.9779,-2.9779,-2.9779,-2.9779,-2.9779,-2.9779,-2.9779,-2.9779,-2.9779,-2.9779,-2.9779,-2.9779,-2.9779,-2.9779,-2.9779,-2.9779,-2.9779,-2.9779,-2.9779,-2.9792,-2.9908,-3.0088,-3.0419,-3.0584,-3.0773,-3.0949,-3.1024,-3.1024,-3.1024,-3.1024,-3.1024,-3.1024,-3.1024,-3.1024,-3.1024,-3.1024,-3.1024,-3.1024,-3.1024,-3.1024,-3.1024,-3.1024,-3.1024,-3.1024,-3.0986,-3.0986,-3.0861,-3.0583,-3.0432,-3.0152,-2.9651,-2.8988,-2.8566,-2.8127,-2.7696,-2.7301,-2.7383,-2.7423,-2.7383,-2.7301,-2.7423,-2.7777,-2.7909,-2.8179,-2.8605,-2.887,-2.8937,-2.9121,-2.9355,-2.9523,-2.9651,-2.9678,-2.9716,-2.9755,-2.9845,-3.0037,-3.0645,-3.0545,-3.0055,-2.9829,-2.9854,-2.9804,-2.9779,-2.9779,-2.9779,-2.9779,-2.9818,-2.9998,-3.0228,-3.0368,-3.0609,-3.0811,-3.0911,-3.0949,-3.0986,-3.0986,-3.0986,-3.0986,-3.0986,-3.1024,-3.1024,-3.1024,-3.1024,-3.1024,-3.1024,-3.1024,-3.0911,-3.0849,-3.0911,-3.0861,-3.066,-3.0279,-3.0011,-2.983,-2.9779,-2.9779,-2.9779,-2.9779,-2.9779,-2.9779,-2.9779,-2.9779,-2.9779,-2.9779,-2.9779,-2.9779,-2.9779,-2.9779,-2.9779,-2.9779,-2.9779,-2.9779,-2.9779,-2.9779,-2.9818,-3.0011,-3.0318,-3.0622,-3.0698,-3.0849,-3.0949,-3.1024,-3.1024,-3.1024,-3.1024,-3.1024,-3.1024,-3.1024,-3.1024,-3.1024,-3.1024,-3.1024,-3.1024,-3.1024,-3.1024,-3.1024,-3.1024,-3.1024,-3.1024,-3.0986,-3.0936,-3.0748,-3.0305,-3.0037,-2.9793,-2.9263,-2.8566,-2.8087,-2.7655,-2.7505,-2.7219,-2.7231,-2.7231,-2.719,-2.7231,-2.7353,-2.7423,-2.7626,-2.7898,-2.8167,-2.8367,-2.8514,-2.8779,-2.9081,-2.916,-2.9289,-2.925,-2.9277,-2.9367,-2.9639,-3.0075,-3.0407,-3.0055,-2.9867,-2.9779,-2.9779,-2.9779,-2.9779,-2.9779,-2.9779,-2.9779,-2.9856,-3.0152,-3.033,-3.0482,-3.0723,-3.0911,-3.0986,-3.1024,-3.1024,-3.1024,-3.1024,-3.1024,-3.1024,-3.1024,-3.1024,-3.1024,-3.1024,-3.1024,-3.1024,-3.1024,-3.0986,-3.0949,-3.0911,-3.0798,-3.0533,-3.0228,-3.0011,-2.9818,-2.9779,-2.9779,-2.9779,-2.9779,-2.9779,-2.9779,-2.9779,-2.9779,-2.9779,-2.9779,-2.9779,-2.9779,-2.9779,-2.9779,-2.9779,-2.9779,-2.9779,-2.9779,-2.9779,-2.9934,-3.0164,-3.0381,-3.0533,-3.0698,-3.0811,-3.0911,-3.0986,-3.1024,-3.1024,-3.1024,-3.1024,-3.1024,-3.1024,-3.1024,-3.1024,-3.1024,-3.1024,-3.1024,-3.1024,-3.1024,-3.1024,-3.1024,-3.1024,-3.1024,-3.1024,-3.0949,-3.0861,-3.0583,-3.0152,-2.9678,-2.9367,-2.8791,-2.8179,-2.7696,-2.7342,-2.7272,-2.719,-2.719,-2.719,-2.719,-2.719,-2.7231,-2.7353,-2.7423,-2.7545,-2.7777,-2.7978,-2.8167,-2.8315,-2.8502,-2.8779,-2.8897,-2.8937,-2.925,-2.9639,-3.0075,-3.0621,-3.0131,-2.9804,-2.9779,-2.9779,-2.9779,-2.9779,-2.9779,-2.9779,-2.9779,-2.9779,-2.9856,-3.0088,-3.0292,-3.0444,-3.0647,-3.0949,-3.0986,-3.1024,-3.1024,-3.1024,-3.1024,-3.1024,-3.1024,-3.1024,-3.1024,-3.1024,-3.1024,-3.1024,-3.1024,-3.1024,-3.0986,-3.0949,-3.0861,-3.0647,-3.0419,-3.0267,-3.0088,-2.9895,-2.9779,-2.9779,-2.9779,-2.9779,-2.9779,-2.9779,-2.9779,-2.9779,-2.9779,-2.9779,-2.9779,-2.9779,-2.9779,-2.9779,-2.9779,-2.9779,-2.9779,-2.9779,-2.9818,-3.0011,-3.0305,-3.0444,-3.0609,-3.0798,-3.0949,-3.0986,-3.1024,-3.1024,-3.1024,-3.1024,-3.1024,-3.1024,-3.1024,-3.1024,-3.1024,-3.1024,-3.1024,-3.1024,-3.1024,-3.1024,-3.1024,-3.1024,-3.1024,-3.1024,-3.0986,-3.0911,-3.0836,-3.0432,-2.9999,-2.9484,-2.8988,-2.8407,-2.7909,-2.7505,-2.7231,-2.7231,-2.719,-2.719,-2.719,-2.719,-2.719,-2.719,-2.7231,-2.7353,-2.7353,-2.7353,-2.7545,-2.7696,-2.7736,-2.7898,-2.8195,-2.8474,-2.8633,-2.9133,-2.9832,-3.0152,-3.0381,-2.9792,-2.9779,-2.9779,-2.9779,-2.9779,-2.9779,-2.9779,-2.9779,-2.9779,-2.9779,-2.9779,-2.983,-3.0075,-3.0355,-3.0444,-3.0672,-3.0936,-3.0986,-3.1024,-3.1024,-3.1024,-3.1024,-3.1024,-3.1024,-3.1024,-3.1024,-3.1024,-3.1024,-3.0986,-3.0949,-3.0949,-3.0949,-3.071,-3.052,-3.0406,-3.033,-3.0152,-2.9895,-2.9779,-2.9779,-2.9779,-2.9779,-2.9779,-2.9779,-2.9779,-2.9779,-2.9779,-2.9779,-2.9779,-2.9779,-2.9779,-2.9779,-2.9779,-2.9779,-2.9779,-2.9779,-2.9779,-3.0113,-3.033,-3.0444,-3.0672,-3.0898,-3.0986,-3.1024,-3.1024,-3.1024,-3.1024,-3.1024,-3.1024,-3.1024,-3.1024,-3.1024,-3.1024,-3.1024,-3.1024,-3.1024,-3.1024,-3.1024,-3.1024,-3.1024,-3.1024,-3.1024,-3.1024,-3.0911,-3.0748,-3.0228,-2.9755,-2.9223,-2.8673,-2.8127,-2.7667,-2.7383,-2.7231,-2.726,-2.726,-2.7313,-2.7423,-2.7505,-2.7231,-2.719,-2.7231,-2.7272,-2.7272,-2.7272,-2.7231,-2.7313,-2.7464,-2.7545,-2.7615,-2.7898,-2.8287,-2.8593,-2.9184,-2.9094,-2.925,-2.9779,-2.9779,-2.9779,-2.9779,-2.9779,-2.9779,-2.9779,-2.9779,-2.9779,-2.9779,-2.983,-2.9946,-3.0113,-3.0406,-3.0571,-3.0761,-3.0911,-3.1024,-3.1024,-3.1024,-3.1024,-3.1024,-3.1024,-3.1024,-3.1024,-3.1024,-3.1024,-3.0986,-3.0936,-3.0874,-3.0874,-3.0949,-3.0647,-3.052,-3.0406,-3.0406,-3.0113,-2.9895,-2.9779,-2.9779,-2.9779,-2.9779,-2.9779,-2.9779,-2.9779,-2.9779,-2.9779,-2.9779,-2.9779,-2.9779,-2.9779,-2.9779,-2.9779,-2.9779,-2.9779,-2.9818,-3.0037,-3.0343,-3.0444,-3.0672,-3.0861,-3.0936,-3.0986,-3.1024,-3.1024,-3.1024,-3.1024,-3.1024,-3.1024,-3.1024,-3.1024,-3.1024,-3.1024,-3.1024,-3.1024,-3.1024,-3.1024,-3.1024,-3.1024,-3.1024,-3.1024,-3.1024,-3.1024,-3.0986,-3.0785,-3.0152,-2.96,-2.9067,-2.8447,-2.7898,-2.7545,-2.7272,-2.7231,-2.7272,-2.7423,-2.7505,-2.7667,-2.7736,-2.7423,-2.719,-2.7231,-2.7231,-2.719,-2.719,-2.719,-2.7231,-2.7313,-2.7383,-2.7423,-2.7615,-2.7966,-2.8167,-2.8367,-2.8367,-2.8514,-2.9779,-2.9779,-2.9779,-2.9779,-2.9779,-2.9779,-2.9779,-2.9779,-2.9779,-2.9779,-2.9792,-2.9908,-3.0088,-3.0267,-3.0381,-3.0584,-3.0849,-3.0874,-3.0911,-3.1024,-3.1024,-3.1024,-3.1024,-3.1024,-3.1024,-3.1024,-3.1024,-3.1024,-3.0898,-3.0761,-3.0685,-3.0849,-3.0622,-3.0419,-3.0305,-3.0228,-3.0075,-2.9895,-2.9779,-2.9779,-2.9779,-2.9779,-2.9779,-2.9779,-2.9779,-2.9779,-2.9779,-2.9779,-2.9779,-2.9779,-2.9779,-2.9779,-2.9779,-2.9779,-2.9856,-2.9934,-3.0075,-3.0343,-3.0533,-3.0723,-3.0874,-3.0986,-3.1024,-3.1024,-3.1024,-3.1024,-3.1024,-3.1024,-3.1024,-3.1024,-3.1024,-3.1024,-3.1024,-3.1024,-3.1024,-3.1024,-3.1024,-3.1024,-3.1024,-3.1024,-3.1024,-3.1024,-3.1024,-3.1024,-3.0823,-3.0317,-2.9883,-2.947,-2.8645,-2.7777,-2.7464,-2.7231,-2.7231,-2.7272,-2.7464,-2.7626,-2.7626,-2.7586,-2.7383,-2.7231,-2.719,-2.719,-2.719,-2.719,-2.719,-2.7231,-2.7272,-2.7272,-2.7301,-2.7505,-2.7574,-2.7696,-2.7817,-2.7817,-2.8087,-2.9779,-2.9779,-2.9779,-2.9779,-2.9779,-2.9779,-2.9779,-2.9779,-2.9779,-2.9779,-2.9792,-2.9779,-2.9946,-3.0152,-3.0228,-3.0457,-3.0685,-3.0811,-3.0911,-3.1024,-3.1024,-3.1024,-3.1024,-3.1024,-3.1024,-3.1024,-3.0986,-3.0986,-3.0874,-3.0685,-3.0533,-3.066,-3.0356,-3.0152,-3.0152,-3.0152,-3.0037,-2.9856,-2.9779,-2.9779,-2.9779,-2.9779,-2.9779,-2.9779,-2.9779,-2.9779,-2.9779,-2.9779,-2.9779,-2.9779,-2.9779,-2.9779,-2.9779,-2.9856,-2.9934,-3.0088,-3.0203,-3.0394,-3.0622,-3.0773,-3.0874,-3.0949,-3.1024,-3.1024,-3.1024,-3.1024,-3.1024,-3.1024,-3.1024,-3.1024,-3.1024,-3.1024,-3.1024,-3.1024,-3.1024,-3.1024,-3.1024,-3.1024,-3.1024,-3.1024,-3.1024,-3.1024,-3.1024,-3.0986,-3.0949,-3.047,-3.005,-2.9703,-2.9067,-2.8047,-2.7586,-2.7342,-2.7272,-2.7313,-2.7505,-2.7586,-2.7423,-2.7342,-2.7272,-2.7231,-2.719,-2.719,-2.719,-2.719,-2.719,-2.719,-2.719,-2.719,-2.7231,-2.7272,-2.7301,-2.7231,-2.7272,-2.7423,-2.7586,-2.9779,-2.9779,-2.9779,-2.9779,-2.9779,-2.9779,-2.9779,-2.9779,-2.9779,-2.9779,-2.9779,-2.983,-2.9908,-3.0075,-3.0216,-3.0444,-3.0647,-3.0773,-3.0949,-3.0986,-3.1024,-3.1024,-3.1024,-3.1024,-3.1024,-3.1024,-3.0986,-3.0911,-3.0761,-3.0558,-3.0406,-3.0457,-3.019,-3.0075,-3.0075,-3.0075,-2.9972,-2.9792,-2.9779,-2.9779,-2.9779,-2.9779,-2.9779,-2.9779,-2.9779,-2.9779,-2.9779,-2.9779,-2.9779,-2.9779,-2.9779,-2.9779,-2.9779,-2.9934,-3.0049,-3.0126,-3.0343,-3.0533,-3.0698,-3.0811,-3.0911,-3.0949,-3.1024,-3.1024,-3.1024,-3.1024,-3.1024,-3.1024,-3.1024,-3.1024,-3.1024,-3.1024,-3.1024,-3.1024,-3.1024,-3.1024,-3.1024,-3.1024,-3.1024,-3.1024,-3.1024,-3.1024,-3.1024,-3.0986,-3.0898,-3.0634,-3.0241,-2.9845,-2.9445,-2.8661,-2.7966,-2.7655,-2.7301,-2.7342,-2.7545,-2.7545,-2.7394,-2.7383,-2.7383,-2.7313,-2.719,-2.719,-2.719,-2.719,-2.719,-2.719,-2.719,-2.719,-2.719,-2.719,-2.719,-2.719,-2.719,-2.7272,-2.7313,-2.9779,-2.9779,-2.9779,-2.9779,-2.9779,-2.9779,-2.9779,-2.9779,-2.9779,-2.9779,-2.9779,-2.9779,-2.9856,-2.9998,-3.0177,-3.0368,-3.0571,-3.0773,-3.0911,-3.0986,-3.0986,-3.1024,-3.1024,-3.0986,-3.1024,-3.0986,-3.0874,-3.0761,-3.0647,-3.0381,-3.0267,-3.0228,-3.0088,-2.9972,-2.9972,-2.9972,-2.9946,-2.9792,-2.9792,-2.9779,-2.9779,-2.9792,-2.9779,-2.9779,-2.9779,-2.9779,-2.9779,-2.9779,-2.9779,-2.9779,-2.9779,-2.9779,-2.983,-2.9908,-3.0049,-3.0228,-3.0419,-3.0647,-3.0798,-3.0911,-3.1024,-3.1024,-3.1024,-3.1024,-3.1024,-3.1024,-3.1024,-3.1024,-3.1024,-3.1024,-3.1024,-3.1024,-3.1024,-3.1024,-3.1024,-3.1024,-3.1024,-3.1024,-3.1024,-3.1024,-3.1024,-3.1024,-3.1024,-3.1024,-3.0949,-3.0823,-3.0432,-3.0037,-2.96,-2.9238,-2.8581,-2.7995,-2.7655,-2.7615,-2.7898,-2.7708,-2.7313,-2.7394,-2.7464,-2.7353,-2.719,-2.719,-2.719,-2.719,-2.719,-2.719,-2.719,-2.719,-2.719,-2.719,-2.719,-2.719,-2.719,-2.719,-2.7231,-2.9779,-2.9779,-2.9779,-2.9779,-2.9779,-2.9779,-2.9779,-2.9779,-2.9779,-2.9779,-2.9779,-2.9779,-2.9779,-2.9856,-2.9998,-3.019,-3.0381,-3.0571,-3.0761,-3.0874,-3.0911,-3.0874,-3.0911,-3.0949,-3.0949,-3.0874,-3.0798,-3.0647,-3.0546,-3.0343,-3.019,-3.0049,-2.9934,-2.9779,-2.9779,-2.9792,-2.983,-2.983,-2.9869,-2.9818,-2.983,-2.9792,-2.9792,-2.9779,-2.9779,-2.9779,-2.9779,-2.9779,-2.9779,-2.9818,-2.9818,-2.9856,-2.9934,-3.0023,-3.0164,-3.0343,-3.052,-3.0723,-3.0911,-3.0986,-3.1024,-3.1024,-3.1024,-3.1024,-3.1024,-3.1024,-3.1024,-3.1024,-3.1024,-3.1024,-3.1024,-3.1024,-3.1024,-3.1024,-3.1024,-3.1024,-3.1024,-3.1024,-3.1024,-3.1024,-3.1024,-3.1024,-3.1024,-3.1024,-3.0898,-3.0785,-3.0583,-3.019,-2.9845,-2.9561,-2.9094,-2.8554,-2.8087,-2.8127,-2.8047,-2.7736,-2.7272,-2.7272,-2.7313,-2.7231,-2.719,-2.719,-2.719,-2.719,-2.719,-2.719,-2.719,-2.719,-2.719,-2.719,-2.719,-2.719,-2.719,-2.719,-2.719,-2.9779,-2.9779,-2.9779,-2.9779,-2.9779,-2.9779,-2.9779,-2.9779,-2.9779,-2.9779,-2.9792,-2.9779,-2.9792,-2.983,-3.0011,-3.0152,-3.0267,-3.0419,-3.0584,-3.0736,-3.0647,-3.0647,-3.0723,-3.0761,-3.0773,-3.0736,-3.066,-3.0495,-3.0394,-3.0305,-3.0152,-2.9908,-2.9869,-2.9792,-2.9792,-2.983,-2.9908,-2.9946,-2.9869,-2.983,-2.9934,-2.9908,-2.9792,-2.9779,-2.9779,-2.9779,-2.9779,-2.9779,-2.9779,-2.9818,-2.9934,-3.0011,-3.0088,-3.0203,-3.0343,-3.0457,-3.0609,-3.0785,-3.0936,-3.0986,-3.1024,-3.1024,-3.1024,-3.1024,-3.1024,-3.1024,-3.1024,-3.1024,-3.1024,-3.1024,-3.1024,-3.1024,-3.1024,-3.1024,-3.1024,-3.1024,-3.1024,-3.1024,-3.1024,-3.1024,-3.1024,-3.1024,-3.1024,-3.0949,-3.0785,-3.071,-3.071,-3.0317,-2.9832,-2.9678,-2.9484,-2.8976,-2.8435,-2.7898,-2.7505,-2.7505,-2.7231,-2.719,-2.719,-2.719,-2.719,-2.719,-2.719,-2.719,-2.719,-2.719,-2.719,-2.719,-2.719,-2.719,-2.719,-2.719,-2.719,-2.719,-2.719]}]]